Time,TemperatureF,DewpointF,PressureIn,WindDirection,WindDirectionDegrees,WindSpeedMPH,WindSpeedGustMPH,Humidity,HourlyPrecipIn,Conditions,Clouds,dailyrainin,SoftwareType,DateUTC
2013-02-17 00:00:00,27.3,26.6,29.57,North,355,0.0,0.0,97,0.00,,,0.12,VWS V14.01,2013-02-17 05:00:00,
2013-02-17 00:01:00,27.3,26.6,29.57,North,9,2.0,4.0,97,0.00,,OVC100,0.00,VWS V14.01,2013-02-17 05:01:00,
2013-02-17 00:02:00,27.2,26.5,29.56,North,9,0.0,3.0,97,0.00,,OVC100,0.00,VWS V14.01,2013-02-17 05:02:00,
2013-02-17 00:03:00,27.2,26.5,29.56,North,9,4.0,4.0,97,0.00,,OVC100,0.00,VWS V14.01,2013-02-17 05:03:00,
2013-02-17 00:04:00,27.2,26.5,29.56,SW,215,2.0,7.0,97,0.00,,OVC100,0.00,VWS V14.01,2013-02-17 05:04:00,
2013-02-17 00:05:00,27.2,26.5,29.56,North,9,0.0,0.0,97,0.00,,,0.00,VWS V14.01,2013-02-17 05:05:00,
2013-02-17 00:06:00,27.2,26.5,29.55,SW,216,2.0,3.0,97,0.00,,OVC100,0.00,VWS V14.01,2013-02-17 05:06:00,
2013-02-17 00:07:00,27.2,26.5,29.55,SW,216,1.0,2.0,97,0.00,,OVC100,0.00,VWS V14.01,2013-02-17 05:07:00,
2013-02-17 00:08:00,27.1,26.4,29.55,SW,217,0.0,1.0,97,0.00,,OVC100,0.00,VWS V14.01,2013-02-17 05:08:00,
2013-02-17 00:09:00,27.1,26.4,29.55,South,182,0.0,2.0,97,0.00,,OVC100,0.00,VWS V14.01,2013-02-17 05:09:00,
2013-02-17 00:10:00,27.1,26.4,29.55,SW,216,0.0,1.0,97,0.00,,,0.00,VWS V14.01,2013-02-17 05:10:00,
2013-02-17 00:11:00,27.1,26.4,29.55,South,182,0.0,3.0,97,0.00,,OVC100,0.00,VWS V14.01,2013-02-17 05:11:00,
2013-02-17 00:12:00,27.1,26.4,29.55,South,182,0.0,0.0,97,0.00,,OVC100,0.00,VWS V14.01,2013-02-17 05:12:00,
2013-02-17 00:13:00,27.0,26.3,29.55,South,182,0.0,3.0,97,0.00,,OVC100,0.00,VWS V14.01,2013-02-17 05:13:00,
2013-02-17 00:14:00,27.0,26.3,29.54,South,183,1.0,3.0,97,0.00,,OVC100,0.00,VWS V14.01,2013-02-17 05:14:00,
2013-02-17 00:15:00,27.0,26.3,29.55,South,182,3.0,3.0,97,0.00,,,0.00,VWS V14.01,2013-02-17 05:15:00,
2013-02-17 00:16:00,27.0,26.3,29.54,NNW,333,3.0,5.0,97,0.00,,OVC100,0.00,VWS V14.01,2013-02-17 05:16:00,
2013-02-17 00:17:00,27.0,26.3,29.54,NNW,333,0.0,3.0,97,0.00,,OVC100,0.00,VWS V14.01,2013-02-17 05:17:00,
2013-02-17 00:18:00,26.9,26.2,29.54,NNW,333,0.0,1.0,97,0.00,,OVC100,0.00,VWS V14.01,2013-02-17 05:18:00,
2013-02-17 00:19:00,26.9,26.2,29.54,NNW,333,0.0,2.0,97,0.00,,OVC100,0.00,VWS V14.01,2013-02-17 05:19:00,
2013-02-17 00:20:00,26.9,26.2,29.54,NNW,333,0.0,0.0,97,0.00,,,0.00,VWS V14.01,2013-02-17 05:20:00,
2013-02-17 00:21:00,26.9,26.2,29.54,North,5,0.0,2.0,97,0.00,,OVC100,0.00,VWS V14.01,2013-02-17 05:21:00,
2013-02-17 00:22:00,26.9,26.2,29.54,North,5,0.0,2.0,97,0.00,,OVC100,0.00,VWS V14.01,2013-02-17 05:22:00,
2013-02-17 00:23:00,26.8,26.1,29.54,North,5,0.0,0.0,97,0.00,,OVC100,0.00,VWS V14.01,2013-02-17 05:23:00,
2013-02-17 00:24:00,26.8,26.1,29.54,North,5,0.0,2.0,97,0.00,,OVC100,0.00,VWS V14.01,2013-02-17 05:24:00,
2013-02-17 00:25:00,26.9,26.2,29.54,North,5,0.0,0.0,97,0.00,,,0.00,VWS V14.01,2013-02-17 05:25:00,
2013-02-17 00:26:00,26.8,26.1,29.55,North,5,0.0,1.0,97,0.00,,OVC100,0.00,VWS V14.01,2013-02-17 05:26:00,
2013-02-17 00:27:00,26.8,26.1,29.54,North,360,0.0,2.0,97,0.00,,OVC100,0.00,VWS V14.01,2013-02-17 05:27:00,
2013-02-17 00:28:00,26.7,26.0,29.54,North,360,0.0,1.0,97,0.00,,OVC100,0.00,VWS V14.01,2013-02-17 05:28:00,
2013-02-17 00:29:00,26.7,26.0,29.54,NNW,342,0.0,5.0,97,0.00,,OVC100,0.00,VWS V14.01,2013-02-17 05:29:00,
2013-02-17 00:30:00,26.8,26.1,29.54,North,360,0.0,0.0,97,0.00,,,0.00,VWS V14.01,2013-02-17 05:30:00,
2013-02-17 00:31:00,26.7,26.0,29.54,NNW,342,0.0,1.0,97,0.00,,OVC100,0.00,VWS V14.01,2013-02-17 05:31:00,
2013-02-17 00:32:00,26.7,26.0,29.54,NNW,342,0.0,1.0,97,0.00,,OVC100,0.00,VWS V14.01,2013-02-17 05:32:00,
2013-02-17 00:33:00,26.7,26.0,29.55,NNW,342,1.0,1.0,97,0.00,,OVC100,0.00,VWS V14.01,2013-02-17 05:33:00,
2013-02-17 00:34:00,26.7,26.0,29.55,NNW,342,0.0,1.0,97,0.00,,OVC100,0.00,VWS V14.01,2013-02-17 05:34:00,
2013-02-17 00:35:00,26.7,26.0,29.55,NNW,342,0.0,0.0,97,0.00,,,0.00,VWS V14.01,2013-02-17 05:35:00,
2013-02-17 00:36:00,26.6,25.9,29.55,NNW,342,0.0,1.0,97,0.00,,OVC100,0.00,VWS V14.01,2013-02-17 05:36:00,
2013-02-17 00:37:00,26.6,25.9,29.55,NNW,342,0.0,3.0,97,0.00,,OVC100,0.00,VWS V14.01,2013-02-17 05:37:00,
2013-02-17 00:38:00,26.6,25.9,29.55,NNW,343,0.0,0.0,97,0.00,,OVC100,0.00,VWS V14.01,2013-02-17 05:38:00,
2013-02-17 00:39:00,26.5,25.8,29.55,NNW,343,0.0,1.0,97,0.00,,OVC100,0.00,VWS V14.01,2013-02-17 05:39:00,
2013-02-17 00:40:00,26.6,25.9,29.55,NNW,343,0.0,0.0,97,0.00,,,0.00,VWS V14.01,2013-02-17 05:40:00,
2013-02-17 00:41:00,26.5,25.8,29.55,NNE,22,0.0,1.0,97,0.00,,OVC100,0.00,VWS V14.01,2013-02-17 05:41:00,
2013-02-17 00:42:00,26.5,25.8,29.54,NNE,22,0.0,2.0,97,0.00,,OVC100,0.00,VWS V14.01,2013-02-17 05:42:00,
2013-02-17 00:43:00,26.5,25.8,29.54,NNE,22,0.0,3.0,97,0.00,,OVC100,0.00,VWS V14.01,2013-02-17 05:43:00,
2013-02-17 00:44:00,26.4,25.7,29.54,NNE,22,0.0,3.0,97,0.00,,OVC100,0.00,VWS V14.01,2013-02-17 05:44:00,
2013-02-17 00:45:00,26.5,25.8,29.54,NNE,22,1.0,2.0,97,0.00,,,0.00,VWS V14.01,2013-02-17 05:45:00,
2013-02-17 00:46:00,26.3,25.6,29.54,NNE,22,0.0,2.0,97,0.00,,OVC100,0.00,VWS V14.01,2013-02-17 05:46:00,
2013-02-17 00:47:00,26.3,25.3,29.54,NNE,22,0.0,1.0,96,0.00,,OVC100,0.00,VWS V14.01,2013-02-17 05:47:00,
2013-02-17 00:48:00,26.3,25.3,29.54,NNE,22,2.0,3.0,96,0.00,,OVC100,0.00,VWS V14.01,2013-02-17 05:48:00,
2013-02-17 00:49:00,26.3,25.3,29.54,NNE,22,0.0,5.0,96,0.00,,OVC100,0.00,VWS V14.01,2013-02-17 05:49:00,
2013-02-17 00:50:00,26.3,25.3,29.54,NNE,22,2.0,2.0,96,0.00,,,0.00,VWS V14.01,2013-02-17 05:50:00,
2013-02-17 00:51:00,26.2,25.2,29.55,NNE,22,2.0,3.0,96,0.00,,OVC100,0.00,VWS V14.01,2013-02-17 05:51:00,
2013-02-17 00:52:00,26.2,25.2,29.56,NNE,22,0.0,2.0,96,0.00,,OVC100,0.00,VWS V14.01,2013-02-17 05:52:00,
2013-02-17 00:53:00,26.2,25.2,29.56,NNE,22,0.0,1.0,96,0.00,,OVC100,0.00,VWS V14.01,2013-02-17 05:53:00,
2013-02-17 00:54:00,26.2,25.2,29.56,NNE,22,2.0,2.0,96,0.00,,OVC100,0.00,VWS V14.01,2013-02-17 05:54:00,
2013-02-17 00:55:00,26.2,25.2,29.56,NNE,22,0.0,0.0,96,0.00,,,0.00,VWS V14.01,2013-02-17 05:55:00,
2013-02-17 00:56:00,26.1,25.1,29.56,NNE,22,0.0,2.0,96,0.00,,OVC100,0.00,VWS V14.01,2013-02-17 05:56:00,
2013-02-17 00:57:00,26.1,25.1,29.56,NNE,22,1.0,1.0,96,0.00,,OVC100,0.00,VWS V14.01,2013-02-17 05:57:00,
2013-02-17 00:58:00,26.1,25.1,29.56,NNE,22,1.0,1.0,96,0.00,,OVC100,0.00,VWS V14.01,2013-02-17 05:58:00,
2013-02-17 00:59:00,26.0,25.0,29.56,NNE,22,0.0,1.0,96,0.00,,OVC100,0.00,VWS V14.01,2013-02-17 05:59:00,
2013-02-17 01:00:00,26.1,25.1,29.56,NNE,22,0.0,1.0,96,0.00,,,0.00,VWS V14.01,2013-02-17 06:00:00,
2013-02-17 01:01:00,26.0,25.0,29.56,NNE,22,0.0,0.0,96,0.00,,OVC100,0.00,VWS V14.01,2013-02-17 06:01:00,
2013-02-17 01:02:00,26.0,25.0,29.56,NNE,22,0.0,1.0,96,0.00,,OVC100,0.00,VWS V14.01,2013-02-17 06:02:00,
2013-02-17 01:03:00,26.0,25.0,29.56,NNE,22,0.0,0.0,96,0.00,,OVC100,0.00,VWS V14.01,2013-02-17 06:03:00,
2013-02-17 01:04:00,26.0,25.0,29.56,NNE,22,0.0,0.0,96,0.00,,OVC100,0.00,VWS V14.01,2013-02-17 06:04:00,
2013-02-17 01:05:00,26.0,25.0,29.56,NNE,22,0.0,0.0,96,0.00,,,0.00,VWS V14.01,2013-02-17 06:05:00,
2013-02-17 01:06:00,25.9,24.9,29.56,NNE,22,0.0,0.0,96,0.00,,OVC100,0.00,VWS V14.01,2013-02-17 06:06:00,
2013-02-17 01:07:00,25.9,24.9,29.56,NNE,22,0.0,0.0,96,0.00,,OVC100,0.00,VWS V14.01,2013-02-17 06:07:00,
2013-02-17 01:08:00,25.9,24.9,29.56,NNE,22,0.0,2.0,96,0.00,,OVC100,0.00,VWS V14.01,2013-02-17 06:08:00,
2013-02-17 01:09:00,25.8,24.8,29.56,NNE,22,0.0,0.0,96,0.00,,OVC100,0.00,VWS V14.01,2013-02-17 06:09:00,
2013-02-17 01:10:00,25.9,24.9,29.56,NNE,22,1.0,1.0,96,0.00,,,0.00,VWS V14.01,2013-02-17 06:10:00,
2013-02-17 01:11:00,25.8,24.8,29.56,NNE,22,0.0,0.0,96,0.00,,OVC100,0.00,VWS V14.01,2013-02-17 06:11:00,
2013-02-17 01:12:00,25.8,24.8,29.56,NNE,22,0.0,1.0,96,0.00,,OVC100,0.00,VWS V14.01,2013-02-17 06:12:00,
2013-02-17 01:13:00,25.8,24.8,29.56,NNE,22,1.0,2.0,96,0.00,,OVC100,0.00,VWS V14.01,2013-02-17 06:13:00,
2013-02-17 01:14:00,25.8,24.8,29.56,NNE,22,0.0,1.0,96,0.00,,OVC100,0.00,VWS V14.01,2013-02-17 06:14:00,
2013-02-17 01:15:00,25.8,24.8,29.56,NNE,22,0.0,0.0,96,0.00,,,0.00,VWS V14.01,2013-02-17 06:15:00,
2013-02-17 01:16:00,25.8,24.8,29.56,NNE,22,1.0,1.0,96,0.00,,OVC100,0.00,VWS V14.01,2013-02-17 06:16:00,
2013-02-17 01:17:00,25.7,24.7,29.56,NNE,22,1.0,3.0,96,0.00,,OVC100,0.00,VWS V14.01,2013-02-17 06:17:00,
2013-02-17 01:18:00,25.7,24.7,29.56,NNE,22,1.0,1.0,96,0.00,,OVC100,0.00,VWS V14.01,2013-02-17 06:18:00,
2013-02-17 01:19:00,25.7,24.7,29.56,NNE,22,0.0,2.0,96,0.00,,OVC100,0.00,VWS V14.01,2013-02-17 06:19:00,
2013-02-17 01:20:00,25.8,24.8,29.56,NNE,22,0.0,1.0,96,0.00,,,0.00,VWS V14.01,2013-02-17 06:20:00,
2013-02-17 01:21:00,25.7,24.7,29.55,NNE,22,1.0,2.0,96,0.00,,OVC100,0.00,VWS V14.01,2013-02-17 06:21:00,
2013-02-17 01:22:00,25.7,24.7,29.55,NNE,22,0.0,1.0,96,0.00,,OVC100,0.00,VWS V14.01,2013-02-17 06:22:00,
2013-02-17 01:23:00,25.7,24.7,29.55,NNE,22,0.0,2.0,96,0.00,,OVC100,0.00,VWS V14.01,2013-02-17 06:23:00,
2013-02-17 01:24:00,25.7,24.7,29.55,NNE,22,0.0,1.0,96,0.00,,OVC100,0.00,VWS V14.01,2013-02-17 06:24:00,
2013-02-17 01:25:00,25.7,24.7,29.55,NNE,22,2.0,2.0,96,0.00,,,0.00,VWS V14.01,2013-02-17 06:25:00,
2013-02-17 01:26:00,25.6,24.6,29.54,NNE,22,0.0,2.0,96,0.00,,OVC100,0.00,VWS V14.01,2013-02-17 06:26:00,
2013-02-17 01:27:00,25.6,24.6,29.54,NNE,22,0.0,5.0,96,0.00,,OVC100,0.00,VWS V14.01,2013-02-17 06:27:00,
2013-02-17 01:28:00,25.6,24.6,29.54,NNE,22,0.0,0.0,96,0.00,,OVC100,0.00,VWS V14.01,2013-02-17 06:28:00,
2013-02-17 01:29:00,25.6,24.6,29.54,NNE,22,0.0,1.0,96,0.00,,OVC100,0.00,VWS V14.01,2013-02-17 06:29:00,
2013-02-17 01:30:00,25.6,24.6,29.54,NNE,22,0.0,0.0,96,0.00,,,0.00,VWS V14.01,2013-02-17 06:30:00,
2013-02-17 01:31:00,25.6,24.6,29.54,NNE,22,1.0,3.0,96,0.00,,OVC100,0.00,VWS V14.01,2013-02-17 06:31:00,
2013-02-17 01:32:00,25.6,24.6,29.54,NNE,22,0.0,3.0,96,0.00,,OVC100,0.00,VWS V14.01,2013-02-17 06:32:00,
2013-02-17 01:33:00,25.5,24.5,29.53,NNE,22,1.0,6.0,96,0.00,,OVC100,0.00,VWS V14.01,2013-02-17 06:33:00,
2013-02-17 01:34:00,25.5,24.5,29.53,NNE,22,2.0,2.0,96,0.00,,OVC100,0.00,VWS V14.01,2013-02-17 06:34:00,
2013-02-17 01:35:00,25.6,24.6,29.53,NNE,22,2.0,6.0,96,0.00,,,0.00,VWS V14.01,2013-02-17 06:35:00,
2013-02-17 01:36:00,25.4,24.4,29.53,NNE,22,3.0,3.0,96,0.00,,OVC100,0.00,VWS V14.01,2013-02-17 06:36:00,
2013-02-17 01:37:00,25.4,24.4,29.53,NNE,22,0.0,3.0,96,0.00,,OVC100,0.00,VWS V14.01,2013-02-17 06:37:00,
2013-02-17 01:38:00,25.4,24.4,29.53,NNE,22,1.0,2.0,96,0.00,,OVC100,0.00,VWS V14.01,2013-02-17 06:38:00,
2013-02-17 01:39:00,25.4,24.4,29.53,NNE,22,1.0,4.0,96,0.00,,OVC100,0.00,VWS V14.01,2013-02-17 06:39:00,
2013-02-17 01:40:00,25.4,24.4,29.53,NNE,22,2.0,2.0,96,0.00,,,0.00,VWS V14.01,2013-02-17 06:40:00,
2013-02-17 01:41:00,25.3,24.3,29.52,NNE,22,0.0,3.0,96,0.00,,OVC100,0.00,VWS V14.01,2013-02-17 06:41:00,
2013-02-17 01:42:00,25.3,24.3,29.52,NNE,22,2.0,3.0,96,0.00,,OVC100,0.00,VWS V14.01,2013-02-17 06:42:00,
2013-02-17 01:43:00,25.2,24.2,29.52,NNE,22,0.0,3.0,96,0.00,,OVC100,0.00,VWS V14.01,2013-02-17 06:43:00,
2013-02-17 01:44:00,25.2,24.2,29.52,NNE,22,0.0,1.0,96,0.00,,OVC100,0.00,VWS V14.01,2013-02-17 06:44:00,
2013-02-17 01:45:00,25.3,24.3,29.52,NNE,22,0.0,2.0,96,0.00,,,0.00,VWS V14.01,2013-02-17 06:45:00,
2013-02-17 01:46:00,25.2,24.2,29.53,NNE,22,0.0,2.0,96,0.00,,OVC100,0.00,VWS V14.01,2013-02-17 06:46:00,
2013-02-17 01:47:00,25.1,24.1,29.52,NNE,22,0.0,0.0,96,0.00,,OVC100,0.00,VWS V14.01,2013-02-17 06:47:00,
2013-02-17 01:48:00,25.1,24.1,29.53,NNE,22,0.0,5.0,96,0.00,,OVC100,0.00,VWS V14.01,2013-02-17 06:48:00,
2013-02-17 01:49:00,25.1,24.1,29.52,NNE,22,5.0,6.0,96,0.00,,OVC100,0.00,VWS V14.01,2013-02-17 06:49:00,
2013-02-17 01:50:00,25.1,24.1,29.53,NNE,22,5.0,5.0,96,0.00,,,0.00,VWS V14.01,2013-02-17 06:50:00,
2013-02-17 01:51:00,25.0,24.0,29.53,NNE,22,0.0,1.0,96,0.00,,OVC100,0.00,VWS V14.01,2013-02-17 06:51:00,
2013-02-17 01:52:00,25.0,24.0,29.53,NNE,22,2.0,2.0,96,0.00,,OVC100,0.00,VWS V14.01,2013-02-17 06:52:00,
2013-02-17 01:53:00,24.9,23.9,29.53,NNE,22,0.0,3.0,96,0.00,,OVC100,0.00,VWS V14.01,2013-02-17 06:53:00,
2013-02-17 01:54:00,24.9,23.9,29.53,NNE,22,0.0,4.0,96,0.00,,OVC100,0.00,VWS V14.01,2013-02-17 06:54:00,
2013-02-17 01:55:00,24.9,23.9,29.53,NNE,22,0.0,3.0,96,0.00,,,0.00,VWS V14.01,2013-02-17 06:55:00,
2013-02-17 01:56:00,24.8,23.8,29.52,NNE,22,4.0,4.0,96,0.00,,OVC100,0.00,VWS V14.01,2013-02-17 06:56:00,
2013-02-17 01:57:00,24.8,23.8,29.52,NNE,22,1.0,4.0,96,0.00,,OVC100,0.00,VWS V14.01,2013-02-17 06:57:00,
2013-02-17 01:58:00,24.7,23.7,29.52,NW,310,8.0,9.0,96,0.00,,OVC100,0.00,VWS V14.01,2013-02-17 06:58:00,
2013-02-17 01:59:00,24.7,23.7,29.52,NW,321,1.0,8.0,96,0.00,,OVC100,0.00,VWS V14.01,2013-02-17 06:59:00,
2013-02-17 02:00:00,24.8,23.8,29.52,NNE,22,3.0,5.0,96,0.00,,,0.00,VWS V14.01,2013-02-17 07:00:00,
2013-02-17 02:01:00,24.6,23.6,29.51,NNW,331,1.0,4.0,96,0.00,,OVC100,0.00,VWS V14.01,2013-02-17 07:01:00,
2013-02-17 02:02:00,24.5,23.5,29.51,NNW,346,1.0,10.0,96,0.00,,OVC100,0.00,VWS V14.01,2013-02-17 07:02:00,
2013-02-17 02:03:00,24.5,23.5,29.51,North,360,0.0,4.0,96,0.00,,OVC100,0.00,VWS V14.01,2013-02-17 07:03:00,
2013-02-17 02:04:00,24.5,23.5,29.51,NNW,331,3.0,3.0,96,0.00,,OVC100,0.00,VWS V14.01,2013-02-17 07:04:00,
2013-02-17 02:05:00,24.5,23.5,29.51,NNW,348,2.0,4.0,96,0.00,,,0.00,VWS V14.01,2013-02-17 07:05:00,
2013-02-17 02:06:00,24.4,23.4,29.51,NNW,334,0.0,0.0,96,0.00,,OVC100,0.00,VWS V14.01,2013-02-17 07:06:00,
2013-02-17 02:07:00,24.4,23.4,29.51,NW,319,3.0,11.0,96,0.00,,OVC100,0.00,VWS V14.01,2013-02-17 07:07:00,
2013-02-17 02:08:00,24.3,23.3,29.51,NNE,23,1.0,3.0,96,0.00,,OVC100,0.00,VWS V14.01,2013-02-17 07:08:00,
2013-02-17 02:09:00,24.3,23.3,29.51,NNE,23,2.0,3.0,96,0.00,,OVC100,0.00,VWS V14.01,2013-02-17 07:09:00,
2013-02-17 02:10:00,24.4,23.4,29.51,NW,319,2.0,3.0,96,0.00,,,0.00,VWS V14.01,2013-02-17 07:10:00,
2013-02-17 02:11:00,24.2,23.2,29.51,NNE,22,3.0,3.0,96,0.00,,OVC100,0.00,VWS V14.01,2013-02-17 07:11:00,
2013-02-17 02:12:00,24.1,23.1,29.51,NW,326,2.0,4.0,96,0.00,,OVC100,0.00,VWS V14.01,2013-02-17 07:12:00,
2013-02-17 02:13:00,24.1,23.1,29.51,NNW,333,3.0,4.0,96,0.00,,OVC100,0.00,VWS V14.01,2013-02-17 07:13:00,
2013-02-17 02:14:00,24.1,23.1,29.52,NNE,24,1.0,3.0,96,0.00,,OVC100,0.00,VWS V14.01,2013-02-17 07:14:00,
2013-02-17 02:15:00,24.1,23.1,29.51,NW,326,0.0,2.0,96,0.00,,,0.00,VWS V14.01,2013-02-17 07:15:00,
2013-02-17 02:16:00,24.0,23.0,29.52,NW,314,0.0,2.0,96,0.00,,OVC100,0.00,VWS V14.01,2013-02-17 07:16:00,
2013-02-17 02:17:00,24.0,23.0,29.52,NNE,26,0.0,0.0,96,0.00,,OVC100,0.00,VWS V14.01,2013-02-17 07:17:00,
2013-02-17 02:18:00,23.9,22.9,29.52,North,360,0.0,5.0,96,0.00,,OVC100,0.00,VWS V14.01,2013-02-17 07:18:00,
2013-02-17 02:19:00,23.9,22.9,29.52,NNW,339,1.0,3.0,96,0.00,,OVC100,0.00,VWS V14.01,2013-02-17 07:19:00,
2013-02-17 02:20:00,24.0,23.0,29.52,NW,309,3.0,5.0,96,0.00,,,0.00,VWS V14.01,2013-02-17 07:20:00,
2013-02-17 02:21:00,23.9,22.9,29.52,NNE,26,0.0,0.0,96,0.00,,OVC100,0.00,VWS V14.01,2013-02-17 07:21:00,
2013-02-17 02:22:00,23.9,22.9,29.52,North,5,0.0,6.0,96,0.00,,OVC100,0.00,VWS V14.01,2013-02-17 07:22:00,
2013-02-17 02:23:00,23.9,22.9,29.51,NE,44,0.0,1.0,96,0.00,,OVC100,0.00,VWS V14.01,2013-02-17 07:23:00,
2013-02-17 02:24:00,23.8,22.8,29.52,NE,44,0.0,3.0,96,0.00,,OVC100,0.00,VWS V14.01,2013-02-17 07:24:00,
2013-02-17 02:25:00,23.9,22.9,29.51,NE,44,1.0,1.0,96,0.00,,,0.00,VWS V14.01,2013-02-17 07:25:00,
2013-02-17 02:26:00,23.8,22.8,29.51,NE,44,0.0,2.0,96,0.00,,OVC100,0.00,VWS V14.01,2013-02-17 07:26:00,
2013-02-17 02:27:00,23.8,22.8,29.51,NE,44,0.0,0.0,96,0.00,,OVC100,0.00,VWS V14.01,2013-02-17 07:27:00,
2013-02-17 02:28:00,23.8,22.8,29.51,NE,44,1.0,1.0,96,0.00,,OVC100,0.00,VWS V14.01,2013-02-17 07:28:00,
2013-02-17 02:29:00,23.7,22.7,29.52,NE,44,2.0,2.0,96,0.00,,OVC100,0.00,VWS V14.01,2013-02-17 07:29:00,
2013-02-17 02:30:00,23.8,22.8,29.51,NE,44,0.0,1.0,96,0.00,,,0.00,VWS V14.01,2013-02-17 07:30:00,
2013-02-17 02:31:00,23.7,22.7,29.52,NE,44,1.0,1.0,96,0.00,,OVC100,0.00,VWS V14.01,2013-02-17 07:31:00,
2013-02-17 02:32:00,23.7,22.7,29.52,NE,44,0.0,1.0,96,0.00,,OVC100,0.00,VWS V14.01,2013-02-17 07:32:00,
2013-02-17 02:33:00,23.7,22.7,29.52,NE,49,0.0,2.0,96,0.00,,OVC100,0.00,VWS V14.01,2013-02-17 07:33:00,
2013-02-17 02:34:00,23.7,22.7,29.52,NE,49,0.0,1.0,96,0.00,,OVC100,0.00,VWS V14.01,2013-02-17 07:34:00,
2013-02-17 02:35:00,23.7,22.7,29.52,NE,49,1.0,2.0,96,0.00,,,0.00,VWS V14.01,2013-02-17 07:35:00,
2013-02-17 02:36:00,23.6,22.6,29.52,NE,49,0.0,1.0,96,0.00,,OVC100,0.00,VWS V14.01,2013-02-17 07:36:00,
2013-02-17 02:37:00,23.6,22.6,29.52,NE,49,3.0,3.0,96,0.00,,OVC100,0.00,VWS V14.01,2013-02-17 07:37:00,
2013-02-17 02:38:00,23.6,22.6,29.52,NE,49,1.0,3.0,96,0.00,,OVC100,0.00,VWS V14.01,2013-02-17 07:38:00,
2013-02-17 02:39:00,23.6,22.6,29.51,NE,49,0.0,3.0,96,0.00,,OVC100,0.00,VWS V14.01,2013-02-17 07:39:00,
2013-02-17 02:40:00,23.6,22.6,29.52,NE,49,1.0,3.0,96,0.00,,,0.00,VWS V14.01,2013-02-17 07:40:00,
2013-02-17 02:41:00,23.6,22.6,29.52,NE,49,0.0,1.0,96,0.00,,OVC100,0.00,VWS V14.01,2013-02-17 07:41:00,
2013-02-17 02:42:00,23.6,22.6,29.51,NE,49,4.0,4.0,96,0.00,,OVC100,0.00,VWS V14.01,2013-02-17 07:42:00,
2013-02-17 02:43:00,23.5,22.5,29.51,East,88,2.0,4.0,96,0.00,,OVC100,0.00,VWS V14.01,2013-02-17 07:43:00,
2013-02-17 02:44:00,23.5,22.5,29.51,NNW,332,3.0,7.0,96,0.00,,OVC100,0.00,VWS V14.01,2013-02-17 07:44:00,
2013-02-17 02:45:00,23.6,22.6,29.51,East,88,3.0,4.0,96,0.00,,,0.00,VWS V14.01,2013-02-17 07:45:00,
2013-02-17 02:46:00,23.5,22.5,29.51,North,9,0.0,2.0,96,0.00,,OVC100,0.00,VWS V14.01,2013-02-17 07:46:00,
2013-02-17 02:47:00,23.5,22.5,29.51,NNW,348,0.0,1.0,96,0.00,,OVC100,0.00,VWS V14.01,2013-02-17 07:47:00,
2013-02-17 02:48:00,23.5,22.5,29.51,NNW,348,1.0,1.0,96,0.00,,OVC100,0.00,VWS V14.01,2013-02-17 07:48:00,
2013-02-17 02:49:00,23.5,22.5,29.51,NNW,348,1.0,3.0,96,0.00,,OVC100,0.00,VWS V14.01,2013-02-17 07:49:00,
2013-02-17 02:50:00,23.5,22.5,29.51,NNW,348,0.0,0.0,96,0.00,,,0.00,VWS V14.01,2013-02-17 07:50:00,
2013-02-17 02:51:00,23.4,22.2,29.51,NNW,348,0.0,1.0,95,0.00,,OVC100,0.00,VWS V14.01,2013-02-17 07:51:00,
2013-02-17 02:52:00,23.4,22.2,29.51,NNW,348,0.0,1.0,95,0.00,,OVC100,0.00,VWS V14.01,2013-02-17 07:52:00,
2013-02-17 02:53:00,23.4,22.2,29.51,North,5,0.0,1.0,95,0.00,,OVC100,0.00,VWS V14.01,2013-02-17 07:53:00,
2013-02-17 02:54:00,23.4,22.2,29.51,NNW,339,0.0,10.0,95,0.00,,OVC100,0.00,VWS V14.01,2013-02-17 07:54:00,
2013-02-17 02:55:00,23.4,22.2,29.51,NNW,348,0.0,1.0,95,0.00,,,0.00,VWS V14.01,2013-02-17 07:55:00,
2013-02-17 02:56:00,23.4,22.2,29.50,North,5,0.0,2.0,95,0.00,,OVC100,0.00,VWS V14.01,2013-02-17 07:56:00,
2013-02-17 02:57:00,23.4,22.2,29.50,ENE,77,0.0,2.0,95,0.00,,OVC100,0.00,VWS V14.01,2013-02-17 07:57:00,
2013-02-17 02:58:00,23.3,22.1,29.49,NW,323,4.0,9.0,95,0.00,,OVC100,0.00,VWS V14.01,2013-02-17 07:58:00,
2013-02-17 02:59:00,23.3,22.1,29.49,NNW,346,0.0,5.0,95,0.00,,OVC100,0.00,VWS V14.01,2013-02-17 07:59:00,
2013-02-17 03:00:00,23.4,22.2,29.49,ENE,77,1.0,1.0,95,0.00,,OVC041,0.00,VWS V14.01,2013-02-17 08:00:00,
2013-02-17 03:01:00,23.3,22.1,29.49,NNW,343,0.0,7.0,95,0.00,,OVC100,0.00,VWS V14.01,2013-02-17 08:01:00,
2013-02-17 03:02:00,23.3,22.1,29.49,NNW,338,3.0,3.0,95,0.00,,OVC100,0.00,VWS V14.01,2013-02-17 08:02:00,
2013-02-17 03:03:00,23.2,22.0,29.49,NW,326,2.0,5.0,95,0.00,,OVC100,0.00,VWS V14.01,2013-02-17 08:03:00,
2013-02-17 03:04:00,23.2,22.0,29.49,NNE,15,0.0,6.0,95,0.00,,OVC100,0.00,VWS V14.01,2013-02-17 08:04:00,
2013-02-17 03:05:00,23.3,22.1,29.49,North,355,0.0,3.0,95,0.00,,OVC041,0.00,VWS V14.01,2013-02-17 08:05:00,
2013-02-17 03:06:00,23.2,22.0,29.49,NNE,15,1.0,7.0,95,0.00,,OVC100,0.00,VWS V14.01,2013-02-17 08:06:00,
2013-02-17 03:07:00,23.2,22.0,29.48,ESE,103,0.0,2.0,95,0.00,,OVC100,0.00,VWS V14.01,2013-02-17 08:07:00,
2013-02-17 03:08:00,23.1,21.9,29.48,ESE,102,0.0,2.0,95,0.00,,OVC100,0.00,VWS V14.01,2013-02-17 08:08:00,
2013-02-17 03:09:00,23.1,21.9,29.48,ESE,102,0.0,2.0,95,0.00,,OVC100,0.00,VWS V14.01,2013-02-17 08:09:00,
2013-02-17 03:10:00,23.2,22.0,29.48,ESE,103,0.0,0.0,95,0.00,,OVC041,0.00,VWS V14.01,2013-02-17 08:10:00,
2013-02-17 03:11:00,23.1,21.9,29.48,NNW,331,1.0,6.0,95,0.00,,OVC100,0.00,VWS V14.01,2013-02-17 08:11:00,
2013-02-17 03:12:00,23.1,21.9,29.48,North,9,0.0,1.0,95,0.00,,OVC100,0.00,VWS V14.01,2013-02-17 08:12:00,
2013-02-17 03:13:00,23.1,21.9,29.47,NNW,345,1.0,2.0,95,0.00,,OVC100,0.00,VWS V14.01,2013-02-17 08:13:00,
2013-02-17 03:14:00,23.1,21.9,29.47,NNW,348,1.0,3.0,95,0.00,,OVC100,0.00,VWS V14.01,2013-02-17 08:14:00,
2013-02-17 03:15:00,23.1,21.9,29.47,NNE,13,0.0,0.0,95,0.00,,OVC041,0.00,VWS V14.01,2013-02-17 08:15:00,
2013-02-17 03:16:00,23.1,21.9,29.47,NW,320,2.0,4.0,95,0.00,,OVC100,0.00,VWS V14.01,2013-02-17 08:16:00,
2013-02-17 03:17:00,23.0,21.8,29.47,NNE,16,0.0,3.0,95,0.00,,OVC100,0.00,VWS V14.01,2013-02-17 08:17:00,
2013-02-17 03:18:00,23.0,21.8,29.47,NW,319,0.0,4.0,95,0.00,,OVC100,0.00,VWS V14.01,2013-02-17 08:18:00,
2013-02-17 03:19:00,23.0,21.8,29.47,NNW,329,0.0,3.0,95,0.00,,OVC100,0.00,VWS V14.01,2013-02-17 08:19:00,
2013-02-17 03:20:00,23.0,21.8,29.47,North,10,1.0,1.0,95,0.00,,OVC041,0.00,VWS V14.01,2013-02-17 08:20:00,
2013-02-17 03:21:00,23.0,21.8,29.47,NNE,19,0.0,1.0,95,0.00,,OVC100,0.00,VWS V14.01,2013-02-17 08:21:00,
2013-02-17 03:22:00,23.0,21.8,29.47,North,360,0.0,1.0,95,0.00,,OVC100,0.00,VWS V14.01,2013-02-17 08:22:00,
2013-02-17 03:23:00,22.9,21.7,29.47,NNW,346,2.0,2.0,95,0.00,,OVC100,0.00,VWS V14.01,2013-02-17 08:23:00,
2013-02-17 03:24:00,22.9,21.7,29.47,NNW,336,1.0,3.0,95,0.00,,OVC100,0.00,VWS V14.01,2013-02-17 08:24:00,
2013-02-17 03:25:00,23.0,21.8,29.47,NNE,13,0.0,1.0,95,0.00,,,0.00,VWS V14.01,2013-02-17 08:25:00,
2013-02-17 03:26:00,22.9,21.7,29.47,North,355,0.0,2.0,95,0.00,,OVC100,0.00,VWS V14.01,2013-02-17 08:26:00,
2013-02-17 03:27:00,22.9,21.7,29.47,East,89,3.0,7.0,95,0.00,,OVC100,0.00,VWS V14.01,2013-02-17 08:27:00,
2013-02-17 03:28:00,22.8,21.6,29.47,NNW,331,2.0,5.0,95,0.00,,OVC100,0.00,VWS V14.01,2013-02-17 08:28:00,
2013-02-17 03:29:00,22.8,21.6,29.47,NW,322,0.0,4.0,95,0.00,,OVC100,0.00,VWS V14.01,2013-02-17 08:29:00,
2013-02-17 03:30:00,22.9,21.7,29.47,NW,321,5.0,5.0,95,0.00,,,0.00,VWS V14.01,2013-02-17 08:30:00,
2013-02-17 03:31:00,22.8,21.6,29.47,NNW,345,0.0,5.0,95,0.00,,OVC100,0.00,VWS V14.01,2013-02-17 08:31:00,
2013-02-17 03:32:00,22.7,21.5,29.47,NW,313,6.0,6.0,95,0.00,,OVC100,0.00,VWS V14.01,2013-02-17 08:32:00,
2013-02-17 03:33:00,22.7,21.5,29.47,NNW,336,3.0,11.0,95,0.00,,OVC100,0.00,VWS V14.01,2013-02-17 08:33:00,
2013-02-17 03:34:00,22.7,21.5,29.48,NNW,333,2.0,7.0,95,0.00,,OVC100,0.00,VWS V14.01,2013-02-17 08:34:00,
2013-02-17 03:35:00,22.7,21.5,29.47,NW,317,11.0,11.0,95,0.00,,,0.00,VWS V14.01,2013-02-17 08:35:00,
2013-02-17 03:36:00,22.6,21.4,29.48,NW,319,2.0,2.0,95,0.00,,OVC100,0.00,VWS V14.01,2013-02-17 08:36:00,
2013-02-17 03:37:00,22.6,21.4,29.48,North,360,1.0,7.0,95,0.00,,OVC100,0.00,VWS V14.01,2013-02-17 08:37:00,
2013-02-17 03:38:00,22.6,21.4,29.48,North,355,1.0,2.0,95,0.00,,OVC100,0.00,VWS V14.01,2013-02-17 08:38:00,
2013-02-17 03:39:00,22.6,21.4,29.48,North,350,0.0,2.0,95,0.00,,OVC100,0.00,VWS V14.01,2013-02-17 08:39:00,
2013-02-17 03:40:00,22.6,21.4,29.48,NNW,339,1.0,1.0,95,0.00,,,0.00,VWS V14.01,2013-02-17 08:40:00,
2013-02-17 03:41:00,22.5,21.3,29.48,North,355,0.0,3.0,95,0.00,,OVC100,0.00,VWS V14.01,2013-02-17 08:41:00,
2013-02-17 03:42:00,22.5,21.3,29.48,NNW,335,3.0,3.0,95,0.00,,OVC100,0.00,VWS V14.01,2013-02-17 08:42:00,
2013-02-17 03:43:00,22.5,21.3,29.48,NNW,328,1.0,5.0,95,0.00,,OVC100,0.00,VWS V14.01,2013-02-17 08:43:00,
2013-02-17 03:44:00,22.5,21.3,29.48,North,5,1.0,1.0,95,0.00,,OVC100,0.00,VWS V14.01,2013-02-17 08:44:00,
2013-02-17 03:45:00,22.5,21.3,29.48,NNW,328,4.0,5.0,95,0.00,,,0.00,VWS V14.01,2013-02-17 08:45:00,
2013-02-17 03:46:00,22.4,21.2,29.48,ENE,65,0.0,1.0,95,0.00,,OVC100,0.00,VWS V14.01,2013-02-17 08:46:00,
2013-02-17 03:47:00,22.4,21.2,29.48,ESE,110,0.0,1.0,95,0.00,,OVC100,0.00,VWS V14.01,2013-02-17 08:47:00,
2013-02-17 03:48:00,22.4,21.2,29.48,SE,139,0.0,1.0,95,0.00,,OVC100,0.00,VWS V14.01,2013-02-17 08:48:00,
2013-02-17 03:49:00,22.4,21.2,29.48,SE,139,0.0,0.0,95,0.00,,OVC100,0.00,VWS V14.01,2013-02-17 08:49:00,
2013-02-17 03:50:00,22.4,21.2,29.48,ESE,110,0.0,0.0,95,0.00,,,0.00,VWS V14.01,2013-02-17 08:50:00,
2013-02-17 03:51:00,22.4,21.2,29.48,NNW,348,1.0,2.0,95,0.00,,OVC100,0.00,VWS V14.01,2013-02-17 08:51:00,
2013-02-17 03:52:00,22.4,21.2,29.48,North,360,0.0,4.0,95,0.00,,OVC100,0.00,VWS V14.01,2013-02-17 08:52:00,
2013-02-17 03:53:00,22.3,21.1,29.48,SSW,213,0.0,3.0,95,0.00,,OVC100,0.00,VWS V14.01,2013-02-17 08:53:00,
2013-02-17 03:54:00,22.3,21.1,29.48,NW,310,0.0,1.0,95,0.00,,OVC100,0.00,VWS V14.01,2013-02-17 08:54:00,
2013-02-17 03:55:00,22.4,21.2,29.48,NNW,329,2.0,2.0,95,0.00,,,0.00,VWS V14.01,2013-02-17 08:55:00,
2013-02-17 03:56:00,22.3,21.1,29.48,NE,38,0.0,2.0,95,0.00,,OVC100,0.00,VWS V14.01,2013-02-17 08:56:00,
2013-02-17 03:57:00,22.3,21.1,29.48,North,5,0.0,2.0,95,0.00,,OVC100,0.00,VWS V14.01,2013-02-17 08:57:00,
2013-02-17 03:58:00,22.2,21.0,29.48,NNW,341,0.0,3.0,95,0.00,,OVC100,0.00,VWS V14.01,2013-02-17 08:58:00,
2013-02-17 03:59:00,22.2,21.0,29.48,NNW,342,1.0,2.0,95,0.00,,OVC100,0.00,VWS V14.01,2013-02-17 08:59:00,
2013-02-17 04:00:00,22.3,21.1,29.48,NNW,346,0.0,3.0,95,0.00,,,0.00,VWS V14.01,2013-02-17 09:00:00,
2013-02-17 04:01:00,22.2,21.0,29.47,East,86,1.0,6.0,95,0.00,,OVC100,0.00,VWS V14.01,2013-02-17 09:01:00,
2013-02-17 04:02:00,22.2,21.0,29.47,NNE,15,0.0,2.0,95,0.00,,OVC100,0.00,VWS V14.01,2013-02-17 09:02:00,
2013-02-17 04:03:00,22.2,21.0,29.47,ENE,65,1.0,2.0,95,0.00,,OVC100,0.00,VWS V14.01,2013-02-17 09:03:00,
2013-02-17 04:04:00,22.2,21.0,29.47,North,11,0.0,1.0,95,0.00,,OVC100,0.00,VWS V14.01,2013-02-17 09:04:00,
2013-02-17 04:05:00,22.2,21.0,29.47,North,5,0.0,2.0,95,0.00,,,0.00,VWS V14.01,2013-02-17 09:05:00,
2013-02-17 04:06:00,22.1,20.9,29.47,North,360,0.0,0.0,95,0.00,,OVC100,0.00,VWS V14.01,2013-02-17 09:06:00,
2013-02-17 04:07:00,22.1,20.9,29.47,North,355,0.0,1.0,95,0.00,,OVC100,0.00,VWS V14.01,2013-02-17 09:07:00,
2013-02-17 04:08:00,22.1,20.9,29.46,NNW,329,4.0,4.0,95,0.00,,OVC100,0.00,VWS V14.01,2013-02-17 09:08:00,
2013-02-17 04:09:00,22.1,20.9,29.46,North,5,1.0,4.0,95,0.00,,OVC100,0.00,VWS V14.01,2013-02-17 09:09:00,
2013-02-17 04:10:00,22.1,20.9,29.46,NNW,335,2.0,2.0,95,0.00,,,0.00,VWS V14.01,2013-02-17 09:10:00,
2013-02-17 04:11:00,22.1,20.9,29.47,North,351,0.0,4.0,95,0.00,,OVC100,0.00,VWS V14.01,2013-02-17 09:11:00,
2013-02-17 04:12:00,22.0,20.8,29.47,NW,317,6.0,6.0,95,0.00,,OVC100,0.00,VWS V14.01,2013-02-17 09:12:00,
2013-02-17 04:13:00,22.0,20.8,29.47,NW,318,3.0,6.0,95,0.00,,OVC100,0.00,VWS V14.01,2013-02-17 09:13:00,
2013-02-17 04:14:00,22.0,20.8,29.47,SE,146,0.0,3.0,95,0.00,,OVC100,0.00,VWS V14.01,2013-02-17 09:14:00,
2013-02-17 04:15:00,22.0,20.8,29.47,North,355,1.0,6.0,95,0.00,,,0.00,VWS V14.01,2013-02-17 09:15:00,
2013-02-17 04:16:00,21.9,20.7,29.46,NW,317,7.0,7.0,95,0.00,,OVC100,0.00,VWS V14.01,2013-02-17 09:16:00,
2013-02-17 04:17:00,21.9,20.7,29.46,North,10,2.0,7.0,95,0.00,,OVC100,0.00,VWS V14.01,2013-02-17 09:17:00,
2013-02-17 04:18:00,21.9,20.7,29.46,North,360,0.0,2.0,95,0.00,,OVC100,0.00,VWS V14.01,2013-02-17 09:18:00,
2013-02-17 04:19:00,21.8,20.6,29.46,NNW,336,2.0,2.0,95,0.00,,OVC100,0.00,VWS V14.01,2013-02-17 09:19:00,
2013-02-17 04:20:00,21.9,20.7,29.46,NNW,348,0.0,2.0,95,0.00,,,0.00,VWS V14.01,2013-02-17 09:20:00,
2013-02-17 04:21:00,21.8,20.6,29.46,NW,317,2.0,7.0,95,0.00,,OVC100,0.00,VWS V14.01,2013-02-17 09:21:00,
2013-02-17 04:22:00,21.8,20.6,29.46,ESE,123,2.0,3.0,95,0.00,,OVC100,0.00,VWS V14.01,2013-02-17 09:22:00,
2013-02-17 04:23:00,21.8,20.6,29.46,North,5,0.0,4.0,95,0.00,,OVC100,0.00,VWS V14.01,2013-02-17 09:23:00,
2013-02-17 04:24:00,21.7,20.5,29.46,NNW,346,0.0,7.0,95,0.00,,OVC100,0.00,VWS V14.01,2013-02-17 09:24:00,
2013-02-17 04:25:00,21.8,20.6,29.46,North,360,1.0,2.0,95,0.00,,,0.00,VWS V14.01,2013-02-17 09:25:00,
2013-02-17 04:26:00,21.7,20.5,29.46,NE,37,0.0,2.0,95,0.00,,OVC100,0.00,VWS V14.01,2013-02-17 09:26:00,
2013-02-17 04:27:00,21.7,20.5,29.46,North,9,0.0,3.0,95,0.00,,OVC100,0.00,VWS V14.01,2013-02-17 09:27:00,
2013-02-17 04:28:00,21.7,20.5,29.46,NNW,336,2.0,3.0,95,0.00,,OVC100,0.00,VWS V14.01,2013-02-17 09:28:00,
2013-02-17 04:29:00,21.6,20.4,29.46,NNE,14,0.0,3.0,95,0.00,,OVC100,0.00,VWS V14.01,2013-02-17 09:29:00,
2013-02-17 04:30:00,21.7,20.5,29.46,NNW,345,2.0,3.0,95,0.00,,,0.00,VWS V14.01,2013-02-17 09:30:00,
2013-02-17 04:31:00,21.6,20.4,29.45,NNW,348,0.0,3.0,95,0.00,,OVC100,0.00,VWS V14.01,2013-02-17 09:31:00,
2013-02-17 04:33:00,21.6,20.4,29.45,NE,42,0.0,2.0,95,0.00,,OVC100,0.00,VWS V14.01,2013-02-17 09:33:00,
2013-02-17 04:34:00,21.6,20.4,29.45,South,180,0.0,2.0,95,0.00,,OVC100,0.00,VWS V14.01,2013-02-17 09:34:00,
2013-02-17 04:35:00,21.6,20.4,29.45,NNW,347,0.0,2.0,95,0.00,,,0.00,VWS V14.01,2013-02-17 09:35:00,
2013-02-17 04:36:00,21.5,20.3,29.45,WNW,298,0.0,4.0,95,0.00,,OVC100,0.00,VWS V14.01,2013-02-17 09:36:00,
2013-02-17 04:37:00,21.5,20.3,29.46,NNE,31,0.0,1.0,95,0.00,,OVC100,0.00,VWS V14.01,2013-02-17 09:37:00,
2013-02-17 04:38:00,21.5,20.3,29.45,North,355,0.0,2.0,95,0.00,,OVC100,0.00,VWS V14.01,2013-02-17 09:38:00,
2013-02-17 04:39:00,21.5,20.3,29.45,NNW,333,2.0,3.0,95,0.00,,OVC100,0.00,VWS V14.01,2013-02-17 09:39:00,
2013-02-17 04:40:00,21.5,20.3,29.45,SW,232,2.0,2.0,95,0.00,,,0.00,VWS V14.01,2013-02-17 09:40:00,
2013-02-17 04:41:00,21.5,20.3,29.46,NNW,338,0.0,2.0,95,0.00,,OVC100,0.00,VWS V14.01,2013-02-17 09:41:00,
2013-02-17 04:42:00,21.5,20.3,29.46,NNE,31,0.0,1.0,95,0.00,,OVC100,0.00,VWS V14.01,2013-02-17 09:42:00,
2013-02-17 04:43:00,21.5,20.3,29.46,North,355,1.0,1.0,95,0.00,,OVC100,0.00,VWS V14.01,2013-02-17 09:43:00,
2013-02-17 04:44:00,21.5,20.3,29.47,NNW,337,4.0,4.0,95,0.00,,OVC100,0.00,VWS V14.01,2013-02-17 09:44:00,
2013-02-17 04:45:00,21.5,20.3,29.46,North,355,0.0,0.0,95,0.00,,,0.00,VWS V14.01,2013-02-17 09:45:00,
2013-02-17 04:46:00,21.5,20.3,29.46,South,175,0.0,3.0,95,0.00,,OVC100,0.00,VWS V14.01,2013-02-17 09:46:00,
2013-02-17 04:47:00,21.5,20.3,29.47,South,175,0.0,0.0,95,0.00,,OVC100,0.00,VWS V14.01,2013-02-17 09:47:00,
2013-02-17 04:48:00,21.5,20.3,29.47,NNW,340,0.0,3.0,95,0.00,,OVC100,0.00,VWS V14.01,2013-02-17 09:48:00,
2013-02-17 04:49:00,21.4,20.2,29.46,South,188,0.0,2.0,95,0.00,,OVC100,0.00,VWS V14.01,2013-02-17 09:49:00,
2013-02-17 04:50:00,21.4,20.2,29.47,South,188,0.0,1.0,95,0.00,,,0.00,VWS V14.01,2013-02-17 09:50:00,
2013-02-17 04:51:00,21.4,20.2,29.47,NNE,29,0.0,1.0,95,0.00,,OVC100,0.00,VWS V14.01,2013-02-17 09:51:00,
2013-02-17 04:52:00,21.4,20.2,29.46,NNW,348,0.0,3.0,95,0.00,,OVC100,0.00,VWS V14.01,2013-02-17 09:52:00,
2013-02-17 04:53:00,21.4,20.2,29.46,North,360,0.0,0.0,95,0.00,,OVC100,0.00,VWS V14.01,2013-02-17 09:53:00,
2013-02-17 04:54:00,21.5,20.3,29.46,NNW,327,3.0,4.0,95,0.00,,OVC100,0.00,VWS V14.01,2013-02-17 09:54:00,
2013-02-17 04:55:00,21.4,20.2,29.46,NNW,348,0.0,0.0,95,0.00,,,0.00,VWS V14.01,2013-02-17 09:55:00,
2013-02-17 04:56:00,21.4,20.2,29.46,NNW,342,0.0,3.0,95,0.00,,OVC100,0.00,VWS V14.01,2013-02-17 09:56:00,
2013-02-17 04:57:00,21.4,20.2,29.46,NNW,343,0.0,2.0,95,0.00,,OVC100,0.00,VWS V14.01,2013-02-17 09:57:00,
2013-02-17 04:58:00,21.4,20.2,29.46,North,5,0.0,3.0,95,0.00,,OVC100,0.00,VWS V14.01,2013-02-17 09:58:00,
2013-02-17 04:59:00,21.4,20.2,29.46,NW,326,1.0,6.0,95,0.00,,OVC100,0.00,VWS V14.01,2013-02-17 09:59:00,
2013-02-17 05:00:00,21.4,20.2,29.46,NNE,16,0.0,0.0,95,0.00,,,0.00,VWS V14.01,2013-02-17 10:00:00,
2013-02-17 05:01:00,21.4,20.2,29.46,NNW,347,0.0,2.0,95,0.00,,OVC100,0.00,VWS V14.01,2013-02-17 10:01:00,
2013-02-17 05:02:00,21.4,20.2,29.45,North,351,0.0,1.0,95,0.00,,OVC100,0.00,VWS V14.01,2013-02-17 10:02:00,
2013-02-17 05:03:00,21.4,20.2,29.45,NNW,338,2.0,2.0,95,0.00,,OVC100,0.00,VWS V14.01,2013-02-17 10:03:00,
2013-02-17 05:04:00,21.4,20.2,29.45,North,355,0.0,2.0,95,0.00,,OVC100,0.00,VWS V14.01,2013-02-17 10:04:00,
2013-02-17 05:05:00,21.4,20.2,29.45,North,360,1.0,1.0,95,0.00,,,0.00,VWS V14.01,2013-02-17 10:05:00,
2013-02-17 05:06:00,21.4,20.2,29.45,NNE,17,0.0,0.0,95,0.00,,OVC100,0.00,VWS V14.01,2013-02-17 10:06:00,
2013-02-17 05:07:00,21.4,20.2,29.45,North,355,0.0,2.0,95,0.00,,OVC100,0.00,VWS V14.01,2013-02-17 10:07:00,
2013-02-17 05:08:00,21.4,20.2,29.45,NNW,333,1.0,1.0,95,0.00,,OVC100,0.00,VWS V14.01,2013-02-17 10:08:00,
2013-02-17 05:09:00,21.3,20.1,29.45,NNW,334,0.0,1.0,95,0.00,,OVC100,0.00,VWS V14.01,2013-02-17 10:09:00,
2013-02-17 05:10:00,21.4,20.2,29.45,NNE,16,0.0,0.0,95,0.00,,,0.00,VWS V14.01,2013-02-17 10:10:00,
2013-02-17 05:11:00,21.3,20.1,29.45,NE,54,0.0,0.0,95,0.00,,OVC100,0.00,VWS V14.01,2013-02-17 10:11:00,
2013-02-17 05:12:00,21.3,20.1,29.45,North,355,0.0,3.0,95,0.00,,OVC100,0.00,VWS V14.01,2013-02-17 10:12:00,
2013-02-17 05:13:00,21.3,20.1,29.44,NNW,346,0.0,3.0,95,0.00,,OVC100,0.00,VWS V14.01,2013-02-17 10:13:00,
2013-02-17 05:14:00,21.3,20.1,29.44,NNW,342,1.0,2.0,95,0.00,,OVC100,0.00,VWS V14.01,2013-02-17 10:14:00,
2013-02-17 05:15:00,21.3,20.1,29.44,East,81,2.0,3.0,95,0.00,,,0.00,VWS V14.01,2013-02-17 10:15:00,
2013-02-17 05:16:00,21.3,20.1,29.44,NNW,327,1.0,4.0,95,0.00,,OVC100,0.00,VWS V14.01,2013-02-17 10:16:00,
2013-02-17 05:17:00,21.3,20.1,29.44,NNW,344,4.0,4.0,95,0.00,,OVC100,0.00,VWS V14.01,2013-02-17 10:17:00,
2013-02-17 05:18:00,21.3,20.1,29.44,NNW,348,0.0,4.0,95,0.00,,OVC100,0.00,VWS V14.01,2013-02-17 10:18:00,
2013-02-17 05:19:00,21.3,20.1,29.44,NNW,348,0.0,2.0,95,0.00,,OVC100,0.00,VWS V14.01,2013-02-17 10:19:00,
2013-02-17 05:20:00,21.3,20.1,29.44,NE,37,0.0,4.0,95,0.00,,,0.00,VWS V14.01,2013-02-17 10:20:00,
2013-02-17 05:21:00,21.2,20.0,29.44,SSE,160,0.0,1.0,95,0.00,,OVC100,0.00,VWS V14.01,2013-02-17 10:21:00,
2013-02-17 05:22:00,21.2,20.0,29.44,ESE,122,0.0,1.0,95,0.00,,OVC100,0.00,VWS V14.01,2013-02-17 10:22:00,
2013-02-17 05:23:00,21.2,20.0,29.43,NNE,15,0.0,0.0,95,0.00,,OVC100,0.00,VWS V14.01,2013-02-17 10:23:00,
2013-02-17 05:24:00,21.2,20.0,29.43,SSE,155,1.0,2.0,95,0.00,,OVC100,0.00,VWS V14.01,2013-02-17 10:24:00,
2013-02-17 05:25:00,21.2,20.0,29.43,ESE,122,0.0,0.0,95,0.00,,,0.00,VWS V14.01,2013-02-17 10:25:00,
2013-02-17 05:26:00,21.2,20.0,29.43,North,355,1.0,4.0,95,0.00,,OVC100,0.00,VWS V14.01,2013-02-17 10:26:00,
2013-02-17 05:27:00,21.1,19.9,29.43,NNW,336,0.0,3.0,95,0.00,,OVC100,0.00,VWS V14.01,2013-02-17 10:27:00,
2013-02-17 05:28:00,21.1,19.9,29.43,NNE,30,1.0,4.0,95,0.00,,OVC100,0.00,VWS V14.01,2013-02-17 10:28:00,
2013-02-17 05:29:00,21.1,19.9,29.42,NNE,32,0.0,2.0,95,0.00,,OVC100,0.00,VWS V14.01,2013-02-17 10:29:00,
2013-02-17 05:30:00,21.1,19.9,29.43,North,5,0.0,0.0,95,0.00,,,0.00,VWS V14.01,2013-02-17 10:30:00,
2013-02-17 05:31:00,21.1,19.9,29.43,NNW,343,0.0,3.0,95,0.00,,OVC100,0.00,VWS V14.01,2013-02-17 10:31:00,
2013-02-17 05:32:00,21.1,19.9,29.43,NNW,332,2.0,2.0,95,0.00,,OVC100,0.00,VWS V14.01,2013-02-17 10:32:00,
2013-02-17 05:33:00,21.0,19.8,29.43,NNW,342,0.0,4.0,95,0.00,,OVC100,0.00,VWS V14.01,2013-02-17 10:33:00,
2013-02-17 05:34:00,21.0,19.8,29.43,NNW,348,0.0,1.0,95,0.00,,OVC100,0.00,VWS V14.01,2013-02-17 10:34:00,
2013-02-17 05:35:00,21.1,19.9,29.44,SE,135,2.0,4.0,95,0.00,,,0.00,VWS V14.01,2013-02-17 10:35:00,
2013-02-17 05:36:00,21.0,19.8,29.43,SSE,153,1.0,1.0,95,0.00,,OVC100,0.00,VWS V14.01,2013-02-17 10:36:00,
2013-02-17 05:37:00,21.0,19.8,29.44,SSE,157,1.0,1.0,95,0.00,,OVC100,0.00,VWS V14.01,2013-02-17 10:37:00,
2013-02-17 05:38:00,20.9,19.7,29.44,NNE,31,0.0,1.0,95,0.00,,OVC100,0.00,VWS V14.01,2013-02-17 10:38:00,
2013-02-17 05:39:00,20.9,19.7,29.44,North,360,0.0,2.0,95,0.00,,OVC100,0.00,VWS V14.01,2013-02-17 10:39:00,
2013-02-17 05:40:00,20.9,19.7,29.44,SSE,160,0.0,1.0,95,0.00,,,0.00,VWS V14.01,2013-02-17 10:40:00,
2013-02-17 05:41:00,20.9,19.7,29.44,NNW,342,0.0,2.0,95,0.00,,OVC100,0.00,VWS V14.01,2013-02-17 10:41:00,
2013-02-17 05:42:00,20.9,19.7,29.44,NNW,343,0.0,1.0,95,0.00,,OVC100,0.00,VWS V14.01,2013-02-17 10:42:00,
2013-02-17 05:43:00,20.9,19.7,29.44,North,355,0.0,0.0,95,0.00,,OVC100,0.00,VWS V14.01,2013-02-17 10:43:00,
2013-02-17 05:44:00,20.9,19.7,29.44,North,355,0.0,0.0,95,0.00,,OVC100,0.00,VWS V14.01,2013-02-17 10:44:00,
2013-02-17 05:45:00,20.9,19.7,29.44,North,355,0.0,0.0,95,0.00,,,0.00,VWS V14.01,2013-02-17 10:45:00,
2013-02-17 05:46:00,20.9,19.7,29.44,North,355,0.0,1.0,95,0.00,,OVC100,0.00,VWS V14.01,2013-02-17 10:46:00,
2013-02-17 05:47:00,20.9,19.7,29.44,North,355,0.0,1.0,95,0.00,,OVC100,0.00,VWS V14.01,2013-02-17 10:47:00,
2013-02-17 05:48:00,20.9,19.7,29.43,North,355,0.0,1.0,95,0.00,,OVC100,0.00,VWS V14.01,2013-02-17 10:48:00,
2013-02-17 05:49:00,20.8,19.6,29.43,North,5,0.0,0.0,95,0.00,,OVC100,0.00,VWS V14.01,2013-02-17 10:49:00,
2013-02-17 05:50:00,20.8,19.6,29.44,North,355,0.0,0.0,95,0.00,,,0.00,VWS V14.01,2013-02-17 10:50:00,
2013-02-17 05:51:00,20.8,19.6,29.43,North,5,0.0,0.0,95,0.00,,OVC100,0.00,VWS V14.01,2013-02-17 10:51:00,
2013-02-17 05:52:00,20.8,19.6,29.43,South,175,2.0,2.0,95,0.00,,OVC100,0.00,VWS V14.01,2013-02-17 10:52:00,
2013-02-17 05:53:00,20.8,19.6,29.43,North,10,0.0,2.0,95,0.00,,OVC100,0.00,VWS V14.01,2013-02-17 10:53:00,
2013-02-17 05:54:00,20.8,19.6,29.43,South,173,0.0,1.0,95,0.00,,OVC100,0.00,VWS V14.01,2013-02-17 10:54:00,
2013-02-17 05:55:00,20.8,19.6,29.43,North,355,0.0,2.0,95,0.00,,,0.00,VWS V14.01,2013-02-17 10:55:00,
2013-02-17 05:56:00,20.8,19.6,29.42,ESE,103,0.0,0.0,95,0.00,,OVC100,0.00,VWS V14.01,2013-02-17 10:56:00,
2013-02-17 05:57:00,20.8,19.6,29.42,NNE,21,1.0,1.0,95,0.00,,OVC100,0.00,VWS V14.01,2013-02-17 10:57:00,
2013-02-17 05:58:00,20.8,19.6,29.42,NNE,20,0.0,1.0,95,0.00,,OVC100,0.00,VWS V14.01,2013-02-17 10:58:00,
2013-02-17 05:59:00,20.8,19.6,29.42,South,171,0.0,2.0,95,0.00,,OVC100,0.00,VWS V14.01,2013-02-17 10:59:00,
2013-02-17 06:00:00,20.8,19.6,29.42,NNE,21,0.0,1.0,95,0.00,,,0.00,VWS V14.01,2013-02-17 11:00:00,
2013-02-17 06:01:00,20.7,19.5,29.42,NNW,340,0.0,1.0,95,0.00,,OVC100,0.00,VWS V14.01,2013-02-17 11:01:00,
2013-02-17 06:02:00,20.7,19.5,29.41,North,5,0.0,1.0,95,0.00,,OVC100,0.00,VWS V14.01,2013-02-17 11:02:00,
2013-02-17 06:03:00,20.7,19.5,29.41,SE,139,2.0,6.0,95,0.00,,OVC100,0.00,VWS V14.01,2013-02-17 11:03:00,
2013-02-17 06:04:00,20.7,19.2,29.41,SSW,200,0.0,2.0,94,0.00,,OVC100,0.00,VWS V14.01,2013-02-17 11:04:00,
2013-02-17 06:05:00,20.7,19.5,29.41,North,5,0.0,0.0,95,0.00,,,0.00,VWS V14.01,2013-02-17 11:05:00,
2013-02-17 06:06:00,20.7,19.5,29.41,NNE,15,2.0,4.0,95,0.00,,OVC100,0.00,VWS V14.01,2013-02-17 11:06:00,
2013-02-17 06:07:00,20.6,19.4,29.41,North,360,0.0,2.0,95,0.00,,OVC100,0.00,VWS V14.01,2013-02-17 11:07:00,
2013-02-17 06:08:00,20.6,19.4,29.41,NNE,17,0.0,2.0,95,0.00,,OVC100,0.00,VWS V14.01,2013-02-17 11:08:00,
2013-02-17 06:09:00,20.6,19.4,29.41,North,355,2.0,4.0,95,0.00,,OVC100,0.00,VWS V14.01,2013-02-17 11:09:00,
2013-02-17 06:10:00,20.6,19.4,29.41,North,360,0.0,0.0,95,0.00,,,0.00,VWS V14.01,2013-02-17 11:10:00,
2013-02-17 06:11:00,20.6,19.4,29.41,NNE,25,0.0,5.0,95,0.00,,OVC100,0.00,VWS V14.01,2013-02-17 11:11:00,
2013-02-17 06:12:00,20.5,19.3,29.40,NNW,343,2.0,6.0,95,0.00,,OVC100,0.00,VWS V14.01,2013-02-17 11:12:00,
2013-02-17 06:13:00,20.5,19.0,29.40,NE,39,0.0,6.0,94,0.00,,OVC100,0.00,VWS V14.01,2013-02-17 11:13:00,
2013-02-17 06:14:00,20.4,19.0,29.40,North,5,0.0,2.0,94,0.00,,OVC100,0.00,VWS V14.01,2013-02-17 11:14:00,
2013-02-17 06:15:00,20.5,19.0,29.41,NNW,327,2.0,2.0,94,0.00,,,0.00,VWS V14.01,2013-02-17 11:15:00,
2013-02-17 06:16:00,20.4,19.0,29.40,North,5,2.0,6.0,94,0.00,,OVC100,0.00,VWS V14.01,2013-02-17 11:16:00,
2013-02-17 06:17:00,20.4,19.0,29.40,North,5,1.0,3.0,94,0.00,,OVC100,0.00,VWS V14.01,2013-02-17 11:17:00,
2013-02-17 06:18:00,20.4,19.0,29.40,WNW,294,2.0,3.0,94,0.00,,OVC100,0.00,VWS V14.01,2013-02-17 11:18:00,
2013-02-17 06:19:00,20.3,18.9,29.40,NNW,327,1.0,5.0,94,0.00,,OVC100,0.00,VWS V14.01,2013-02-17 11:19:00,
2013-02-17 06:20:00,20.4,19.0,29.40,NNW,346,1.0,2.0,94,0.00,,,0.00,VWS V14.01,2013-02-17 11:20:00,
2013-02-17 06:21:00,20.3,18.9,29.40,NNW,346,3.0,7.0,94,0.00,,OVC100,0.00,VWS V14.01,2013-02-17 11:21:00,
2013-02-17 06:22:00,20.3,18.9,29.40,ENE,69,0.0,4.0,94,0.00,,OVC100,0.00,VWS V14.01,2013-02-17 11:22:00,
2013-02-17 06:23:00,20.3,18.9,29.40,North,360,0.0,2.0,94,0.00,,OVC100,0.00,VWS V14.01,2013-02-17 11:23:00,
2013-02-17 06:24:00,20.3,18.9,29.40,North,5,0.0,4.0,94,0.00,,OVC100,0.00,VWS V14.01,2013-02-17 11:24:00,
2013-02-17 06:25:00,20.3,18.9,29.40,South,178,1.0,1.0,94,0.00,,,0.00,VWS V14.01,2013-02-17 11:25:00,
2013-02-17 06:26:00,20.2,18.8,29.40,NNW,339,2.0,3.0,94,0.00,,OVC100,0.00,VWS V14.01,2013-02-17 11:26:00,
2013-02-17 06:27:00,20.2,18.8,29.40,NNW,336,1.0,3.0,94,0.00,,OVC100,0.00,VWS V14.01,2013-02-17 11:27:00,
2013-02-17 06:28:00,20.2,18.8,29.39,NW,315,5.0,6.0,94,0.00,,OVC100,0.00,VWS V14.01,2013-02-17 11:28:00,
2013-02-17 06:29:00,20.2,18.8,29.39,North,10,0.0,5.0,94,0.00,,OVC100,0.00,VWS V14.01,2013-02-17 11:29:00,
2013-02-17 06:30:00,20.2,18.8,29.39,NNW,336,1.0,3.0,94,0.00,,,0.00,VWS V14.01,2013-02-17 11:30:00,
2013-02-17 06:31:00,20.2,18.8,29.40,NNW,333,3.0,4.0,94,0.00,,OVC100,0.00,VWS V14.01,2013-02-17 11:31:00,
2013-02-17 06:32:00,20.1,18.6,29.39,North,349,1.0,3.0,94,0.00,,OVC100,0.00,VWS V14.01,2013-02-17 11:32:00,
2013-02-17 06:33:00,20.1,18.6,29.39,NNW,347,1.0,3.0,94,0.00,,OVC100,0.00,VWS V14.01,2013-02-17 11:33:00,
2013-02-17 06:34:00,20.1,18.6,29.39,NNW,347,0.0,2.0,94,0.00,,OVC100,0.00,VWS V14.01,2013-02-17 11:34:00,
2013-02-17 06:35:00,20.1,18.6,29.39,NNW,331,2.0,3.0,94,0.00,,,0.00,VWS V14.01,2013-02-17 11:35:00,
2013-02-17 06:36:00,20.0,18.5,29.39,North,360,1.0,3.0,94,0.00,,OVC100,0.00,VWS V14.01,2013-02-17 11:36:00,
2013-02-17 06:37:00,20.1,18.6,29.39,North,9,0.0,1.0,94,0.00,,OVC100,0.00,VWS V14.01,2013-02-17 11:37:00,
2013-02-17 06:38:00,20.0,18.5,29.39,NNW,348,0.0,1.0,94,0.00,,OVC100,0.00,VWS V14.01,2013-02-17 11:38:00,
2013-02-17 06:39:00,20.0,18.5,29.39,NNW,348,0.0,0.0,94,0.00,,OVC100,0.00,VWS V14.01,2013-02-17 11:39:00,
2013-02-17 06:40:00,20.0,18.5,29.39,North,5,1.0,1.0,94,0.00,,,0.00,VWS V14.01,2013-02-17 11:40:00,
2013-02-17 06:41:00,20.0,18.5,29.39,NNE,24,0.0,2.0,94,0.00,,OVC100,0.00,VWS V14.01,2013-02-17 11:41:00,
2013-02-17 06:42:00,20.0,18.5,29.39,NNE,19,0.0,1.0,94,0.00,,OVC100,0.00,VWS V14.01,2013-02-17 11:42:00,
2013-02-17 06:43:00,20.0,18.5,29.39,NNE,19,0.0,0.0,94,0.00,,OVC100,0.00,VWS V14.01,2013-02-17 11:43:00,
2013-02-17 06:44:00,20.0,18.5,29.39,NW,326,0.0,0.0,94,0.00,,OVC100,0.00,VWS V14.01,2013-02-17 11:44:00,
2013-02-17 06:45:00,20.0,18.5,29.39,NNE,19,0.0,0.0,94,0.00,,,0.00,VWS V14.01,2013-02-17 11:45:00,
2013-02-17 06:46:00,20.0,18.5,29.39,North,11,0.0,1.0,94,0.00,,OVC100,0.00,VWS V14.01,2013-02-17 11:46:00,
2013-02-17 06:47:00,20.0,18.5,29.39,South,177,0.0,0.0,94,0.00,,OVC100,0.00,VWS V14.01,2013-02-17 11:47:00,
2013-02-17 06:48:00,20.0,18.5,29.39,NW,321,1.0,2.0,94,0.00,,OVC100,0.00,VWS V14.01,2013-02-17 11:48:00,
2013-02-17 06:49:00,20.0,18.5,29.39,ENE,57,1.0,3.0,94,0.00,,OVC100,0.00,VWS V14.01,2013-02-17 11:49:00,
2013-02-17 06:50:00,20.0,18.5,29.39,North,360,0.0,0.0,94,0.00,,,0.00,VWS V14.01,2013-02-17 11:50:00,
2013-02-17 06:51:00,20.0,18.5,29.39,SSE,158,0.0,1.0,94,0.00,,OVC100,0.00,VWS V14.01,2013-02-17 11:51:00,
2013-02-17 06:52:00,20.0,18.5,29.39,SW,230,0.0,1.0,94,0.00,,OVC100,0.00,VWS V14.01,2013-02-17 11:52:00,
2013-02-17 06:53:00,20.0,18.5,29.39,North,350,2.0,2.0,94,0.00,,OVC100,0.00,VWS V14.01,2013-02-17 11:53:00,
2013-02-17 06:54:00,20.0,18.5,29.39,North,355,0.0,4.0,94,0.00,,OVC100,0.00,VWS V14.01,2013-02-17 11:54:00,
2013-02-17 06:55:00,20.0,18.5,29.39,WNW,301,2.0,2.0,94,0.00,,,0.00,VWS V14.01,2013-02-17 11:55:00,
2013-02-17 06:56:00,19.9,18.5,29.40,South,177,1.0,3.0,94,0.00,,OVC100,0.00,VWS V14.01,2013-02-17 11:56:00,
2013-02-17 06:57:00,19.9,18.5,29.39,ENE,69,0.0,1.0,94,0.00,,OVC100,0.00,VWS V14.01,2013-02-17 11:57:00,
2013-02-17 06:58:00,19.9,18.5,29.40,NNE,13,0.0,1.0,94,0.00,,OVC100,0.00,VWS V14.01,2013-02-17 11:58:00,
2013-02-17 06:59:00,19.9,18.5,29.39,SE,128,0.0,1.0,94,0.00,,OVC100,0.00,VWS V14.01,2013-02-17 11:59:00,
2013-02-17 07:00:00,19.9,18.5,29.40,ENE,67,0.0,0.0,94,0.00,,,0.00,VWS V14.01,2013-02-17 12:00:00,
2013-02-17 07:01:00,19.9,18.5,29.39,NNW,341,1.0,3.0,94,0.00,,OVC100,0.00,VWS V14.01,2013-02-17 12:01:00,
2013-02-17 07:02:00,19.9,18.5,29.39,NNW,333,1.0,5.0,94,0.00,,OVC100,0.00,VWS V14.01,2013-02-17 12:02:00,
2013-02-17 07:03:00,19.9,18.5,29.38,North,350,1.0,3.0,94,0.00,,OVC100,0.00,VWS V14.01,2013-02-17 12:03:00,
2013-02-17 07:04:00,19.9,18.5,29.38,North,5,1.0,2.0,94,0.00,,OVC100,0.00,VWS V14.01,2013-02-17 12:04:00,
2013-02-17 07:05:00,19.9,18.5,29.38,North,10,2.0,2.0,94,0.00,,,0.00,VWS V14.01,2013-02-17 12:05:00,
2013-02-17 07:06:00,19.9,18.5,29.38,NNW,339,0.0,4.0,94,0.00,,OVC100,0.00,VWS V14.01,2013-02-17 12:06:00,
2013-02-17 07:07:00,19.9,18.5,29.38,North,360,2.0,2.0,94,0.00,,OVC100,0.00,VWS V14.01,2013-02-17 12:07:00,
2013-02-17 07:08:00,19.9,18.5,29.37,East,86,1.0,2.0,94,0.00,,OVC100,0.00,VWS V14.01,2013-02-17 12:08:00,
2013-02-17 07:09:00,19.9,18.5,29.38,NNE,28,0.0,1.0,94,0.00,,OVC100,0.00,VWS V14.01,2013-02-17 12:09:00,
2013-02-17 07:10:00,19.9,18.5,29.38,North,351,1.0,2.0,94,0.00,,,0.00,VWS V14.01,2013-02-17 12:10:00,
2013-02-17 07:11:00,19.8,18.4,29.38,NW,325,0.0,2.0,94,0.00,,OVC100,0.00,VWS V14.01,2013-02-17 12:11:00,
2013-02-17 07:12:00,19.9,18.5,29.38,NW,325,0.0,1.0,94,0.00,,OVC100,0.00,VWS V14.01,2013-02-17 12:12:00,
2013-02-17 07:13:00,19.8,18.4,29.38,NNE,13,1.0,1.0,94,0.00,,OVC100,0.00,VWS V14.01,2013-02-17 12:13:00,
2013-02-17 07:14:00,19.9,18.5,29.37,West,273,0.0,4.0,94,0.00,,OVC100,0.00,VWS V14.01,2013-02-17 12:14:00,
2013-02-17 07:15:00,19.9,18.5,29.38,NW,325,0.0,0.0,94,0.00,,,0.00,VWS V14.01,2013-02-17 12:15:00,
2013-02-17 07:16:00,19.8,18.4,29.37,NNW,347,0.0,2.0,94,0.00,,OVC100,0.00,VWS V14.01,2013-02-17 12:16:00,
2013-02-17 07:17:00,19.8,18.4,29.37,North,355,0.0,1.0,94,0.00,,OVC100,0.00,VWS V14.01,2013-02-17 12:17:00,
2013-02-17 07:18:00,19.8,18.4,29.37,NNE,13,0.0,1.0,94,0.00,,OVC100,0.00,VWS V14.01,2013-02-17 12:18:00,
2013-02-17 07:19:00,19.8,18.4,29.37,South,171,1.0,3.0,94,0.00,,OVC100,0.00,VWS V14.01,2013-02-17 12:19:00,
2013-02-17 07:20:00,19.8,18.4,29.38,ESE,123,0.0,0.0,94,0.00,,,0.00,VWS V14.01,2013-02-17 12:20:00,
2013-02-17 07:21:00,19.8,18.4,29.37,South,171,0.0,0.0,94,0.00,,OVC100,0.00,VWS V14.01,2013-02-17 12:21:00,
2013-02-17 07:22:00,19.8,18.4,29.37,ESE,102,1.0,3.0,94,0.00,,OVC100,0.00,VWS V14.01,2013-02-17 12:22:00,
2013-02-17 07:23:00,19.8,18.4,29.37,NNW,343,0.0,1.0,94,0.00,,OVC100,0.00,VWS V14.01,2013-02-17 12:23:00,
2013-02-17 07:24:00,19.8,18.4,29.37,NE,46,0.0,1.0,94,0.00,,OVC100,0.00,VWS V14.01,2013-02-17 12:24:00,
2013-02-17 07:25:00,19.8,18.4,29.37,NNW,343,0.0,1.0,94,0.00,,,0.00,VWS V14.01,2013-02-17 12:25:00,
2013-02-17 07:26:00,19.8,18.4,29.37,North,5,0.0,2.0,94,0.00,,OVC100,0.00,VWS V14.01,2013-02-17 12:26:00,
2013-02-17 07:27:00,19.8,18.4,29.37,NE,49,1.0,2.0,94,0.00,,OVC100,0.00,VWS V14.01,2013-02-17 12:27:00,
2013-02-17 07:28:00,19.8,18.4,29.37,North,5,1.0,2.0,94,0.00,,OVC100,0.00,VWS V14.01,2013-02-17 12:28:00,
2013-02-17 07:29:00,19.8,18.4,29.37,North,11,0.0,1.0,94,0.00,,OVC100,0.00,VWS V14.01,2013-02-17 12:29:00,
2013-02-17 07:30:00,19.8,18.4,29.37,NNE,23,0.0,1.0,94,0.00,,,0.00,VWS V14.01,2013-02-17 12:30:00,
2013-02-17 07:31:00,19.8,18.4,29.37,WNW,292,0.0,1.0,94,0.00,,OVC100,0.00,VWS V14.01,2013-02-17 12:31:00,
2013-02-17 07:32:00,19.8,18.4,29.37,NNW,331,0.0,3.0,94,0.00,,OVC100,0.00,VWS V14.01,2013-02-17 12:32:00,
2013-02-17 07:33:00,19.8,18.4,29.37,East,94,0.0,1.0,94,0.00,,OVC100,0.00,VWS V14.01,2013-02-17 12:33:00,
2013-02-17 07:34:00,19.8,18.4,29.37,South,169,1.0,3.0,94,0.00,,OVC100,0.00,VWS V14.01,2013-02-17 12:34:00,
2013-02-17 07:35:00,19.8,18.4,29.37,SSE,155,1.0,1.0,94,0.00,,,0.00,VWS V14.01,2013-02-17 12:35:00,
2013-02-17 07:36:00,19.8,18.4,29.37,WSW,254,0.0,0.0,94,0.00,,OVC100,0.00,VWS V14.01,2013-02-17 12:36:00,
2013-02-17 07:37:00,19.8,18.4,29.37,NNW,329,1.0,1.0,94,0.00,,OVC100,0.00,VWS V14.01,2013-02-17 12:37:00,
2013-02-17 07:38:00,19.7,18.3,29.37,NNW,329,0.0,1.0,94,0.00,,OVC100,0.00,VWS V14.01,2013-02-17 12:38:00,
2013-02-17 07:39:00,19.7,18.3,29.37,South,170,2.0,2.0,94,0.00,,OVC100,0.00,VWS V14.01,2013-02-17 12:39:00,
2013-02-17 07:40:00,19.8,18.4,29.37,NNW,329,0.0,1.0,94,0.00,,,0.00,VWS V14.01,2013-02-17 12:40:00,
2013-02-17 07:41:00,19.7,18.3,29.37,North,5,0.0,0.0,94,0.00,,OVC100,0.00,VWS V14.01,2013-02-17 12:41:00,
2013-02-17 07:42:00,19.7,18.3,29.37,SSE,165,2.0,3.0,94,0.00,,OVC100,0.00,VWS V14.01,2013-02-17 12:42:00,
2013-02-17 07:43:00,19.7,18.3,29.37,South,175,0.0,3.0,94,0.00,,OVC100,0.00,VWS V14.01,2013-02-17 12:43:00,
2013-02-17 07:44:00,19.8,18.4,29.37,South,175,0.0,0.0,94,0.00,,OVC100,0.00,VWS V14.01,2013-02-17 12:44:00,
2013-02-17 07:45:00,19.8,18.4,29.37,South,174,2.0,3.0,94,0.00,,,0.00,VWS V14.01,2013-02-17 12:45:00,
2013-02-17 07:46:00,19.7,18.3,29.36,South,177,1.0,3.0,94,0.00,,OVC100,0.00,VWS V14.01,2013-02-17 12:46:00,
2013-02-17 07:47:00,19.7,18.3,29.37,NNW,329,0.0,3.0,94,0.00,,OVC100,0.00,VWS V14.01,2013-02-17 12:47:00,
2013-02-17 07:48:00,19.7,18.3,29.36,North,355,0.0,1.0,94,0.00,,OVC100,0.00,VWS V14.01,2013-02-17 12:48:00,
2013-02-17 07:49:00,19.7,18.3,29.36,South,175,0.0,2.0,94,0.00,,OVC100,0.00,VWS V14.01,2013-02-17 12:49:00,
2013-02-17 07:50:00,19.8,18.4,29.36,North,355,1.0,1.0,94,0.00,,,0.00,VWS V14.01,2013-02-17 12:50:00,
2013-02-17 07:51:00,19.8,18.4,29.36,NNW,338,0.0,2.0,94,0.00,,OVC100,0.00,VWS V14.01,2013-02-17 12:51:00,
2013-02-17 07:52:00,19.7,18.3,29.36,SW,215,1.0,2.0,94,0.00,,OVC100,0.00,VWS V14.01,2013-02-17 12:52:00,
2013-02-17 07:53:00,19.7,18.3,29.36,SSE,156,2.0,3.0,94,0.00,,OVC100,0.00,VWS V14.01,2013-02-17 12:53:00,
2013-02-17 07:54:00,19.7,18.3,29.36,SE,136,2.0,2.0,94,0.00,,OVC100,0.00,VWS V14.01,2013-02-17 12:54:00,
2013-02-17 07:55:00,19.7,18.3,29.36,SSW,201,1.0,1.0,94,0.00,,,0.00,VWS V14.01,2013-02-17 12:55:00,
2013-02-17 07:56:00,19.7,18.3,29.36,SSE,150,1.0,3.0,94,0.00,,OVC100,0.00,VWS V14.01,2013-02-17 12:56:00,
2013-02-17 07:57:00,19.7,18.3,29.36,NNE,28,0.0,1.0,94,0.00,,OVC100,0.00,VWS V14.01,2013-02-17 12:57:00,
2013-02-17 07:58:00,19.7,18.3,29.36,NNE,28,0.0,0.0,94,0.00,,OVC100,0.00,VWS V14.01,2013-02-17 12:58:00,
2013-02-17 07:59:00,19.7,18.3,29.36,North,355,0.0,0.0,94,0.00,,OVC100,0.00,VWS V14.01,2013-02-17 12:59:00,
2013-02-17 08:00:00,19.7,18.3,29.36,NNE,28,0.0,0.0,94,0.00,,,0.00,VWS V14.01,2013-02-17 13:00:00,
2013-02-17 08:01:00,19.7,18.3,29.35,North,355,1.0,1.0,94,0.00,,OVC100,0.00,VWS V14.01,2013-02-17 13:01:00,
2013-02-17 08:02:00,19.7,18.3,29.35,North,355,0.0,1.0,94,0.00,,OVC100,0.00,VWS V14.01,2013-02-17 13:02:00,
2013-02-17 08:03:00,19.7,18.3,29.35,North,360,0.0,2.0,94,0.00,,OVC100,0.00,VWS V14.01,2013-02-17 13:03:00,
2013-02-17 08:04:00,19.7,18.3,29.35,NNE,12,0.0,2.0,94,0.00,,OVC100,0.00,VWS V14.01,2013-02-17 13:04:00,
2013-02-17 08:05:00,19.7,18.3,29.35,North,5,0.0,0.0,94,0.00,,,0.00,VWS V14.01,2013-02-17 13:05:00,
2013-02-17 08:06:00,19.7,18.3,29.35,South,184,0.0,1.0,94,0.00,,OVC100,0.00,VWS V14.01,2013-02-17 13:06:00,
2013-02-17 08:07:00,19.7,18.3,29.35,North,349,0.0,0.0,94,0.00,,OVC100,0.00,VWS V14.01,2013-02-17 13:07:00,
2013-02-17 08:08:00,19.7,18.3,29.35,NW,324,0.0,2.0,94,0.00,,OVC100,0.00,VWS V14.01,2013-02-17 13:08:00,
2013-02-17 08:09:00,19.7,18.3,29.35,West,277,0.0,2.0,94,0.00,,OVC100,0.00,VWS V14.01,2013-02-17 13:09:00,
2013-02-17 08:10:00,19.7,18.3,29.35,NE,53,0.0,1.0,94,0.00,,,0.00,VWS V14.01,2013-02-17 13:10:00,
2013-02-17 08:11:00,19.7,18.3,29.34,NNW,344,1.0,2.0,94,0.00,,OVC100,0.00,VWS V14.01,2013-02-17 13:11:00,
2013-02-17 08:12:00,19.7,18.3,29.35,South,169,3.0,3.0,94,0.00,,OVC100,0.00,VWS V14.01,2013-02-17 13:12:00,
2013-02-17 08:13:00,19.7,18.3,29.34,NE,53,0.0,3.0,94,0.00,,OVC100,0.00,VWS V14.01,2013-02-17 13:13:00,
2013-02-17 08:14:00,19.7,18.3,29.35,West,270,2.0,4.0,94,0.00,,OVC100,0.00,VWS V14.01,2013-02-17 13:14:00,
2013-02-17 08:15:00,19.7,18.3,29.34,North,5,0.0,3.0,94,0.00,,,0.00,VWS V14.01,2013-02-17 13:15:00,
2013-02-17 08:16:00,19.7,18.3,29.35,North,5,0.0,2.0,94,0.00,,OVC100,0.00,VWS V14.01,2013-02-17 13:16:00,
2013-02-17 08:17:00,19.7,18.3,29.34,NNW,344,0.0,1.0,94,0.00,,OVC100,0.00,VWS V14.01,2013-02-17 13:17:00,
2013-02-17 08:18:00,19.7,18.3,29.34,North,351,0.0,3.0,94,0.00,,OVC100,0.00,VWS V14.01,2013-02-17 13:18:00,
2013-02-17 08:19:00,19.7,18.3,29.34,NNW,344,1.0,1.0,94,0.00,,OVC100,0.00,VWS V14.01,2013-02-17 13:19:00,
2013-02-17 08:20:00,19.7,18.3,29.34,SSE,159,2.0,3.0,94,0.00,,,0.00,VWS V14.01,2013-02-17 13:20:00,
2013-02-17 08:21:00,19.7,18.3,29.34,NNE,30,0.0,2.0,94,0.00,,OVC100,0.00,VWS V14.01,2013-02-17 13:21:00,
2013-02-17 08:22:00,19.7,18.3,29.34,North,5,0.0,2.0,94,0.00,,OVC100,0.00,VWS V14.01,2013-02-17 13:22:00,
2013-02-17 08:23:00,19.7,18.3,29.34,West,275,1.0,2.0,94,0.00,,OVC100,0.00,VWS V14.01,2013-02-17 13:23:00,
2013-02-17 08:24:00,19.7,18.3,29.34,NNW,345,4.0,4.0,94,0.00,,OVC100,0.00,VWS V14.01,2013-02-17 13:24:00,
2013-02-17 08:25:00,19.7,18.3,29.34,North,355,0.0,1.0,94,0.00,,,0.00,VWS V14.01,2013-02-17 13:25:00,
2013-02-17 08:26:00,19.7,18.3,29.34,North,355,0.0,1.0,94,0.00,,OVC100,0.00,VWS V14.01,2013-02-17 13:26:00,
2013-02-17 08:27:00,19.7,18.3,29.34,NNW,334,1.0,1.0,94,0.00,,OVC100,0.00,VWS V14.01,2013-02-17 13:27:00,
2013-02-17 08:28:00,19.7,18.3,29.34,NNW,347,0.0,1.0,94,0.00,,OVC100,0.00,VWS V14.01,2013-02-17 13:28:00,
2013-02-17 08:29:00,19.7,18.3,29.34,North,355,0.0,1.0,94,0.00,,OVC100,0.00,VWS V14.01,2013-02-17 13:29:00,
2013-02-17 08:30:00,19.7,18.3,29.34,NNW,340,1.0,1.0,94,0.00,,,0.00,VWS V14.01,2013-02-17 13:30:00,
2013-02-17 08:31:00,19.7,18.3,29.34,East,101,0.0,2.0,94,0.00,,OVC100,0.00,VWS V14.01,2013-02-17 13:31:00,
2013-02-17 08:32:00,19.7,18.3,29.34,North,350,0.0,0.0,94,0.00,,OVC100,0.00,VWS V14.01,2013-02-17 13:32:00,
2013-02-17 08:33:00,19.7,18.3,29.34,South,179,0.0,3.0,94,0.00,,OVC100,0.00,VWS V14.01,2013-02-17 13:33:00,
2013-02-17 08:34:00,19.7,18.3,29.34,North,5,2.0,2.0,94,0.00,,OVC100,0.00,VWS V14.01,2013-02-17 13:34:00,
2013-02-17 08:35:00,19.7,18.3,29.34,SSE,164,2.0,3.0,94,0.00,,,0.00,VWS V14.01,2013-02-17 13:35:00,
2013-02-17 08:36:00,19.7,18.3,29.34,North,5,0.0,1.0,94,0.00,,OVC100,0.00,VWS V14.01,2013-02-17 13:36:00,
2013-02-17 08:37:00,19.7,18.3,29.34,North,5,0.0,0.0,94,0.00,,OVC100,0.00,VWS V14.01,2013-02-17 13:37:00,
2013-02-17 08:38:00,19.7,18.3,29.33,North,5,0.0,0.0,94,0.00,,OVC100,0.00,VWS V14.01,2013-02-17 13:38:00,
2013-02-17 08:39:00,19.7,18.3,29.33,North,360,1.0,1.0,94,0.00,,OVC100,0.00,VWS V14.01,2013-02-17 13:39:00,
2013-02-17 08:40:00,19.7,18.3,29.33,North,5,0.0,0.0,94,0.00,,,0.00,VWS V14.01,2013-02-17 13:40:00,
2013-02-17 08:41:00,19.7,18.3,29.33,North,5,0.0,0.0,94,0.00,,OVC100,0.00,VWS V14.01,2013-02-17 13:41:00,
2013-02-17 08:42:00,19.7,18.3,29.33,North,5,1.0,2.0,94,0.00,,OVC100,0.00,VWS V14.01,2013-02-17 13:42:00,
2013-02-17 08:43:00,19.7,18.3,29.33,South,173,2.0,3.0,94,0.00,,OVC100,0.00,VWS V14.01,2013-02-17 13:43:00,
2013-02-17 08:44:00,19.7,18.3,29.33,West,281,0.0,2.0,94,0.00,,OVC100,0.00,VWS V14.01,2013-02-17 13:44:00,
2013-02-17 08:45:00,19.7,18.3,29.33,North,9,0.0,1.0,94,0.00,,,0.00,VWS V14.01,2013-02-17 13:45:00,
2013-02-17 08:46:00,19.7,18.3,29.33,NNW,331,0.0,0.0,94,0.00,,OVC100,0.00,VWS V14.01,2013-02-17 13:46:00,
2013-02-17 08:47:00,19.7,18.3,29.33,South,175,0.0,2.0,94,0.00,,OVC100,0.00,VWS V14.01,2013-02-17 13:47:00,
2013-02-17 08:48:00,19.7,18.3,29.33,NW,316,0.0,4.0,94,0.00,,OVC100,0.00,VWS V14.01,2013-02-17 13:48:00,
2013-02-17 08:49:00,19.7,18.3,29.32,WNW,298,0.0,1.0,94,0.00,,OVC100,0.00,VWS V14.01,2013-02-17 13:49:00,
2013-02-17 08:50:00,19.7,18.3,29.33,South,175,3.0,3.0,94,0.00,,,0.00,VWS V14.01,2013-02-17 13:50:00,
2013-02-17 08:51:00,19.7,18.3,29.32,WNW,294,0.0,1.0,94,0.00,,OVC100,0.00,VWS V14.01,2013-02-17 13:51:00,
2013-02-17 08:52:00,19.7,18.3,29.32,WNW,294,0.0,0.0,94,0.00,,OVC100,0.00,VWS V14.01,2013-02-17 13:52:00,
2013-02-17 08:53:00,19.7,18.3,29.32,WNW,294,0.0,0.0,94,0.00,,OVC100,0.00,VWS V14.01,2013-02-17 13:53:00,
2013-02-17 08:54:00,19.7,18.3,29.32,South,178,0.0,2.0,94,0.00,,OVC100,0.00,VWS V14.01,2013-02-17 13:54:00,
2013-02-17 08:55:00,19.7,18.3,29.32,WNW,294,0.0,0.0,94,0.00,,,0.00,VWS V14.01,2013-02-17 13:55:00,
2013-02-17 08:56:00,19.7,18.3,29.32,WSW,246,0.0,1.0,94,0.00,,OVC100,0.00,VWS V14.01,2013-02-17 13:56:00,
2013-02-17 08:57:00,19.7,18.3,29.32,North,350,0.0,3.0,94,0.00,,OVC100,0.00,VWS V14.01,2013-02-17 13:57:00,
2013-02-17 08:58:00,19.7,18.3,29.31,NNW,346,0.0,0.0,94,0.00,,OVC100,0.00,VWS V14.01,2013-02-17 13:58:00,
2013-02-17 08:59:00,19.7,18.3,29.32,North,5,0.0,0.0,94,0.00,,OVC100,0.00,VWS V14.01,2013-02-17 13:59:00,
2013-02-17 09:00:00,19.7,18.3,29.31,NNW,338,0.0,0.0,94,0.00,,,0.00,VWS V14.01,2013-02-17 14:00:00,
2013-02-17 09:01:00,19.7,18.3,29.31,North,350,0.0,2.0,94,0.00,,OVC100,0.00,VWS V14.01,2013-02-17 14:01:00,
2013-02-17 09:02:00,19.7,18.3,29.31,WNW,291,2.0,4.0,94,0.00,,OVC100,0.00,VWS V14.01,2013-02-17 14:02:00,
2013-02-17 09:03:00,19.7,18.3,29.31,North,355,0.0,2.0,94,0.00,,OVC100,0.00,VWS V14.01,2013-02-17 14:03:00,
2013-02-17 09:04:00,19.7,18.3,29.31,NNW,343,0.0,4.0,94,0.00,,OVC100,0.00,VWS V14.01,2013-02-17 14:04:00,
2013-02-17 09:05:00,19.7,18.3,29.31,WNW,295,0.0,2.0,94,0.00,,,0.00,VWS V14.01,2013-02-17 14:05:00,
2013-02-17 09:06:00,19.7,18.3,29.31,South,170,2.0,2.0,94,0.00,,OVC100,0.00,VWS V14.01,2013-02-17 14:06:00,
2013-02-17 09:07:00,19.7,18.3,29.31,SE,135,0.0,3.0,94,0.00,,OVC100,0.00,VWS V14.01,2013-02-17 14:07:00,
2013-02-17 09:08:00,19.7,18.3,29.31,North,355,0.0,2.0,94,0.00,,OVC100,0.00,VWS V14.01,2013-02-17 14:08:00,
2013-02-17 09:09:00,19.7,18.3,29.31,NE,34,0.0,2.0,94,0.00,,OVC100,0.00,VWS V14.01,2013-02-17 14:09:00,
2013-02-17 09:10:00,19.7,18.3,29.31,NE,49,0.0,0.0,94,0.00,,,0.00,VWS V14.01,2013-02-17 14:10:00,
2013-02-17 09:11:00,19.7,18.3,29.31,North,355,1.0,2.0,94,0.00,,OVC100,0.00,VWS V14.01,2013-02-17 14:11:00,
2013-02-17 09:12:00,19.7,18.3,29.31,North,355,0.0,1.0,94,0.00,,OVC100,0.00,VWS V14.01,2013-02-17 14:12:00,
2013-02-17 09:13:00,19.7,18.3,29.31,South,170,4.0,4.0,94,0.00,,OVC100,0.00,VWS V14.01,2013-02-17 14:13:00,
2013-02-17 09:14:00,19.7,18.3,29.30,South,171,0.0,4.0,94,0.00,,OVC100,0.00,VWS V14.01,2013-02-17 14:14:00,
2013-02-17 09:15:00,19.7,18.3,29.31,North,351,0.0,0.0,94,0.00,,,0.00,VWS V14.01,2013-02-17 14:15:00,
2013-02-17 09:16:00,19.7,18.3,29.30,SSE,165,1.0,4.0,94,0.00,,OVC100,0.00,VWS V14.01,2013-02-17 14:16:00,
2013-02-17 09:17:00,19.7,18.3,29.30,ESE,105,1.0,4.0,94,0.00,,OVC100,0.00,VWS V14.01,2013-02-17 14:17:00,
2013-02-17 09:18:00,19.7,18.3,29.30,NE,34,0.0,1.0,94,0.00,,OVC100,0.00,VWS V14.01,2013-02-17 14:18:00,
2013-02-17 09:19:00,19.7,18.3,29.31,NNW,337,0.0,2.0,94,0.00,,OVC100,0.00,VWS V14.01,2013-02-17 14:19:00,
2013-02-17 09:20:00,19.7,18.3,29.30,NE,49,0.0,1.0,94,0.00,,,0.00,VWS V14.01,2013-02-17 14:20:00,
2013-02-17 09:21:00,19.7,18.3,29.30,NNW,340,0.0,3.0,94,0.00,,OVC100,0.00,VWS V14.01,2013-02-17 14:21:00,
2013-02-17 09:22:00,19.7,18.3,29.30,North,9,0.0,0.0,94,0.00,,OVC100,0.00,VWS V14.01,2013-02-17 14:22:00,
2013-02-17 09:23:00,19.7,18.3,29.30,ESE,121,1.0,1.0,94,0.00,,OVC100,0.00,VWS V14.01,2013-02-17 14:23:00,
2013-02-17 09:24:00,19.7,18.3,29.30,NNW,346,2.0,4.0,94,0.00,,OVC100,0.00,VWS V14.01,2013-02-17 14:24:00,
2013-02-17 09:25:00,19.7,18.3,29.30,North,9,0.0,0.0,94,0.00,,,0.00,VWS V14.01,2013-02-17 14:25:00,
2013-02-17 09:26:00,19.7,18.3,29.30,NE,50,1.0,2.0,94,0.00,,OVC100,0.00,VWS V14.01,2013-02-17 14:26:00,
2013-02-17 09:27:00,19.7,18.3,29.30,NW,325,1.0,4.0,94,0.00,,OVC100,0.00,VWS V14.01,2013-02-17 14:27:00,
2013-02-17 09:28:00,19.7,18.3,29.30,NNW,336,0.0,3.0,94,0.00,,OVC100,0.00,VWS V14.01,2013-02-17 14:28:00,
2013-02-17 09:29:00,19.7,18.3,29.29,NNW,336,2.0,2.0,94,0.00,,OVC100,0.00,VWS V14.01,2013-02-17 14:29:00,
2013-02-17 09:30:00,19.7,18.3,29.30,NW,325,0.0,3.0,94,0.00,,,0.00,VWS V14.01,2013-02-17 14:30:00,
2013-02-17 09:31:00,19.7,18.3,29.30,SE,139,3.0,4.0,94,0.00,,OVC100,0.00,VWS V14.01,2013-02-17 14:31:00,
2013-02-17 09:32:00,19.7,18.3,29.29,NNE,14,0.0,6.0,94,0.00,,OVC100,0.00,VWS V14.01,2013-02-17 14:32:00,
2013-02-17 09:33:00,19.7,18.3,29.29,South,185,0.0,2.0,94,0.00,,OVC100,0.00,VWS V14.01,2013-02-17 14:33:00,
2013-02-17 09:34:00,19.7,18.3,29.30,North,5,0.0,8.0,94,0.00,,OVC100,0.00,VWS V14.01,2013-02-17 14:34:00,
2013-02-17 09:35:00,19.7,18.3,29.30,South,185,1.0,1.0,94,0.00,,,0.00,VWS V14.01,2013-02-17 14:35:00,
2013-02-17 09:36:00,19.7,18.3,29.29,SSW,195,1.0,5.0,94,0.00,,OVC100,0.00,VWS V14.01,2013-02-17 14:36:00,
2013-02-17 09:37:00,19.7,18.3,29.29,South,176,0.0,5.0,94,0.00,,OVC100,0.00,VWS V14.01,2013-02-17 14:37:00,
2013-02-17 09:38:00,19.7,18.3,29.29,South,175,0.0,0.0,94,0.00,,OVC100,0.00,VWS V14.01,2013-02-17 14:38:00,
2013-02-17 09:39:00,19.7,18.3,29.29,NE,43,0.0,1.0,94,0.00,,OVC100,0.00,VWS V14.01,2013-02-17 14:39:00,
2013-02-17 09:40:00,19.7,18.3,29.30,South,175,0.0,0.0,94,0.00,,,0.00,VWS V14.01,2013-02-17 14:40:00,
2013-02-17 09:41:00,19.7,18.3,29.29,WNW,282,0.0,1.0,94,0.00,,OVC100,0.00,VWS V14.01,2013-02-17 14:41:00,
2013-02-17 09:42:00,19.7,18.3,29.29,North,10,0.0,1.0,94,0.00,,OVC100,0.00,VWS V14.01,2013-02-17 14:42:00,
2013-02-17 09:43:00,19.7,18.3,29.29,South,171,1.0,2.0,94,0.00,,OVC100,0.00,VWS V14.01,2013-02-17 14:43:00,
2013-02-17 09:44:00,19.7,18.3,29.29,South,171,0.0,1.0,94,0.00,,OVC100,0.00,VWS V14.01,2013-02-17 14:44:00,
2013-02-17 09:45:00,19.7,18.3,29.29,North,10,0.0,0.0,94,0.00,,,0.00,VWS V14.01,2013-02-17 14:45:00,
2013-02-17 09:46:00,19.7,18.3,29.29,NW,315,0.0,2.0,94,0.00,,OVC100,0.00,VWS V14.01,2013-02-17 14:46:00,
2013-02-17 09:47:00,19.7,18.3,29.29,North,360,0.0,2.0,94,0.00,,OVC100,0.00,VWS V14.01,2013-02-17 14:47:00,
2013-02-17 09:48:00,19.7,18.3,29.29,North,351,0.0,3.0,94,0.00,,OVC100,0.00,VWS V14.01,2013-02-17 14:48:00,
2013-02-17 09:49:00,19.7,18.3,29.29,NNW,348,0.0,7.0,94,0.00,,OVC100,0.00,VWS V14.01,2013-02-17 14:49:00,
2013-02-17 09:50:00,19.7,18.3,29.29,NNW,337,1.0,2.0,94,0.00,,,0.00,VWS V14.01,2013-02-17 14:50:00,
2013-02-17 09:51:00,19.7,18.3,29.28,North,360,0.0,0.0,94,0.00,,OVC100,0.00,VWS V14.01,2013-02-17 14:51:00,
2013-02-17 09:52:00,19.7,18.3,29.29,NNW,338,1.0,3.0,94,0.00,,OVC100,0.00,VWS V14.01,2013-02-17 14:52:00,
2013-02-17 09:53:00,19.8,18.4,29.29,NNW,338,1.0,2.0,94,0.00,,OVC100,0.00,VWS V14.01,2013-02-17 14:53:00,
2013-02-17 09:54:00,19.8,18.4,29.29,NW,315,1.0,4.0,94,0.00,,OVC100,0.00,VWS V14.01,2013-02-17 14:54:00,
2013-02-17 09:55:00,19.8,18.4,29.29,North,0,0.0,1.0,94,0.00,,OVC100,0.00,VWS V14.01,2013-02-17 14:55:00,
2013-02-17 09:56:00,19.8,18.4,29.29,North,0,0.0,3.0,94,0.00,,OVC100,0.00,VWS V14.01,2013-02-17 14:56:00,
2013-02-17 09:57:00,19.8,18.4,29.29,NE,45,0.0,1.0,94,0.00,,OVC100,0.00,VWS V14.01,2013-02-17 14:57:00,
2013-02-17 09:58:00,19.8,18.4,29.28,South,180,1.0,3.0,94,0.00,,OVC100,0.00,VWS V14.01,2013-02-17 14:58:00,
2013-02-17 09:59:00,19.8,18.4,29.29,NNE,22,0.0,1.0,94,0.00,,OVC100,0.00,VWS V14.01,2013-02-17 14:59:00,
2013-02-17 10:00:00,19.8,18.4,29.29,NNE,22,0.0,0.0,94,0.00,,OVC100,0.00,VWS V14.01,2013-02-17 15:00:00,
2013-02-17 10:01:00,19.8,18.4,29.29,SSE,158,1.0,2.0,94,0.00,,OVC100,0.00,VWS V14.01,2013-02-17 15:01:00,
2013-02-17 10:02:00,19.8,18.4,29.29,South,180,1.0,2.0,94,0.00,,OVC100,0.00,VWS V14.01,2013-02-17 15:02:00,
2013-02-17 10:03:00,19.8,18.4,29.29,SSW,202,1.0,5.0,94,0.00,,OVC100,0.00,VWS V14.01,2013-02-17 15:03:00,
2013-02-17 10:04:00,19.9,18.5,29.29,NE,45,1.0,5.0,94,0.00,,OVC100,0.00,VWS V14.01,2013-02-17 15:04:00,
2013-02-17 10:05:00,19.9,18.5,29.29,South,180,1.0,3.0,94,0.00,,OVC100,0.00,VWS V14.01,2013-02-17 15:05:00,
2013-02-17 10:06:00,19.8,18.4,29.29,South,180,1.0,2.0,94,0.00,,OVC100,0.00,VWS V14.01,2013-02-17 15:06:00,
2013-02-17 10:07:00,19.9,18.5,29.29,South,180,1.0,4.0,94,0.00,,OVC100,0.00,VWS V14.01,2013-02-17 15:07:00,
2013-02-17 10:08:00,19.9,18.5,29.28,South,180,2.0,6.0,94,0.00,,OVC100,0.00,VWS V14.01,2013-02-17 15:08:00,
2013-02-17 10:09:00,19.9,18.5,29.29,South,180,1.0,5.0,94,0.00,,OVC100,0.00,VWS V14.01,2013-02-17 15:09:00,
2013-02-17 10:10:00,19.9,18.5,29.29,ENE,68,0.0,2.0,94,0.00,,OVC100,0.00,VWS V14.01,2013-02-17 15:10:00,
2013-02-17 10:11:00,19.9,18.5,29.28,SE,135,1.0,3.0,94,0.00,,OVC100,0.00,VWS V14.01,2013-02-17 15:11:00,
2013-02-17 10:12:00,19.9,18.5,29.29,NNE,22,1.0,4.0,94,0.00,,OVC100,0.00,VWS V14.01,2013-02-17 15:12:00,
2013-02-17 10:13:00,19.9,18.5,29.28,NE,45,0.0,2.0,94,0.00,,OVC100,0.00,VWS V14.01,2013-02-17 15:13:00,
2013-02-17 10:14:00,20.0,18.5,29.28,SSW,202,0.0,1.0,94,0.00,,OVC100,0.00,VWS V14.01,2013-02-17 15:14:00,
2013-02-17 10:15:00,19.9,18.5,29.28,NNW,338,0.0,3.0,94,0.00,,OVC100,0.00,VWS V14.01,2013-02-17 15:15:00,
2013-02-17 10:16:00,20.0,18.5,29.29,ESE,112,1.0,5.0,94,0.00,,OVC100,0.00,VWS V14.01,2013-02-17 15:16:00,
2013-02-17 10:17:00,20.0,18.5,29.29,North,0,0.0,1.0,94,0.00,,OVC100,0.00,VWS V14.01,2013-02-17 15:17:00,
2013-02-17 10:18:00,20.0,18.5,29.28,North,0,2.0,7.0,94,0.00,,OVC100,0.00,VWS V14.01,2013-02-17 15:18:00,
2013-02-17 10:19:00,20.0,18.5,29.28,North,0,1.0,3.0,94,0.00,,OVC100,0.00,VWS V14.01,2013-02-17 15:19:00,
2013-02-17 10:20:00,20.0,18.5,29.29,South,180,4.0,12.0,94,0.00,,OVC100,0.00,VWS V14.01,2013-02-17 15:20:00,
2013-02-17 10:21:00,20.0,18.5,29.29,SE,135,2.0,5.0,94,0.00,,OVC100,0.00,VWS V14.01,2013-02-17 15:21:00,
2013-02-17 10:22:00,20.0,18.5,29.28,South,180,2.0,6.0,94,0.00,,OVC100,0.00,VWS V14.01,2013-02-17 15:22:00,
2013-02-17 10:23:00,20.0,18.5,29.28,NW,315,0.0,1.0,94,0.00,,OVC100,0.00,VWS V14.01,2013-02-17 15:23:00,
2013-02-17 10:24:00,20.0,18.5,29.28,NE,45,0.0,1.0,94,0.00,,OVC100,0.00,VWS V14.01,2013-02-17 15:24:00,
2013-02-17 10:25:00,20.0,18.5,29.28,ESE,112,0.0,1.0,94,0.00,,OVC100,0.00,VWS V14.01,2013-02-17 15:25:00,
2013-02-17 10:26:00,20.0,18.5,29.28,SSE,158,2.0,6.0,94,0.00,,OVC100,0.00,VWS V14.01,2013-02-17 15:26:00,
2013-02-17 10:27:00,20.0,18.5,29.28,South,180,1.0,4.0,94,0.00,,OVC100,0.00,VWS V14.01,2013-02-17 15:27:00,
2013-02-17 10:28:00,20.0,18.5,29.28,South,180,0.0,0.0,94,0.00,,OVC100,0.00,VWS V14.01,2013-02-17 15:28:00,
2013-02-17 10:29:00,20.0,18.5,29.28,SE,135,2.0,5.0,94,0.00,,OVC100,0.00,VWS V14.01,2013-02-17 15:29:00,
2013-02-17 10:30:00,20.1,18.6,29.28,WNW,292,0.0,2.0,94,0.00,,OVC100,0.00,VWS V14.01,2013-02-17 15:30:00,
2013-02-17 10:31:00,20.1,18.6,29.28,SSE,158,1.0,4.0,94,0.00,,OVC100,0.00,VWS V14.01,2013-02-17 15:31:00,
2013-02-17 10:32:00,20.1,18.6,29.28,South,180,1.0,4.0,94,0.00,,OVC100,0.00,VWS V14.01,2013-02-17 15:32:00,
2013-02-17 10:33:00,20.1,18.6,29.28,North,0,1.0,3.0,94,0.00,,OVC100,0.00,VWS V14.01,2013-02-17 15:33:00,
2013-02-17 10:34:00,20.1,18.6,29.28,SSW,202,0.0,2.0,94,0.00,,OVC100,0.00,VWS V14.01,2013-02-17 15:34:00,
2013-02-17 10:35:00,20.1,18.6,29.28,South,180,2.0,7.0,94,0.00,,OVC100,0.00,VWS V14.01,2013-02-17 15:35:00,
2013-02-17 10:36:00,20.1,18.6,29.28,South,180,1.0,5.0,94,0.00,,OVC100,0.00,VWS V14.01,2013-02-17 15:36:00,
2013-02-17 10:37:00,20.1,18.6,29.28,SSE,158,3.0,6.0,94,0.00,,OVC100,0.00,VWS V14.01,2013-02-17 15:37:00,
2013-02-17 10:38:00,20.1,18.6,29.28,South,180,2.0,4.0,94,0.00,,OVC100,0.00,VWS V14.01,2013-02-17 15:38:00,
2013-02-17 10:39:00,20.1,18.6,29.28,South,180,0.0,2.0,94,0.00,,OVC100,0.00,VWS V14.01,2013-02-17 15:39:00,
2013-02-17 10:40:00,20.1,18.6,29.28,SSE,158,1.0,7.0,94,0.00,,OVC100,0.00,VWS V14.01,2013-02-17 15:40:00,
2013-02-17 10:41:00,20.2,18.8,29.28,South,180,3.0,6.0,94,0.00,,OVC100,0.00,VWS V14.01,2013-02-17 15:41:00,
2013-02-17 10:42:00,20.2,18.8,29.28,North,0,1.0,4.0,94,0.00,,OVC100,0.00,VWS V14.01,2013-02-17 15:42:00,
2013-02-17 10:43:00,20.2,18.8,29.28,NNE,22,1.0,2.0,94,0.00,,OVC100,0.00,VWS V14.01,2013-02-17 15:43:00,
2013-02-17 10:44:00,20.2,18.8,29.28,South,180,2.0,7.0,94,0.00,,OVC100,0.00,VWS V14.01,2013-02-17 15:44:00,
2013-02-17 10:45:00,20.2,18.8,29.28,North,0,1.0,5.0,94,0.00,,OVC100,0.00,VWS V14.01,2013-02-17 15:45:00,
2013-02-17 10:46:00,20.2,18.8,29.28,SSE,158,1.0,4.0,94,0.00,,OVC100,0.00,VWS V14.01,2013-02-17 15:46:00,
2013-02-17 10:47:00,20.2,18.8,29.28,NNW,338,1.0,3.0,94,0.00,,OVC100,0.00,VWS V14.01,2013-02-17 15:47:00,
2013-02-17 10:48:00,20.2,18.8,29.28,SSE,158,1.0,3.0,94,0.00,,OVC100,0.00,VWS V14.01,2013-02-17 15:48:00,
2013-02-17 10:49:00,20.2,18.8,29.28,South,180,1.0,3.0,94,0.00,,OVC100,0.00,VWS V14.01,2013-02-17 15:49:00,
2013-02-17 10:50:00,20.2,18.8,29.28,SW,225,1.0,3.0,94,0.00,,OVC100,0.00,VWS V14.01,2013-02-17 15:50:00,
2013-02-17 10:51:00,20.2,18.8,29.28,SSE,158,2.0,6.0,94,0.00,,OVC100,0.00,VWS V14.01,2013-02-17 15:51:00,
2013-02-17 10:52:00,20.2,18.8,29.28,ESE,112,1.0,3.0,94,0.00,,OVC100,0.00,VWS V14.01,2013-02-17 15:52:00,
2013-02-17 10:53:00,20.3,18.9,29.28,North,0,1.0,3.0,94,0.00,,OVC100,0.00,VWS V14.01,2013-02-17 15:53:00,
2013-02-17 10:54:00,20.3,18.9,29.28,South,180,1.0,4.0,94,0.00,,OVC100,0.00,VWS V14.01,2013-02-17 15:54:00,
2013-02-17 10:55:00,20.3,18.9,29.28,NNE,22,0.0,2.0,94,0.00,,OVC100,0.00,VWS V14.01,2013-02-17 15:55:00,
2013-02-17 10:56:00,20.3,18.9,29.28,South,180,1.0,3.0,94,0.00,,OVC100,0.00,VWS V14.01,2013-02-17 15:56:00,
2013-02-17 10:57:00,20.3,18.9,29.28,South,180,1.0,3.0,94,0.00,,OVC100,0.00,VWS V14.01,2013-02-17 15:57:00,
2013-02-17 10:58:00,20.3,18.9,29.28,NNE,22,0.0,3.0,94,0.00,,OVC100,0.00,VWS V14.01,2013-02-17 15:58:00,
2013-02-17 10:59:00,20.3,18.9,29.28,North,0,0.0,1.0,94,0.00,,OVC100,0.00,VWS V14.01,2013-02-17 15:59:00,
2013-02-17 11:00:00,20.3,18.9,29.28,North,0,0.0,1.0,94,0.00,,OVC100,0.00,VWS V14.01,2013-02-17 16:00:00,
2013-02-17 11:01:00,20.3,18.9,29.28,NNE,22,0.0,1.0,94,0.00,,OVC100,0.00,VWS V14.01,2013-02-17 16:01:00,
2013-02-17 11:02:00,20.4,19.0,29.28,SSW,202,0.0,2.0,94,0.00,,OVC100,0.00,VWS V14.01,2013-02-17 16:02:00,
2013-02-17 11:03:00,20.4,19.0,29.29,South,180,0.0,3.0,94,0.00,,OVC100,0.00,VWS V14.01,2013-02-17 16:03:00,
2013-02-17 11:04:00,20.4,19.0,29.28,South,180,0.0,0.0,94,0.00,,OVC100,0.00,VWS V14.01,2013-02-17 16:04:00,
2013-02-17 11:05:00,20.4,19.0,29.29,South,180,1.0,2.0,94,0.00,,OVC100,0.00,VWS V14.01,2013-02-17 16:05:00,
2013-02-17 11:06:00,20.4,19.0,29.29,South,180,2.0,5.0,94,0.00,,OVC100,0.00,VWS V14.01,2013-02-17 16:06:00,
2013-02-17 11:07:00,20.4,19.0,29.28,South,180,2.0,6.0,94,0.00,,OVC100,0.00,VWS V14.01,2013-02-17 16:07:00,
2013-02-17 11:08:00,20.4,19.0,29.29,South,180,1.0,3.0,94,0.00,,OVC100,0.00,VWS V14.01,2013-02-17 16:08:00,
2013-02-17 11:09:00,20.4,19.0,29.29,South,180,0.0,0.0,94,0.00,,OVC100,0.00,VWS V14.01,2013-02-17 16:09:00,
2013-02-17 11:10:00,20.4,19.0,29.29,ESE,112,0.0,1.0,94,0.00,,OVC100,0.00,VWS V14.01,2013-02-17 16:10:00,
2013-02-17 11:11:00,20.4,19.0,29.29,NNW,338,2.0,4.0,94,0.00,,OVC100,0.00,VWS V14.01,2013-02-17 16:11:00,
2013-02-17 11:12:00,20.5,19.0,29.29,SSW,202,1.0,2.0,94,0.00,,OVC100,0.00,VWS V14.01,2013-02-17 16:12:00,
2013-02-17 11:13:00,20.5,19.0,29.28,North,0,3.0,9.0,94,0.00,,OVC100,0.00,VWS V14.01,2013-02-17 16:13:00,
2013-02-17 11:14:00,20.5,19.0,29.29,SSE,158,1.0,4.0,94,0.00,,OVC100,0.00,VWS V14.01,2013-02-17 16:14:00,
2013-02-17 11:15:00,20.5,19.0,29.29,South,180,3.0,7.0,94,0.00,,OVC100,0.00,VWS V14.01,2013-02-17 16:15:00,
2013-02-17 11:16:00,20.5,19.0,29.28,NNE,22,1.0,4.0,94,0.00,,OVC100,0.00,VWS V14.01,2013-02-17 16:16:00,
2013-02-17 11:17:00,20.5,19.0,29.29,South,180,2.0,5.0,94,0.00,,OVC100,0.00,VWS V14.01,2013-02-17 16:17:00,
2013-02-17 11:18:00,20.5,19.0,29.29,South,180,2.0,4.0,94,0.00,,OVC100,0.00,VWS V14.01,2013-02-17 16:18:00,
2013-02-17 11:19:00,20.6,19.1,29.29,South,180,2.0,5.0,94,0.00,,OVC100,0.00,VWS V14.01,2013-02-17 16:19:00,
2013-02-17 11:20:00,20.6,19.1,29.29,WSW,248,1.0,3.0,94,0.00,,OVC100,0.00,VWS V14.01,2013-02-17 16:20:00,
2013-02-17 11:21:00,20.6,19.1,29.29,WSW,248,0.0,1.0,94,0.00,,OVC100,0.00,VWS V14.01,2013-02-17 16:21:00,
2013-02-17 11:22:00,20.6,19.1,29.29,WSW,248,0.0,0.0,94,0.00,,OVC100,0.00,VWS V14.01,2013-02-17 16:22:00,
2013-02-17 11:23:00,20.6,19.1,29.29,WSW,248,0.0,0.0,94,0.00,,OVC100,0.00,VWS V14.01,2013-02-17 16:23:00,
2013-02-17 11:24:00,20.6,19.1,29.29,South,180,3.0,7.0,94,0.00,,OVC100,0.00,VWS V14.01,2013-02-17 16:24:00,
2013-02-17 11:25:00,20.6,19.1,29.28,South,180,4.0,6.0,94,0.00,,OVC100,0.00,VWS V14.01,2013-02-17 16:25:00,
2013-02-17 11:26:00,20.6,19.1,29.28,South,180,4.0,10.0,94,0.00,,OVC100,0.00,VWS V14.01,2013-02-17 16:26:00,
2013-02-17 11:27:00,20.6,19.4,29.28,South,180,1.0,3.0,95,0.00,,OVC100,0.00,VWS V14.01,2013-02-17 16:27:00,
2013-02-17 11:28:00,20.6,19.4,29.28,South,180,0.0,2.0,95,0.00,,OVC100,0.00,VWS V14.01,2013-02-17 16:28:00,
2013-02-17 11:29:00,20.7,19.5,29.28,South,180,3.0,6.0,95,0.00,,OVC100,0.00,VWS V14.01,2013-02-17 16:29:00,
2013-02-17 11:30:00,20.7,19.5,29.28,South,180,1.0,4.0,95,0.00,,OVC100,0.00,VWS V14.01,2013-02-17 16:30:00,
2013-02-17 11:31:00,20.7,19.5,29.28,South,180,2.0,6.0,95,0.00,,OVC100,0.00,VWS V14.01,2013-02-17 16:31:00,
2013-02-17 11:32:00,20.7,19.5,29.28,South,180,3.0,9.0,95,0.00,,OVC100,0.00,VWS V14.01,2013-02-17 16:32:00,
2013-02-17 11:33:00,20.7,19.5,29.28,South,180,2.0,5.0,95,0.00,,OVC100,0.00,VWS V14.01,2013-02-17 16:33:00,
2013-02-17 11:34:00,20.7,19.5,29.28,NW,315,1.0,4.0,95,0.00,,OVC100,0.00,VWS V14.01,2013-02-17 16:34:00,
2013-02-17 11:35:00,20.7,19.5,29.28,North,0,0.0,1.0,95,0.00,,OVC100,0.00,VWS V14.01,2013-02-17 16:35:00,
2013-02-17 11:36:00,20.8,19.6,29.28,North,0,0.0,1.0,95,0.00,,OVC100,0.00,VWS V14.01,2013-02-17 16:36:00,
2013-02-17 11:37:00,20.7,19.5,29.28,South,180,0.0,2.0,95,0.00,,OVC100,0.00,VWS V14.01,2013-02-17 16:37:00,
2013-02-17 11:38:00,20.8,19.6,29.28,South,180,2.0,4.0,95,0.00,,OVC100,0.00,VWS V14.01,2013-02-17 16:38:00,
2013-02-17 11:39:00,20.8,19.6,29.28,SSE,158,1.0,4.0,95,0.00,,OVC100,0.00,VWS V14.01,2013-02-17 16:39:00,
2013-02-17 11:40:00,20.8,19.6,29.28,South,180,4.0,12.0,95,0.00,,OVC100,0.00,VWS V14.01,2013-02-17 16:40:00,
2013-02-17 11:41:00,20.8,19.6,29.28,North,0,4.0,9.0,95,0.00,,OVC100,0.00,VWS V14.01,2013-02-17 16:41:00,
2013-02-17 11:42:00,20.8,19.6,29.28,North,0,2.0,5.0,95,0.00,,OVC100,0.00,VWS V14.01,2013-02-17 16:42:00,
2013-02-17 11:43:00,20.8,19.6,29.28,SSE,158,0.0,2.0,95,0.00,,OVC100,0.00,VWS V14.01,2013-02-17 16:43:00,
2013-02-17 11:44:00,20.8,19.4,29.28,South,180,1.0,3.0,94,0.00,,OVC100,0.00,VWS V14.01,2013-02-17 16:44:00,
2013-02-17 11:45:00,20.8,19.4,29.28,North,0,1.0,2.0,94,0.00,,OVC100,0.00,VWS V14.01,2013-02-17 16:45:00,
2013-02-17 11:46:00,20.9,19.5,29.28,ENE,68,0.0,1.0,94,0.00,,OVC100,0.00,VWS V14.01,2013-02-17 16:46:00,
2013-02-17 11:47:00,20.9,19.5,29.28,South,180,0.0,3.0,94,0.00,,OVC100,0.00,VWS V14.01,2013-02-17 16:47:00,
2013-02-17 11:48:00,20.9,19.5,29.28,South,180,4.0,9.0,94,0.00,,OVC100,0.00,VWS V14.01,2013-02-17 16:48:00,
2013-02-17 11:49:00,20.9,19.5,29.28,NNW,338,0.0,1.0,94,0.00,,OVC100,0.00,VWS V14.01,2013-02-17 16:49:00,
2013-02-17 11:50:00,20.9,19.5,29.28,NNE,22,0.0,2.0,94,0.00,,OVC100,0.00,VWS V14.01,2013-02-17 16:50:00,
2013-02-17 11:51:00,20.9,19.5,29.28,NNW,338,0.0,2.0,94,0.00,,OVC100,0.00,VWS V14.01,2013-02-17 16:51:00,
2013-02-17 11:52:00,20.9,19.5,29.28,North,0,1.0,3.0,94,0.00,,OVC100,0.00,VWS V14.01,2013-02-17 16:52:00,
2013-02-17 11:53:00,20.9,19.5,29.28,NNW,338,3.0,7.0,94,0.00,,OVC100,0.00,VWS V14.01,2013-02-17 16:53:00,
2013-02-17 11:54:00,21.0,19.8,29.27,South,180,2.0,6.0,95,0.00,,OVC100,0.00,VWS V14.01,2013-02-17 16:54:00,
2013-02-17 11:55:00,21.0,19.5,29.28,South,180,3.0,5.0,94,0.00,,OVC100,0.00,VWS V14.01,2013-02-17 16:55:00,
2013-02-17 11:56:00,21.0,19.8,29.27,South,180,3.0,7.0,95,0.00,,OVC100,0.00,VWS V14.01,2013-02-17 16:56:00,
2013-02-17 11:57:00,21.0,19.8,29.28,NNE,22,0.0,2.0,95,0.00,,OVC100,0.00,VWS V14.01,2013-02-17 16:57:00,
2013-02-17 11:58:00,21.0,19.8,29.28,South,180,3.0,8.0,95,0.00,,OVC100,0.00,VWS V14.01,2013-02-17 16:58:00,
2013-02-17 11:59:00,21.0,19.8,29.28,North,0,1.0,5.0,95,0.00,,OVC100,0.00,VWS V14.01,2013-02-17 16:59:00,
2013-02-17 12:00:00,21.0,19.8,29.27,North,0,3.0,11.0,95,0.00,,OVC100,0.00,VWS V14.01,2013-02-17 17:00:00,
2013-02-17 12:01:00,21.1,19.9,29.28,SE,135,1.0,2.0,95,0.00,,OVC100,0.00,VWS V14.01,2013-02-17 17:01:00,
2013-02-17 12:02:00,21.1,19.9,29.28,SSE,158,2.0,4.0,95,0.00,,OVC100,0.00,VWS V14.01,2013-02-17 17:02:00,
2013-02-17 12:03:00,21.1,19.9,29.28,North,0,1.0,3.0,95,0.00,,OVC100,0.00,VWS V14.01,2013-02-17 17:03:00,
2013-02-17 12:04:00,21.1,19.9,29.28,NNE,22,1.0,3.0,95,0.00,,OVC100,0.00,VWS V14.01,2013-02-17 17:04:00,
2013-02-17 12:05:00,21.1,19.9,29.27,NNW,338,2.0,4.0,95,0.00,,OVC100,0.00,VWS V14.01,2013-02-17 17:05:00,
2013-02-17 12:06:00,21.1,19.9,29.28,South,180,1.0,4.0,95,0.00,,OVC100,0.00,VWS V14.01,2013-02-17 17:06:00,
2013-02-17 12:07:00,21.1,19.9,29.28,NNW,338,0.0,1.0,95,0.00,,OVC100,0.00,VWS V14.01,2013-02-17 17:07:00,
2013-02-17 12:08:00,21.1,19.9,29.28,SSE,158,2.0,4.0,95,0.00,,OVC100,0.00,VWS V14.01,2013-02-17 17:08:00,
2013-02-17 12:09:00,21.2,20.0,29.28,SSE,158,0.0,1.0,95,0.00,,OVC100,0.00,VWS V14.01,2013-02-17 17:09:00,
2013-02-17 12:10:00,21.2,20.0,29.28,South,180,1.0,6.0,95,0.00,,OVC100,0.00,VWS V14.01,2013-02-17 17:10:00,
2013-02-17 12:11:00,21.2,20.0,29.28,SSE,158,1.0,2.0,95,0.00,,OVC100,0.00,VWS V14.01,2013-02-17 17:11:00,
2013-02-17 12:12:00,21.2,20.0,29.28,SSE,158,0.0,2.0,95,0.00,,OVC100,0.00,VWS V14.01,2013-02-17 17:12:00,
2013-02-17 12:13:00,21.2,20.0,29.28,NE,45,1.0,3.0,95,0.00,,OVC100,0.00,VWS V14.01,2013-02-17 17:13:00,
2013-02-17 12:14:00,21.2,20.0,29.28,NNE,22,0.0,1.0,95,0.00,,OVC100,0.00,VWS V14.01,2013-02-17 17:14:00,
2013-02-17 12:15:00,21.2,20.0,29.28,SE,135,1.0,3.0,95,0.00,,OVC100,0.00,VWS V14.01,2013-02-17 17:15:00,
2013-02-17 12:16:00,21.2,20.0,29.28,South,180,5.0,7.0,95,0.00,,OVC100,0.00,VWS V14.01,2013-02-17 17:16:00,
2013-02-17 12:17:00,21.2,20.0,29.28,South,180,1.0,3.0,95,0.00,,OVC100,0.00,VWS V14.01,2013-02-17 17:17:00,
2013-02-17 12:18:00,21.2,20.0,29.28,SSE,158,1.0,2.0,95,0.00,,OVC100,0.00,VWS V14.01,2013-02-17 17:18:00,
2013-02-17 12:19:00,21.3,20.1,29.28,South,180,2.0,5.0,95,0.00,,OVC100,0.00,VWS V14.01,2013-02-17 17:19:00,
2013-02-17 12:20:00,21.3,20.1,29.28,SSE,158,2.0,4.0,95,0.00,,OVC100,0.00,VWS V14.01,2013-02-17 17:20:00,
2013-02-17 12:21:00,21.3,20.1,29.28,South,180,1.0,4.0,95,0.00,,OVC100,0.00,VWS V14.01,2013-02-17 17:21:00,
2013-02-17 12:22:00,21.3,20.1,29.28,South,180,2.0,3.0,95,0.00,,OVC100,0.00,VWS V14.01,2013-02-17 17:22:00,
2013-02-17 12:23:00,21.3,20.1,29.28,North,0,1.0,3.0,95,0.00,,OVC100,0.00,VWS V14.01,2013-02-17 17:23:00,
2013-02-17 12:24:00,21.3,20.1,29.28,South,180,1.0,3.0,95,0.00,,OVC100,0.00,VWS V14.01,2013-02-17 17:24:00,
2013-02-17 12:25:00,21.3,20.1,29.28,South,180,3.0,5.0,95,0.00,,OVC100,0.00,VWS V14.01,2013-02-17 17:25:00,
2013-02-17 12:26:00,21.4,20.2,29.28,South,180,1.0,3.0,95,0.00,,OVC100,0.00,VWS V14.01,2013-02-17 17:26:00,
2013-02-17 12:27:00,21.4,20.2,29.28,NNW,338,1.0,2.0,95,0.00,,OVC100,0.00,VWS V14.01,2013-02-17 17:27:00,
2013-02-17 12:28:00,21.4,20.2,29.28,South,180,5.0,9.0,95,0.00,,OVC100,0.00,VWS V14.01,2013-02-17 17:28:00,
2013-02-17 12:29:00,21.4,20.2,29.28,South,180,4.0,5.0,95,0.00,,OVC100,0.00,VWS V14.01,2013-02-17 17:29:00,
2013-02-17 12:30:00,21.4,20.2,29.28,South,180,5.0,10.0,95,0.00,,OVC100,0.00,VWS V14.01,2013-02-17 17:30:00,
2013-02-17 12:31:00,21.5,20.3,29.28,South,180,4.0,6.0,95,0.00,,OVC100,0.00,VWS V14.01,2013-02-17 17:31:00,
2013-02-17 12:32:00,21.4,20.2,29.28,SSE,158,3.0,5.0,95,0.00,,OVC100,0.00,VWS V14.01,2013-02-17 17:32:00,
2013-02-17 12:33:00,21.5,20.3,29.28,South,180,2.0,5.0,95,0.00,,OVC100,0.00,VWS V14.01,2013-02-17 17:33:00,
2013-02-17 12:34:00,21.5,20.3,29.28,South,180,4.0,11.0,95,0.00,,OVC100,0.00,VWS V14.01,2013-02-17 17:34:00,
2013-02-17 12:35:00,21.5,20.3,29.29,South,180,2.0,6.0,95,0.00,,OVC100,0.00,VWS V14.01,2013-02-17 17:35:00,
2013-02-17 12:36:00,21.5,20.3,29.28,South,180,4.0,10.0,95,0.00,,OVC100,0.00,VWS V14.01,2013-02-17 17:36:00,
2013-02-17 12:37:00,21.5,20.3,29.29,South,180,2.0,5.0,95,0.00,,OVC100,0.00,VWS V14.01,2013-02-17 17:37:00,
2013-02-17 12:38:00,21.5,20.3,29.29,ENE,68,1.0,4.0,95,0.00,,OVC100,0.00,VWS V14.01,2013-02-17 17:38:00,
2013-02-17 12:39:00,21.5,20.3,29.28,SSE,158,1.0,3.0,95,0.00,,OVC100,0.00,VWS V14.01,2013-02-17 17:39:00,
2013-02-17 12:40:00,21.6,20.4,29.28,South,180,3.0,6.0,95,0.00,,OVC100,0.00,VWS V14.01,2013-02-17 17:40:00,
2013-02-17 12:41:00,21.6,20.4,29.28,North,0,1.0,6.0,95,0.00,,OVC100,0.00,VWS V14.01,2013-02-17 17:41:00,
2013-02-17 12:42:00,21.6,20.4,29.28,South,180,4.0,7.0,95,0.00,,OVC100,0.00,VWS V14.01,2013-02-17 17:42:00,
2013-02-17 12:43:00,21.6,20.4,29.28,South,180,2.0,5.0,95,0.00,,OVC100,0.00,VWS V14.01,2013-02-17 17:43:00,
2013-02-17 12:44:00,21.6,20.4,29.28,South,180,1.0,3.0,95,0.00,,OVC100,0.00,VWS V14.01,2013-02-17 17:44:00,
2013-02-17 12:45:00,21.6,20.4,29.28,South,180,3.0,6.0,95,0.00,,OVC100,0.00,VWS V14.01,2013-02-17 17:45:00,
2013-02-17 12:46:00,21.6,20.4,29.29,South,180,0.0,0.0,95,0.00,,OVC100,0.00,VWS V14.01,2013-02-17 17:46:00,
2013-02-17 12:47:00,21.6,20.4,29.29,North,0,1.0,4.0,95,0.00,,OVC100,0.00,VWS V14.01,2013-02-17 17:47:00,
2013-02-17 12:48:00,21.7,20.5,29.28,South,180,1.0,3.0,95,0.00,,OVC100,0.00,VWS V14.01,2013-02-17 17:48:00,
2013-02-17 12:49:00,21.7,20.5,29.28,South,180,1.0,3.0,95,0.00,,OVC100,0.00,VWS V14.01,2013-02-17 17:49:00,
2013-02-17 12:50:00,21.7,20.5,29.28,South,180,3.0,4.0,95,0.00,,OVC100,0.00,VWS V14.01,2013-02-17 17:50:00,
2013-02-17 12:51:00,21.7,20.5,29.29,South,180,1.0,2.0,95,0.00,,OVC100,0.00,VWS V14.01,2013-02-17 17:51:00,
2013-02-17 12:52:00,21.7,20.5,29.29,South,180,2.0,3.0,95,0.00,,OVC100,0.00,VWS V14.01,2013-02-17 17:52:00,
2013-02-17 12:53:00,21.7,20.5,29.28,South,180,4.0,7.0,95,0.00,,OVC100,0.00,VWS V14.01,2013-02-17 17:53:00,
2013-02-17 12:54:00,21.7,20.5,29.28,South,180,3.0,7.0,95,0.00,,OVC100,0.00,VWS V14.01,2013-02-17 17:54:00,
2013-02-17 12:55:00,21.7,20.5,29.29,South,180,4.0,6.0,95,0.00,,OVC100,0.00,VWS V14.01,2013-02-17 17:55:00,
2013-02-17 12:56:00,21.8,20.6,29.29,South,180,2.0,6.0,95,0.00,,OVC100,0.00,VWS V14.01,2013-02-17 17:56:00,
2013-02-17 12:57:00,21.8,20.6,29.29,South,180,2.0,4.0,95,0.00,,OVC100,0.00,VWS V14.01,2013-02-17 17:57:00,
2013-02-17 12:58:00,21.8,20.6,29.29,South,180,3.0,10.0,95,0.00,,OVC100,0.00,VWS V14.01,2013-02-17 17:58:00,
2013-02-17 12:59:00,21.8,20.6,29.28,South,180,3.0,5.0,95,0.00,,OVC100,0.00,VWS V14.01,2013-02-17 17:59:00,
2013-02-17 13:00:00,21.8,20.6,29.29,SW,225,3.0,6.0,95,0.00,,OVC100,0.00,VWS V14.01,2013-02-17 18:00:00,
2013-02-17 13:01:00,21.8,20.6,29.29,South,180,2.0,4.0,95,0.00,,OVC100,0.00,VWS V14.01,2013-02-17 18:01:00,
2013-02-17 13:02:00,21.8,20.6,29.29,North,0,1.0,4.0,95,0.00,,OVC100,0.00,VWS V14.01,2013-02-17 18:02:00,
2013-02-17 13:03:00,21.9,20.7,29.29,South,180,7.0,12.0,95,0.00,,OVC100,0.00,VWS V14.01,2013-02-17 18:03:00,
2013-02-17 13:04:00,21.8,20.6,29.29,SSE,158,4.0,9.0,95,0.00,,OVC100,0.00,VWS V14.01,2013-02-17 18:04:00,
2013-02-17 13:05:00,21.9,20.7,29.29,South,180,2.0,4.0,95,0.00,,OVC100,0.00,VWS V14.01,2013-02-17 18:05:00,
2013-02-17 13:06:00,21.9,20.7,29.29,South,180,2.0,5.0,95,0.00,,OVC100,0.00,VWS V14.01,2013-02-17 18:06:00,
2013-02-17 13:07:00,21.9,20.7,29.29,South,180,3.0,5.0,95,0.00,,OVC100,0.00,VWS V14.01,2013-02-17 18:07:00,
2013-02-17 13:08:00,21.9,20.7,29.29,South,180,2.0,10.0,95,0.00,,OVC100,0.00,VWS V14.01,2013-02-17 18:08:00,
2013-02-17 13:09:00,21.9,20.7,29.29,South,180,3.0,12.0,95,0.00,,OVC100,0.00,VWS V14.01,2013-02-17 18:09:00,
2013-02-17 13:10:00,21.9,20.7,29.29,SSE,158,1.0,2.0,95,0.00,,OVC100,0.00,VWS V14.01,2013-02-17 18:10:00,
2013-02-17 13:11:00,21.9,20.7,29.29,South,180,1.0,3.0,95,0.00,,OVC100,0.00,VWS V14.01,2013-02-17 18:11:00,
2013-02-17 13:12:00,21.9,20.7,29.29,South,180,3.0,5.0,95,0.00,,OVC100,0.00,VWS V14.01,2013-02-17 18:12:00,
2013-02-17 13:13:00,22.0,20.8,29.29,NNW,338,3.0,9.0,95,0.00,,OVC100,0.00,VWS V14.01,2013-02-17 18:13:00,
2013-02-17 13:14:00,21.9,20.7,29.29,NNW,338,3.0,7.0,95,0.00,,OVC100,0.00,VWS V14.01,2013-02-17 18:14:00,
2013-02-17 13:15:00,22.0,20.8,29.29,South,180,2.0,4.0,95,0.00,,OVC100,0.00,VWS V14.01,2013-02-17 18:15:00,
2013-02-17 13:16:00,22.0,20.8,29.29,South,180,1.0,3.0,95,0.00,,OVC100,0.00,VWS V14.01,2013-02-17 18:16:00,
2013-02-17 13:18:00,22.0,20.8,29.29,North,0,1.0,2.0,95,0.00,,OVC100,0.00,VWS V14.01,2013-02-17 18:18:00,
2013-02-17 13:19:00,22.0,20.8,29.29,North,0,3.0,5.0,95,0.00,,OVC100,0.00,VWS V14.01,2013-02-17 18:19:00,
2013-02-17 13:20:00,22.0,20.8,29.29,South,180,4.0,7.0,95,0.00,,OVC100,0.00,VWS V14.01,2013-02-17 18:20:00,
2013-02-17 13:21:00,22.0,20.8,29.29,South,180,3.0,6.0,95,0.00,,OVC100,0.00,VWS V14.01,2013-02-17 18:21:00,
2013-02-17 13:22:00,22.0,20.8,29.29,South,180,3.0,9.0,95,0.00,,OVC100,0.00,VWS V14.01,2013-02-17 18:22:00,
2013-02-17 13:23:00,22.0,20.8,29.29,South,180,1.0,3.0,95,0.00,,OVC100,0.00,VWS V14.01,2013-02-17 18:23:00,
2013-02-17 13:24:00,22.0,20.8,29.29,North,0,1.0,4.0,95,0.00,,OVC100,0.00,VWS V14.01,2013-02-17 18:24:00,
2013-02-17 13:25:00,22.0,20.8,29.30,North,0,3.0,6.0,95,0.00,,OVC100,0.00,VWS V14.01,2013-02-17 18:25:00,
2013-02-17 13:26:00,22.0,20.8,29.30,NNW,338,3.0,6.0,95,0.00,,OVC100,0.00,VWS V14.01,2013-02-17 18:26:00,
2013-02-17 13:27:00,22.0,20.8,29.30,South,180,4.0,7.0,95,0.00,,OVC100,0.00,VWS V14.01,2013-02-17 18:27:00,
2013-02-17 13:28:00,22.0,20.8,29.30,South,180,4.0,10.0,95,0.00,,OVC100,0.00,VWS V14.01,2013-02-17 18:28:00,
2013-02-17 13:29:00,22.0,20.8,29.29,North,0,2.0,9.0,95,0.00,,OVC100,0.00,VWS V14.01,2013-02-17 18:29:00,
2013-02-17 13:30:00,22.0,20.8,29.30,North,0,3.0,7.0,95,0.00,,OVC100,0.00,VWS V14.01,2013-02-17 18:30:00,
2013-02-17 13:31:00,22.0,20.8,29.30,South,180,3.0,7.0,95,0.00,,OVC100,0.00,VWS V14.01,2013-02-17 18:31:00,
2013-02-17 13:32:00,22.0,20.8,29.30,South,180,3.0,7.0,95,0.00,,OVC100,0.00,VWS V14.01,2013-02-17 18:32:00,
2013-02-17 13:33:00,22.0,20.8,29.30,South,180,3.0,6.0,95,0.00,,OVC100,0.00,VWS V14.01,2013-02-17 18:33:00,
2013-02-17 13:34:00,22.0,20.8,29.30,South,180,4.0,11.0,95,0.00,,OVC100,0.00,VWS V14.01,2013-02-17 18:34:00,
2013-02-17 13:35:00,22.0,20.8,29.30,South,180,3.0,4.0,95,0.00,,OVC100,0.00,VWS V14.01,2013-02-17 18:35:00,
2013-02-17 13:36:00,22.0,20.8,29.30,NE,45,2.0,5.0,95,0.00,,OVC100,0.00,VWS V14.01,2013-02-17 18:36:00,
2013-02-17 13:37:00,22.0,20.8,29.30,NNW,338,2.0,3.0,95,0.00,,OVC100,0.00,VWS V14.01,2013-02-17 18:37:00,
2013-02-17 13:38:00,22.0,20.8,29.30,South,180,4.0,10.0,95,0.00,,OVC100,0.00,VWS V14.01,2013-02-17 18:38:00,
2013-02-17 13:39:00,22.0,20.8,29.30,South,180,3.0,5.0,95,0.00,,OVC100,0.00,VWS V14.01,2013-02-17 18:39:00,
2013-02-17 13:40:00,22.0,20.8,29.30,North,0,1.0,3.0,95,0.00,,OVC100,0.00,VWS V14.01,2013-02-17 18:40:00,
2013-02-17 13:41:00,22.0,20.8,29.30,South,180,1.0,3.0,95,0.00,,OVC100,0.00,VWS V14.01,2013-02-17 18:41:00,
2013-02-17 13:42:00,22.0,20.8,29.31,South,180,2.0,6.0,95,0.00,,OVC100,0.00,VWS V14.01,2013-02-17 18:42:00,
2013-02-17 13:43:00,22.0,20.8,29.31,South,180,2.0,5.0,95,0.00,,OVC100,0.00,VWS V14.01,2013-02-17 18:43:00,
2013-02-17 13:44:00,22.0,20.8,29.30,North,0,2.0,5.0,95,0.00,,OVC100,0.00,VWS V14.01,2013-02-17 18:44:00,
2013-02-17 13:45:00,22.0,20.8,29.30,South,180,2.0,4.0,95,0.00,,OVC100,0.00,VWS V14.01,2013-02-17 18:45:00,
2013-02-17 13:46:00,22.0,20.8,29.31,South,180,3.0,5.0,95,0.00,,OVC100,0.00,VWS V14.01,2013-02-17 18:46:00,
2013-02-17 13:47:00,22.0,20.8,29.30,SSE,158,2.0,4.0,95,0.00,,OVC100,0.00,VWS V14.01,2013-02-17 18:47:00,
2013-02-17 13:48:00,22.0,20.8,29.30,South,180,5.0,12.0,95,0.00,,OVC100,0.00,VWS V14.01,2013-02-17 18:48:00,
2013-02-17 13:49:00,22.0,20.8,29.31,South,180,2.0,7.0,95,0.00,,OVC100,0.00,VWS V14.01,2013-02-17 18:49:00,
2013-02-17 13:50:00,22.0,20.8,29.31,South,180,2.0,4.0,95,0.00,,OVC100,0.00,VWS V14.01,2013-02-17 18:50:00,
2013-02-17 13:51:00,22.0,20.8,29.31,South,180,0.0,1.0,95,0.00,,OVC100,0.00,VWS V14.01,2013-02-17 18:51:00,
2013-02-17 13:52:00,22.0,20.8,29.31,South,180,1.0,3.0,95,0.00,,OVC100,0.00,VWS V14.01,2013-02-17 18:52:00,
2013-02-17 13:53:00,22.0,20.8,29.30,South,180,1.0,3.0,95,0.00,,OVC100,0.00,VWS V14.01,2013-02-17 18:53:00,
2013-02-17 13:54:00,22.0,20.8,29.31,NNW,338,1.0,3.0,95,0.00,,OVC100,0.00,VWS V14.01,2013-02-17 18:54:00,
2013-02-17 13:55:00,21.9,20.7,29.31,NNE,22,1.0,2.0,95,0.00,,OVC100,0.00,VWS V14.01,2013-02-17 18:55:00,
2013-02-17 13:56:00,22.0,20.8,29.31,South,180,1.0,2.0,95,0.00,,OVC100,0.00,VWS V14.01,2013-02-17 18:56:00,
2013-02-17 13:57:00,21.9,20.7,29.31,SSE,158,1.0,4.0,95,0.00,,OVC100,0.00,VWS V14.01,2013-02-17 18:57:00,
2013-02-17 13:58:00,21.9,20.7,29.31,South,180,4.0,7.0,95,0.00,,OVC100,0.00,VWS V14.01,2013-02-17 18:58:00,
2013-02-17 13:59:00,21.9,20.7,29.30,NNW,338,3.0,7.0,95,0.00,,OVC100,0.00,VWS V14.01,2013-02-17 18:59:00,
2013-02-17 14:00:00,21.9,20.7,29.30,South,180,3.0,5.0,95,0.00,,OVC100,0.00,VWS V14.01,2013-02-17 19:00:00,
2013-02-17 14:01:00,21.9,20.7,29.31,SE,135,4.0,9.0,95,0.00,,OVC100,0.00,VWS V14.01,2013-02-17 19:01:00,
2013-02-17 14:02:00,21.9,20.7,29.31,NNW,338,2.0,7.0,95,0.00,,OVC100,0.00,VWS V14.01,2013-02-17 19:02:00,
2013-02-17 14:03:00,21.8,20.6,29.31,South,180,4.0,11.0,95,0.00,,OVC100,0.00,VWS V14.01,2013-02-17 19:03:00,
2013-02-17 14:04:00,21.9,20.7,29.31,South,180,3.0,4.0,95,0.00,,OVC100,0.00,VWS V14.01,2013-02-17 19:04:00,
2013-02-17 14:05:00,21.9,20.7,29.31,NNW,338,2.0,4.0,95,0.00,,OVC100,0.00,VWS V14.01,2013-02-17 19:05:00,
2013-02-17 14:06:00,21.8,20.6,29.31,West,270,2.0,3.0,95,0.00,,OVC100,0.00,VWS V14.01,2013-02-17 19:06:00,
2013-02-17 14:07:00,21.8,20.6,29.31,NNW,338,0.0,2.0,95,0.00,,OVC100,0.00,VWS V14.01,2013-02-17 19:07:00,
2013-02-17 14:08:00,21.8,20.6,29.32,South,180,0.0,2.0,95,0.00,,OVC100,0.00,VWS V14.01,2013-02-17 19:08:00,
2013-02-17 14:09:00,21.8,20.6,29.31,South,180,1.0,5.0,95,0.00,,OVC100,0.00,VWS V14.01,2013-02-17 19:09:00,
2013-02-17 14:10:00,21.8,20.6,29.32,North,0,2.0,6.0,95,0.00,,OVC100,0.00,VWS V14.01,2013-02-17 19:10:00,
2013-02-17 14:11:00,21.8,20.6,29.32,North,0,2.0,6.0,95,0.00,,OVC100,0.00,VWS V14.01,2013-02-17 19:11:00,
2013-02-17 14:12:00,21.8,20.6,29.32,South,180,2.0,5.0,95,0.00,,OVC100,0.00,VWS V14.01,2013-02-17 19:12:00,
2013-02-17 14:13:00,21.8,20.6,29.32,South,180,4.0,10.0,95,0.00,,OVC100,0.00,VWS V14.01,2013-02-17 19:13:00,
2013-02-17 14:14:00,21.8,20.6,29.32,South,180,2.0,3.0,95,0.00,,OVC100,0.00,VWS V14.01,2013-02-17 19:14:00,
2013-02-17 14:15:00,21.7,20.5,29.32,NNW,338,2.0,10.0,95,0.00,,OVC100,0.00,VWS V14.01,2013-02-17 19:15:00,
2013-02-17 14:16:00,21.8,20.6,29.32,SSE,158,1.0,2.0,95,0.00,,OVC100,0.00,VWS V14.01,2013-02-17 19:16:00,
2013-02-17 14:17:00,21.7,20.5,29.32,NE,45,1.0,2.0,95,0.00,,OVC100,0.00,VWS V14.01,2013-02-17 19:17:00,
2013-02-17 14:18:00,21.7,20.5,29.32,South,180,3.0,10.0,95,0.00,,OVC100,0.00,VWS V14.01,2013-02-17 19:18:00,
2013-02-17 14:19:00,21.7,20.5,29.32,North,0,3.0,9.0,95,0.00,,OVC100,0.00,VWS V14.01,2013-02-17 19:19:00,
2013-02-17 14:20:00,21.7,20.5,29.32,South,180,2.0,5.0,95,0.00,,OVC100,0.00,VWS V14.01,2013-02-17 19:20:00,
2013-02-17 14:21:00,21.7,20.5,29.32,South,180,5.0,8.0,95,0.00,,OVC100,0.00,VWS V14.01,2013-02-17 19:21:00,
2013-02-17 14:22:00,21.7,20.5,29.32,NNW,338,3.0,11.0,95,0.00,,OVC100,0.00,VWS V14.01,2013-02-17 19:22:00,
2013-02-17 14:23:00,21.7,20.5,29.31,South,180,4.0,12.0,95,0.00,,OVC100,0.00,VWS V14.01,2013-02-17 19:23:00,
2013-02-17 14:24:00,21.7,20.5,29.33,South,180,4.0,7.0,95,0.00,,OVC100,0.00,VWS V14.01,2013-02-17 19:24:00,
2013-02-17 14:25:00,21.7,20.5,29.33,South,180,2.0,3.0,95,0.00,,OVC100,0.00,VWS V14.01,2013-02-17 19:25:00,
2013-02-17 14:26:00,21.7,20.5,29.32,South,180,5.0,7.0,95,0.00,,OVC100,0.00,VWS V14.01,2013-02-17 19:26:00,
2013-02-17 14:27:00,21.7,20.5,29.33,North,0,3.0,5.0,95,0.00,,OVC100,0.00,VWS V14.01,2013-02-17 19:27:00,
2013-02-17 14:28:00,21.7,20.5,29.32,North,0,1.0,4.0,95,0.00,,OVC100,0.00,VWS V14.01,2013-02-17 19:28:00,
2013-02-17 14:29:00,21.7,20.5,29.32,North,0,2.0,3.0,95,0.00,,OVC100,0.00,VWS V14.01,2013-02-17 19:29:00,
2013-02-17 14:30:00,21.7,20.5,29.33,South,180,4.0,11.0,95,0.00,,OVC100,0.00,VWS V14.01,2013-02-17 19:30:00,
2013-02-17 14:31:00,21.7,20.5,29.32,SSE,158,2.0,7.0,95,0.00,,OVC100,0.00,VWS V14.01,2013-02-17 19:31:00,
2013-02-17 14:32:00,21.7,20.5,29.32,South,180,4.0,7.0,95,0.00,,OVC100,0.00,VWS V14.01,2013-02-17 19:32:00,
2013-02-17 14:33:00,21.7,20.5,29.33,South,180,3.0,4.0,95,0.00,,OVC100,0.00,VWS V14.01,2013-02-17 19:33:00,
2013-02-17 14:34:00,21.7,20.5,29.33,South,180,1.0,3.0,95,0.00,,OVC100,0.00,VWS V14.01,2013-02-17 19:34:00,
2013-02-17 14:35:00,21.7,20.5,29.33,South,180,5.0,10.0,95,0.00,,OVC100,0.00,VWS V14.01,2013-02-17 19:35:00,
2013-02-17 14:36:00,21.7,20.5,29.33,North,0,2.0,4.0,95,0.00,,OVC100,0.00,VWS V14.01,2013-02-17 19:36:00,
2013-02-17 14:37:00,21.7,20.5,29.33,South,180,3.0,6.0,95,0.00,,OVC100,0.00,VWS V14.01,2013-02-17 19:37:00,
2013-02-17 14:38:00,21.7,20.5,29.33,North,0,2.0,3.0,95,0.00,,OVC100,0.00,VWS V14.01,2013-02-17 19:38:00,
2013-02-17 14:39:00,21.7,20.5,29.33,South,180,2.0,4.0,95,0.00,,OVC100,0.00,VWS V14.01,2013-02-17 19:39:00,
2013-02-17 14:40:00,21.7,20.5,29.33,South,180,5.0,11.0,95,0.00,,OVC100,0.00,VWS V14.01,2013-02-17 19:40:00,
2013-02-17 14:41:00,21.7,20.5,29.32,South,180,5.0,15.0,95,0.00,,OVC100,0.00,VWS V14.01,2013-02-17 19:41:00,
2013-02-17 14:42:00,21.7,20.5,29.33,SSW,202,3.0,7.0,95,0.00,,OVC100,0.00,VWS V14.01,2013-02-17 19:42:00,
2013-02-17 14:43:00,21.7,20.5,29.32,South,180,4.0,9.0,95,0.00,,OVC100,0.00,VWS V14.01,2013-02-17 19:43:00,
2013-02-17 14:44:00,21.7,20.5,29.33,North,0,4.0,10.0,95,0.00,,OVC100,0.00,VWS V14.01,2013-02-17 19:44:00,
2013-02-17 14:45:00,21.7,20.5,29.32,North,0,4.0,7.0,95,0.00,,OVC100,0.00,VWS V14.01,2013-02-17 19:45:00,
2013-02-17 14:46:00,21.7,20.5,29.33,North,0,2.0,6.0,95,0.00,,OVC100,0.00,VWS V14.01,2013-02-17 19:46:00,
2013-02-17 14:47:00,21.7,20.5,29.33,South,180,4.0,7.0,95,0.00,,OVC100,0.00,VWS V14.01,2013-02-17 19:47:00,
2013-02-17 14:48:00,21.7,20.5,29.33,NNE,22,1.0,5.0,95,0.00,,OVC100,0.00,VWS V14.01,2013-02-17 19:48:00,
2013-02-17 14:49:00,21.7,20.5,29.33,South,180,4.0,12.0,95,0.00,,OVC100,0.00,VWS V14.01,2013-02-17 19:49:00,
2013-02-17 14:50:00,21.7,20.5,29.33,North,0,2.0,4.0,95,0.00,,OVC100,0.00,VWS V14.01,2013-02-17 19:50:00,
2013-02-17 14:51:00,21.7,20.5,29.32,NNW,338,3.0,7.0,95,0.00,,OVC100,0.00,VWS V14.01,2013-02-17 19:51:00,
2013-02-17 14:52:00,21.7,20.5,29.33,North,0,3.0,6.0,95,0.00,,OVC100,0.00,VWS V14.01,2013-02-17 19:52:00,
2013-02-17 14:53:00,21.7,20.5,29.33,West,270,2.0,9.0,95,0.00,,OVC100,0.00,VWS V14.01,2013-02-17 19:53:00,
2013-02-17 14:54:00,21.7,20.5,29.33,SSE,158,2.0,5.0,95,0.00,,OVC100,0.00,VWS V14.01,2013-02-17 19:54:00,
2013-02-17 14:55:00,21.7,20.5,29.33,North,0,1.0,3.0,95,0.00,,OVC100,0.00,VWS V14.01,2013-02-17 19:55:00,
2013-02-17 14:56:00,21.7,20.5,29.33,North,0,1.0,2.0,95,0.00,,OVC100,0.00,VWS V14.01,2013-02-17 19:56:00,
2013-02-17 14:57:00,21.7,20.5,29.33,NNE,22,2.0,5.0,95,0.00,,OVC100,0.00,VWS V14.01,2013-02-17 19:57:00,
2013-02-17 14:58:00,21.7,20.5,29.33,South,180,3.0,5.0,95,0.00,,OVC100,0.00,VWS V14.01,2013-02-17 19:58:00,
2013-02-17 14:59:00,21.7,20.5,29.33,South,180,3.0,10.0,95,0.00,,OVC100,0.00,VWS V14.01,2013-02-17 19:59:00,
2013-02-17 15:00:00,21.7,20.5,29.33,North,0,3.0,5.0,95,0.00,,OVC100,0.00,VWS V14.01,2013-02-17 20:00:00,
2013-02-17 15:01:00,21.7,20.5,29.33,North,0,3.0,5.0,95,0.00,,OVC100,0.00,VWS V14.01,2013-02-17 20:01:00,
2013-02-17 15:02:00,21.7,20.5,29.32,NNW,338,4.0,8.0,95,0.00,,OVC100,0.00,VWS V14.01,2013-02-17 20:02:00,
2013-02-17 15:03:00,21.7,20.5,29.33,South,180,4.0,9.0,95,0.00,,OVC100,0.00,VWS V14.01,2013-02-17 20:03:00,
2013-02-17 15:04:00,21.7,20.5,29.33,South,180,3.0,7.0,95,0.00,,OVC100,0.00,VWS V14.01,2013-02-17 20:04:00,
2013-02-17 15:05:00,21.8,20.6,29.33,South,180,1.0,3.0,95,0.00,,OVC100,0.00,VWS V14.01,2013-02-17 20:05:00,
2013-02-17 15:06:00,21.7,20.5,29.33,South,180,3.0,6.0,95,0.00,,OVC100,0.00,VWS V14.01,2013-02-17 20:06:00,
2013-02-17 15:07:00,21.8,20.6,29.33,South,180,3.0,7.0,95,0.00,,OVC100,0.00,VWS V14.01,2013-02-17 20:07:00,
2013-02-17 15:08:00,21.7,20.5,29.33,South,180,5.0,9.0,95,0.00,,OVC100,0.00,VWS V14.01,2013-02-17 20:08:00,
2013-02-17 15:09:00,21.8,20.6,29.33,South,180,2.0,6.0,95,0.00,,OVC100,0.00,VWS V14.01,2013-02-17 20:09:00,
2013-02-17 15:10:00,21.8,20.6,29.33,NNW,338,2.0,6.0,95,0.00,,OVC100,0.00,VWS V14.01,2013-02-17 20:10:00,
2013-02-17 15:11:00,21.8,20.6,29.33,South,180,3.0,6.0,95,0.00,,OVC100,0.00,VWS V14.01,2013-02-17 20:11:00,
2013-02-17 15:12:00,21.8,20.6,29.33,NNW,338,2.0,5.0,95,0.00,,OVC100,0.00,VWS V14.01,2013-02-17 20:12:00,
2013-02-17 15:13:00,21.8,20.6,29.33,South,180,4.0,10.0,95,0.00,,OVC100,0.00,VWS V14.01,2013-02-17 20:13:00,
2013-02-17 15:14:00,21.8,20.6,29.34,SSE,158,5.0,13.0,95,0.00,,OVC100,0.00,VWS V14.01,2013-02-17 20:14:00,
2013-02-17 15:15:00,21.8,20.6,29.33,SSE,158,2.0,4.0,95,0.00,,OVC100,0.00,VWS V14.01,2013-02-17 20:15:00,
2013-02-17 15:16:00,21.8,20.6,29.33,South,180,4.0,9.0,95,0.00,,OVC100,0.00,VWS V14.01,2013-02-17 20:16:00,
2013-02-17 15:17:00,21.8,20.6,29.33,SSW,202,2.0,5.0,95,0.00,,OVC100,0.00,VWS V14.01,2013-02-17 20:17:00,
2013-02-17 15:18:00,21.8,20.6,29.33,NNW,338,2.0,7.0,95,0.00,,OVC100,0.00,VWS V14.01,2013-02-17 20:18:00,
2013-02-17 15:19:00,21.8,20.6,29.34,South,180,4.0,12.0,95,0.00,,OVC100,0.00,VWS V14.01,2013-02-17 20:19:00,
2013-02-17 15:20:00,21.8,20.6,29.34,South,180,7.0,13.0,95,0.00,,OVC100,0.00,VWS V14.01,2013-02-17 20:20:00,
2013-02-17 15:21:00,21.8,20.6,29.34,South,180,4.0,9.0,95,0.00,,OVC100,0.00,VWS V14.01,2013-02-17 20:21:00,
2013-02-17 15:22:00,21.8,20.6,29.33,SSE,158,3.0,6.0,95,0.00,,OVC100,0.00,VWS V14.01,2013-02-17 20:22:00,
2013-02-17 15:23:00,21.8,20.6,29.33,South,180,2.0,4.0,95,0.00,,OVC100,0.00,VWS V14.01,2013-02-17 20:23:00,
2013-02-17 15:24:00,21.8,20.6,29.33,North,0,1.0,3.0,95,0.00,,OVC100,0.00,VWS V14.01,2013-02-17 20:24:00,
2013-02-17 15:25:00,21.8,20.6,29.34,South,180,3.0,4.0,95,0.00,,OVC100,0.00,VWS V14.01,2013-02-17 20:25:00,
2013-02-17 15:26:00,21.8,20.6,29.33,South,180,3.0,6.0,95,0.00,,OVC100,0.00,VWS V14.01,2013-02-17 20:26:00,
2013-02-17 15:27:00,21.8,20.6,29.33,NNW,338,4.0,11.0,95,0.00,,OVC100,0.00,VWS V14.01,2013-02-17 20:27:00,
2013-02-17 15:28:00,21.8,20.6,29.33,North,0,1.0,4.0,95,0.00,,OVC100,0.00,VWS V14.01,2013-02-17 20:28:00,
2013-02-17 15:29:00,21.8,20.6,29.34,South,180,2.0,10.0,95,0.00,,OVC100,0.00,VWS V14.01,2013-02-17 20:29:00,
2013-02-17 15:30:00,21.8,20.6,29.33,NW,315,5.0,12.0,95,0.00,,OVC100,0.00,VWS V14.01,2013-02-17 20:30:00,
2013-02-17 15:31:00,21.8,20.6,29.34,South,180,6.0,12.0,95,0.00,,OVC100,0.00,VWS V14.01,2013-02-17 20:31:00,
2013-02-17 15:32:00,21.8,20.6,29.34,SSE,158,1.0,3.0,95,0.00,,OVC100,0.00,VWS V14.01,2013-02-17 20:32:00,
2013-02-17 15:33:00,21.8,20.6,29.34,South,180,2.0,6.0,95,0.00,,OVC100,0.00,VWS V14.01,2013-02-17 20:33:00,
2013-02-17 15:34:00,21.8,20.6,29.34,West,270,3.0,8.0,95,0.00,,OVC100,0.00,VWS V14.01,2013-02-17 20:34:00,
2013-02-17 15:35:00,21.8,20.6,29.34,South,180,1.0,11.0,95,0.00,,OVC100,0.00,VWS V14.01,2013-02-17 20:35:00,
2013-02-17 15:36:00,21.9,20.7,29.33,South,180,4.0,10.0,95,0.00,,OVC100,0.00,VWS V14.01,2013-02-17 20:36:00,
2013-02-17 15:37:00,21.8,20.6,29.34,South,180,1.0,3.0,95,0.00,,OVC100,0.00,VWS V14.01,2013-02-17 20:37:00,
2013-02-17 15:38:00,21.8,20.6,29.34,South,180,1.0,5.0,95,0.00,,OVC100,0.00,VWS V14.01,2013-02-17 20:38:00,
2013-02-17 15:39:00,21.9,20.7,29.34,South,180,4.0,11.0,95,0.00,,OVC100,0.00,VWS V14.01,2013-02-17 20:39:00,
2013-02-17 15:40:00,21.9,20.7,29.34,South,180,5.0,7.0,95,0.00,,OVC100,0.00,VWS V14.01,2013-02-17 20:40:00,
2013-02-17 15:41:00,21.8,20.6,29.34,South,180,4.0,6.0,95,0.00,,OVC100,0.00,VWS V14.01,2013-02-17 20:41:00,
2013-02-17 15:42:00,21.8,20.6,29.34,South,180,5.0,7.0,95,0.00,,OVC100,0.00,VWS V14.01,2013-02-17 20:42:00,
2013-02-17 15:43:00,21.9,20.7,29.34,NNE,22,3.0,6.0,95,0.00,,OVC100,0.00,VWS V14.01,2013-02-17 20:43:00,
2013-02-17 15:44:00,21.9,20.7,29.34,South,180,1.0,3.0,95,0.00,,OVC100,0.00,VWS V14.01,2013-02-17 20:44:00,
2013-02-17 15:45:00,21.9,20.7,29.35,South,180,3.0,6.0,95,0.00,,OVC100,0.00,VWS V14.01,2013-02-17 20:45:00,
2013-02-17 15:46:00,21.9,20.7,29.35,South,180,4.0,7.0,95,0.00,,OVC100,0.00,VWS V14.01,2013-02-17 20:46:00,
2013-02-17 15:47:00,21.8,20.6,29.34,South,180,4.0,9.0,95,0.00,,OVC100,0.00,VWS V14.01,2013-02-17 20:47:00,
2013-02-17 15:48:00,21.8,20.6,29.35,South,180,4.0,7.0,95,0.00,,OVC100,0.00,VWS V14.01,2013-02-17 20:48:00,
2013-02-17 15:49:00,21.9,20.7,29.34,South,180,5.0,10.0,95,0.00,,OVC100,0.00,VWS V14.01,2013-02-17 20:49:00,
2013-02-17 15:50:00,21.9,20.7,29.35,South,180,5.0,8.0,95,0.00,,OVC100,0.00,VWS V14.01,2013-02-17 20:50:00,
2013-02-17 15:51:00,21.9,20.7,29.35,NW,315,2.0,14.0,95,0.00,,OVC100,0.00,VWS V14.01,2013-02-17 20:51:00,
2013-02-17 15:52:00,21.9,20.7,29.35,South,180,4.0,12.0,95,0.00,,OVC100,0.00,VWS V14.01,2013-02-17 20:52:00,
2013-02-17 15:53:00,21.9,20.7,29.35,South,180,5.0,11.0,95,0.00,,OVC100,0.00,VWS V14.01,2013-02-17 20:53:00,
2013-02-17 15:54:00,21.9,20.7,29.35,NNW,338,2.0,5.0,95,0.00,,OVC100,0.00,VWS V14.01,2013-02-17 20:54:00,
2013-02-17 15:55:00,21.9,20.7,29.35,NNE,22,2.0,4.0,95,0.00,,OVC100,0.00,VWS V14.01,2013-02-17 20:55:00,
2013-02-17 15:56:00,21.9,20.7,29.35,North,0,1.0,2.0,95,0.00,,OVC100,0.00,VWS V14.01,2013-02-17 20:56:00,
2013-02-17 15:57:00,21.9,20.7,29.35,North,0,0.0,2.0,95,0.00,,OVC100,0.00,VWS V14.01,2013-02-17 20:57:00,
2013-02-17 15:58:00,21.9,20.7,29.35,North,0,2.0,4.0,95,0.00,,OVC100,0.00,VWS V14.01,2013-02-17 20:58:00,
2013-02-17 15:59:00,21.9,20.7,29.35,South,180,1.0,3.0,95,0.00,,OVC100,0.00,VWS V14.01,2013-02-17 20:59:00,
2013-02-17 16:00:00,21.9,20.7,29.36,South,180,4.0,11.0,95,0.00,,OVC100,0.00,VWS V14.01,2013-02-17 21:00:00,
2013-02-17 16:01:00,21.9,20.7,29.36,South,180,2.0,4.0,95,0.00,,OVC100,0.00,VWS V14.01,2013-02-17 21:01:00,
2013-02-17 16:02:00,21.9,20.7,29.36,NE,45,2.0,4.0,95,0.00,,OVC100,0.00,VWS V14.01,2013-02-17 21:02:00,
2013-02-17 16:03:00,21.9,20.7,29.36,South,180,3.0,9.0,95,0.00,,OVC100,0.00,VWS V14.01,2013-02-17 21:03:00,
2013-02-17 16:04:00,21.9,20.7,29.36,North,0,4.0,10.0,95,0.00,,OVC100,0.00,VWS V14.01,2013-02-17 21:04:00,
2013-02-17 16:05:00,21.9,20.7,29.36,South,180,3.0,5.0,95,0.00,,OVC100,0.00,VWS V14.01,2013-02-17 21:05:00,
2013-02-17 16:06:00,21.9,20.7,29.36,South,180,1.0,2.0,95,0.00,,OVC100,0.00,VWS V14.01,2013-02-17 21:06:00,
2013-02-17 16:07:00,21.9,20.7,29.36,SSW,202,2.0,4.0,95,0.00,,OVC100,0.00,VWS V14.01,2013-02-17 21:07:00,
2013-02-17 16:08:00,21.9,20.7,29.36,South,180,6.0,10.0,95,0.00,,OVC100,0.00,VWS V14.01,2013-02-17 21:08:00,
2013-02-17 16:09:00,21.9,20.7,29.37,NNW,338,5.0,10.0,95,0.00,,OVC100,0.00,VWS V14.01,2013-02-17 21:09:00,
2013-02-17 16:10:00,21.9,20.7,29.36,South,180,5.0,13.0,95,0.00,,OVC100,0.00,VWS V14.01,2013-02-17 21:10:00,
2013-02-17 16:11:00,21.9,20.7,29.36,South,180,5.0,11.0,95,0.00,,OVC100,0.00,VWS V14.01,2013-02-17 21:11:00,
2013-02-17 16:12:00,21.9,20.7,29.36,South,180,7.0,16.0,95,0.00,,OVC100,0.00,VWS V14.01,2013-02-17 21:12:00,
2013-02-17 16:13:00,21.9,20.7,29.36,South,180,4.0,7.0,95,0.00,,OVC100,0.00,VWS V14.01,2013-02-17 21:13:00,
2013-02-17 16:14:00,21.9,20.7,29.36,NNW,338,2.0,4.0,95,0.00,,OVC100,0.00,VWS V14.01,2013-02-17 21:14:00,
2013-02-17 16:15:00,21.9,20.7,29.36,ESE,112,1.0,2.0,95,0.00,,OVC100,0.00,VWS V14.01,2013-02-17 21:15:00,
2013-02-17 16:16:00,21.9,20.7,29.37,South,180,4.0,7.0,95,0.00,,OVC100,0.00,VWS V14.01,2013-02-17 21:16:00,
2013-02-17 16:17:00,21.9,20.7,29.36,South,180,3.0,5.0,95,0.00,,OVC100,0.00,VWS V14.01,2013-02-17 21:17:00,
2013-02-17 16:18:00,21.9,20.7,29.37,North,0,7.0,14.0,95,0.00,,OVC100,0.00,VWS V14.01,2013-02-17 21:18:00,
2013-02-17 16:19:00,21.9,20.7,29.36,North,0,4.0,12.0,95,0.00,,OVC100,0.00,VWS V14.01,2013-02-17 21:19:00,
2013-02-17 16:20:00,21.9,20.7,29.37,South,180,8.0,15.0,95,0.00,,OVC100,0.00,VWS V14.01,2013-02-17 21:20:00,
2013-02-17 16:21:00,21.9,20.7,29.37,North,0,4.0,8.0,95,0.00,,OVC100,0.00,VWS V14.01,2013-02-17 21:21:00,
2013-02-17 16:22:00,21.9,20.7,29.37,North,0,3.0,7.0,95,0.00,,OVC100,0.00,VWS V14.01,2013-02-17 21:22:00,
2013-02-17 16:23:00,21.9,20.7,29.37,SSW,202,1.0,3.0,95,0.00,,OVC100,0.00,VWS V14.01,2013-02-17 21:23:00,
2013-02-17 16:24:00,21.9,20.7,29.37,SSE,158,3.0,8.0,95,0.00,,OVC100,0.00,VWS V14.01,2013-02-17 21:24:00,
2013-02-17 16:25:00,21.8,20.6,29.37,NNW,338,6.0,13.0,95,0.00,,OVC100,0.00,VWS V14.01,2013-02-17 21:25:00,
2013-02-17 16:26:00,21.9,20.7,29.37,North,0,4.0,7.0,95,0.00,,OVC100,0.00,VWS V14.01,2013-02-17 21:26:00,
2013-02-17 16:27:00,21.9,20.7,29.37,South,180,2.0,5.0,95,0.00,,OVC100,0.00,VWS V14.01,2013-02-17 21:27:00,
2013-02-17 16:28:00,21.9,20.7,29.37,South,180,3.0,7.0,95,0.00,,OVC100,0.00,VWS V14.01,2013-02-17 21:28:00,
2013-02-17 16:29:00,21.9,20.7,29.37,South,180,5.0,15.0,95,0.00,,OVC100,0.00,VWS V14.01,2013-02-17 21:29:00,
2013-02-17 16:30:00,21.9,20.7,29.37,South,180,5.0,10.0,95,0.00,,OVC100,0.00,VWS V14.01,2013-02-17 21:30:00,
2013-02-17 16:31:00,21.9,20.7,29.37,South,180,1.0,4.0,95,0.00,,OVC100,0.00,VWS V14.01,2013-02-17 21:31:00,
2013-02-17 16:32:00,21.8,20.6,29.38,South,180,2.0,4.0,95,0.00,,OVC100,0.00,VWS V14.01,2013-02-17 21:32:00,
2013-02-17 16:33:00,21.8,20.6,29.38,WNW,292,1.0,3.0,95,0.00,,OVC100,0.00,VWS V14.01,2013-02-17 21:33:00,
2013-02-17 16:34:00,21.9,20.7,29.38,NNE,22,1.0,3.0,95,0.00,,OVC100,0.00,VWS V14.01,2013-02-17 21:34:00,
2013-02-17 16:35:00,21.8,20.6,29.38,South,180,4.0,12.0,95,0.00,,OVC100,0.00,VWS V14.01,2013-02-17 21:35:00,
2013-02-17 16:36:00,21.9,20.7,29.38,NNE,22,5.0,12.0,95,0.00,,OVC100,0.00,VWS V14.01,2013-02-17 21:36:00,
2013-02-17 16:37:00,21.8,20.6,29.38,South,180,5.0,10.0,95,0.00,,OVC100,0.00,VWS V14.01,2013-02-17 21:37:00,
2013-02-17 16:38:00,21.8,20.6,29.38,North,0,2.0,4.0,95,0.00,,OVC100,0.00,VWS V14.01,2013-02-17 21:38:00,
2013-02-17 16:39:00,21.9,20.7,29.38,South,180,3.0,6.0,95,0.00,,OVC100,0.00,VWS V14.01,2013-02-17 21:39:00,
2013-02-17 16:40:00,21.8,20.6,29.38,South,180,1.0,4.0,95,0.00,,OVC100,0.00,VWS V14.01,2013-02-17 21:40:00,
2013-02-17 16:41:00,21.9,20.7,29.38,SW,225,0.0,1.0,95,0.00,,OVC100,0.00,VWS V14.01,2013-02-17 21:41:00,
2013-02-17 16:42:00,21.8,20.6,29.38,SW,225,2.0,4.0,95,0.00,,OVC100,0.00,VWS V14.01,2013-02-17 21:42:00,
2013-02-17 16:43:00,21.9,20.7,29.38,South,180,2.0,4.0,95,0.00,,OVC100,0.00,VWS V14.01,2013-02-17 21:43:00,
2013-02-17 16:44:00,21.8,20.6,29.38,South,180,3.0,11.0,95,0.00,,OVC100,0.00,VWS V14.01,2013-02-17 21:44:00,
2013-02-17 16:45:00,21.8,20.6,29.38,South,180,3.0,10.0,95,0.00,,OVC100,0.00,VWS V14.01,2013-02-17 21:45:00,
2013-02-17 16:46:00,21.8,20.6,29.38,East,90,4.0,10.0,95,0.00,,OVC100,0.00,VWS V14.01,2013-02-17 21:46:00,
2013-02-17 16:47:00,21.8,20.6,29.38,South,180,7.0,12.0,95,0.00,,OVC100,0.00,VWS V14.01,2013-02-17 21:47:00,
2013-02-17 16:48:00,21.8,20.6,29.38,South,180,3.0,5.0,95,0.00,,OVC100,0.00,VWS V14.01,2013-02-17 21:48:00,
2013-02-17 16:49:00,21.8,20.6,29.38,North,0,2.0,3.0,95,0.00,,OVC100,0.00,VWS V14.01,2013-02-17 21:49:00,
2013-02-17 16:50:00,21.8,20.6,29.38,South,180,6.0,10.0,95,0.00,,OVC100,0.00,VWS V14.01,2013-02-17 21:50:00,
2013-02-17 16:51:00,21.8,20.6,29.39,South,180,2.0,6.0,95,0.00,,OVC100,0.00,VWS V14.01,2013-02-17 21:51:00,
2013-02-17 16:52:00,21.8,20.6,29.39,NNE,22,1.0,5.0,95,0.00,,OVC100,0.00,VWS V14.01,2013-02-17 21:52:00,
2013-02-17 16:53:00,21.8,20.6,29.39,South,180,5.0,10.0,95,0.00,,OVC100,0.00,VWS V14.01,2013-02-17 21:53:00,
2013-02-17 16:54:00,21.8,20.6,29.38,South,180,3.0,6.0,95,0.00,,OVC100,0.00,VWS V14.01,2013-02-17 21:54:00,
2013-02-17 16:55:00,21.8,20.6,29.38,South,180,5.0,7.0,95,0.00,,OVC100,0.00,VWS V14.01,2013-02-17 21:55:00,
2013-02-17 16:56:00,21.8,20.6,29.39,South,180,2.0,5.0,95,0.00,,OVC100,0.00,VWS V14.01,2013-02-17 21:56:00,
2013-02-17 16:57:00,21.8,20.6,29.39,NNE,22,2.0,7.0,95,0.00,,OVC100,0.00,VWS V14.01,2013-02-17 21:57:00,
2013-02-17 16:58:00,21.8,20.6,29.39,South,180,5.0,14.0,95,0.00,,OVC100,0.00,VWS V14.01,2013-02-17 21:58:00,
2013-02-17 16:59:00,21.8,20.6,29.40,North,0,5.0,11.0,95,0.00,,OVC100,0.00,VWS V14.01,2013-02-17 21:59:00,
2013-02-17 17:00:00,21.8,20.6,29.39,South,180,5.0,10.0,95,0.00,,OVC100,0.00,VWS V14.01,2013-02-17 22:00:00,
2013-02-17 17:01:00,21.8,20.6,29.39,South,180,1.0,3.0,95,0.00,,OVC100,0.00,VWS V14.01,2013-02-17 22:01:00,
2013-02-17 17:02:00,21.8,20.6,29.39,South,180,2.0,4.0,95,0.00,,OVC100,0.00,VWS V14.01,2013-02-17 22:02:00,
2013-02-17 17:03:00,21.8,20.6,29.39,South,180,4.0,10.0,95,0.00,,OVC100,0.00,VWS V14.01,2013-02-17 22:03:00,
2013-02-17 17:04:00,21.8,20.6,29.39,South,180,5.0,15.0,95,0.00,,OVC100,0.00,VWS V14.01,2013-02-17 22:04:00,
2013-02-17 17:05:00,21.8,20.6,29.39,South,180,5.0,10.0,95,0.00,,OVC100,0.00,VWS V14.01,2013-02-17 22:05:00,
2013-02-17 17:06:00,21.8,20.6,29.39,SSW,202,2.0,3.0,95,0.00,,OVC100,0.00,VWS V14.01,2013-02-17 22:06:00,
2013-02-17 17:07:00,21.8,20.6,29.39,South,180,5.0,11.0,95,0.00,,OVC100,0.00,VWS V14.01,2013-02-17 22:07:00,
2013-02-17 17:08:00,21.8,20.6,29.40,North,0,3.0,6.0,95,0.00,,OVC100,0.00,VWS V14.01,2013-02-17 22:08:00,
2013-02-17 17:09:00,21.8,20.6,29.40,North,0,2.0,6.0,95,0.00,,OVC100,0.00,VWS V14.01,2013-02-17 22:09:00,
2013-02-17 17:10:00,21.8,20.6,29.40,South,180,5.0,9.0,95,0.00,,OVC100,0.00,VWS V14.01,2013-02-17 22:10:00,
2013-02-17 17:11:00,21.8,20.6,29.40,South,180,4.0,6.0,95,0.00,,OVC100,0.00,VWS V14.01,2013-02-17 22:11:00,
2013-02-17 17:12:00,21.8,20.6,29.40,SSW,202,1.0,3.0,95,0.00,,OVC100,0.00,VWS V14.01,2013-02-17 22:12:00,
2013-02-17 17:13:00,21.8,20.6,29.40,South,180,3.0,7.0,95,0.00,,OVC100,0.00,VWS V14.01,2013-02-17 22:13:00,
2013-02-17 17:14:00,21.8,20.6,29.40,NNW,338,2.0,10.0,95,0.00,,OVC100,0.00,VWS V14.01,2013-02-17 22:14:00,
2013-02-17 17:15:00,21.8,20.6,29.40,North,0,5.0,11.0,95,0.00,,OVC100,0.00,VWS V14.01,2013-02-17 22:15:00,
2013-02-17 17:16:00,21.8,20.6,29.40,South,180,2.0,7.0,95,0.00,,OVC100,0.00,VWS V14.01,2013-02-17 22:16:00,
2013-02-17 17:17:00,21.8,20.6,29.40,NNW,338,3.0,5.0,95,0.00,,OVC100,0.00,VWS V14.01,2013-02-17 22:17:00,
2013-02-17 17:18:00,21.8,20.6,29.40,North,0,3.0,6.0,95,0.00,,OVC100,0.00,VWS V14.01,2013-02-17 22:18:00,
2013-02-17 17:19:00,21.8,20.6,29.40,South,180,2.0,4.0,95,0.00,,OVC100,0.00,VWS V14.01,2013-02-17 22:19:00,
2013-02-17 17:20:00,21.8,20.6,29.41,South,180,3.0,5.0,95,0.00,,OVC100,0.00,VWS V14.01,2013-02-17 22:20:00,
2013-02-17 17:21:00,21.8,20.6,29.40,NNE,22,1.0,3.0,95,0.00,,OVC100,0.00,VWS V14.01,2013-02-17 22:21:00,
2013-02-17 17:22:00,21.8,20.6,29.41,NNW,338,2.0,4.0,95,0.00,,OVC100,0.00,VWS V14.01,2013-02-17 22:22:00,
2013-02-17 17:23:00,21.8,20.6,29.40,ESE,112,3.0,6.0,95,0.00,,OVC100,0.00,VWS V14.01,2013-02-17 22:23:00,
2013-02-17 17:24:00,21.8,20.6,29.41,NNE,22,3.0,4.0,95,0.00,,OVC100,0.00,VWS V14.01,2013-02-17 22:24:00,
2013-02-17 17:25:00,21.7,20.5,29.41,South,180,3.0,9.0,95,0.00,,OVC100,0.00,VWS V14.01,2013-02-17 22:25:00,
2013-02-17 17:26:00,21.7,20.5,29.41,South,180,4.0,7.0,95,0.00,,OVC100,0.00,VWS V14.01,2013-02-17 22:26:00,
2013-02-17 17:27:00,21.7,20.5,29.41,South,180,2.0,6.0,95,0.00,,OVC100,0.00,VWS V14.01,2013-02-17 22:27:00,
2013-02-17 17:28:00,21.7,20.5,29.40,South,180,4.0,10.0,95,0.00,,OVC100,0.00,VWS V14.01,2013-02-17 22:28:00,
2013-02-17 17:29:00,21.7,20.5,29.41,SSE,158,3.0,5.0,95,0.00,,OVC100,0.00,VWS V14.01,2013-02-17 22:29:00,
2013-02-17 17:30:00,21.7,20.5,29.41,SSW,202,2.0,4.0,95,0.00,,OVC100,0.00,VWS V14.01,2013-02-17 22:30:00,
2013-02-17 17:31:00,21.7,20.5,29.41,North,0,3.0,10.0,95,0.00,,OVC100,0.00,VWS V14.01,2013-02-17 22:31:00,
2013-02-17 17:32:00,21.7,20.5,29.41,South,180,6.0,12.0,95,0.00,,OVC100,0.00,VWS V14.01,2013-02-17 22:32:00,
2013-02-17 17:33:00,21.7,20.5,29.41,South,180,6.0,10.0,95,0.00,,OVC100,0.00,VWS V14.01,2013-02-17 22:33:00,
2013-02-17 17:34:00,21.7,20.5,29.41,North,0,2.0,5.0,95,0.00,,OVC100,0.00,VWS V14.01,2013-02-17 22:34:00,
2013-02-17 17:35:00,21.7,20.5,29.41,ENE,68,3.0,5.0,95,0.00,,OVC100,0.00,VWS V14.01,2013-02-17 22:35:00,
2013-02-17 17:36:00,21.7,20.5,29.41,South,180,4.0,12.0,95,0.00,,OVC100,0.00,VWS V14.01,2013-02-17 22:36:00,
2013-02-17 17:37:00,21.7,20.5,29.41,South,180,1.0,3.0,95,0.00,,OVC100,0.00,VWS V14.01,2013-02-17 22:37:00,
2013-02-17 17:38:00,21.7,20.5,29.41,South,180,3.0,4.0,95,0.00,,OVC100,0.00,VWS V14.01,2013-02-17 22:38:00,
2013-02-17 17:39:00,21.7,20.5,29.41,South,180,4.0,7.0,95,0.00,,OVC100,0.00,VWS V14.01,2013-02-17 22:39:00,
2013-02-17 17:40:00,21.7,20.5,29.41,NNW,338,3.0,10.0,95,0.00,,OVC100,0.00,VWS V14.01,2013-02-17 22:40:00,
2013-02-17 17:41:00,21.7,20.5,29.41,SSW,202,2.0,3.0,95,0.00,,OVC100,0.00,VWS V14.01,2013-02-17 22:41:00,
2013-02-17 17:42:00,21.7,20.5,29.41,South,180,2.0,7.0,95,0.00,,OVC100,0.00,VWS V14.01,2013-02-17 22:42:00,
2013-02-17 17:43:00,21.7,20.5,29.41,South,180,4.0,12.0,95,0.00,,OVC100,0.00,VWS V14.01,2013-02-17 22:43:00,
2013-02-17 17:44:00,21.7,20.5,29.41,South,180,2.0,3.0,95,0.00,,OVC100,0.00,VWS V14.01,2013-02-17 22:44:00,
2013-02-17 17:45:00,21.7,20.5,29.42,North,0,3.0,9.0,95,0.00,,OVC100,0.00,VWS V14.01,2013-02-17 22:45:00,
2013-02-17 17:46:00,21.7,20.5,29.42,NNW,338,4.0,11.0,95,0.00,,OVC100,0.00,VWS V14.01,2013-02-17 22:46:00,
2013-02-17 17:47:00,21.7,20.5,29.41,South,180,4.0,6.0,95,0.00,,OVC100,0.00,VWS V14.01,2013-02-17 22:47:00,
2013-02-17 17:48:00,21.7,20.5,29.42,South,180,1.0,3.0,95,0.00,,OVC100,0.00,VWS V14.01,2013-02-17 22:48:00,
2013-02-17 17:49:00,21.7,20.5,29.42,South,180,1.0,1.0,95,0.00,,OVC100,0.00,VWS V14.01,2013-02-17 22:49:00,
2013-02-17 17:50:00,21.7,20.5,29.42,NNE,22,3.0,5.0,95,0.00,,OVC100,0.00,VWS V14.01,2013-02-17 22:50:00,
2013-02-17 17:51:00,21.7,20.5,29.41,South,180,2.0,5.0,95,0.00,,OVC100,0.00,VWS V14.01,2013-02-17 22:51:00,
2013-02-17 17:52:00,21.7,20.5,29.42,SSW,202,1.0,2.0,95,0.00,,OVC100,0.00,VWS V14.01,2013-02-17 22:52:00,
2013-02-17 17:53:00,21.7,20.5,29.42,South,180,3.0,7.0,95,0.00,,OVC100,0.00,VWS V14.01,2013-02-17 22:53:00,
2013-02-17 17:54:00,21.7,20.5,29.42,North,0,2.0,5.0,95,0.00,,OVC100,0.00,VWS V14.01,2013-02-17 22:54:00,
2013-02-17 17:55:00,21.7,20.5,29.42,South,180,3.0,9.0,95,0.00,,OVC100,0.00,VWS V14.01,2013-02-17 22:55:00,
2013-02-17 17:56:00,21.6,20.4,29.42,South,180,3.0,9.0,95,0.00,,OVC100,0.00,VWS V14.01,2013-02-17 22:56:00,
2013-02-17 17:57:00,21.6,20.4,29.42,South,180,0.0,1.0,95,0.00,,OVC100,0.00,VWS V14.01,2013-02-17 22:57:00,
2013-02-17 17:58:00,21.6,20.4,29.42,North,0,3.0,10.0,95,0.00,,OVC100,0.00,VWS V14.01,2013-02-17 22:58:00,
2013-02-17 17:59:00,21.6,20.4,29.42,South,180,3.0,15.0,95,0.00,,OVC100,0.00,VWS V14.01,2013-02-17 22:59:00,
2013-02-17 18:00:00,21.6,20.4,29.42,South,180,8.0,13.0,95,0.00,,OVC100,0.00,VWS V14.01,2013-02-17 23:00:00,
2013-02-17 18:01:00,21.6,20.4,29.42,South,180,2.0,5.0,95,0.00,,OVC100,0.00,VWS V14.01,2013-02-17 23:01:00,
2013-02-17 18:02:00,21.6,20.4,29.42,SSW,202,3.0,6.0,95,0.00,,OVC100,0.00,VWS V14.01,2013-02-17 23:02:00,
2013-02-17 18:03:00,21.6,20.4,29.42,North,0,2.0,4.0,95,0.00,,OVC100,0.00,VWS V14.01,2013-02-17 23:03:00,
2013-02-17 18:04:00,21.6,20.4,29.42,South,180,2.0,5.0,95,0.00,,OVC100,0.00,VWS V14.01,2013-02-17 23:04:00,
2013-02-17 18:05:00,21.6,20.4,29.42,South,180,3.0,6.0,95,0.00,,OVC100,0.00,VWS V14.01,2013-02-17 23:05:00,
2013-02-17 18:06:00,21.6,20.4,29.42,NNW,338,4.0,9.0,95,0.00,,OVC100,0.00,VWS V14.01,2013-02-17 23:06:00,
2013-02-17 18:07:00,21.6,20.4,29.42,NNW,338,2.0,5.0,95,0.00,,OVC100,0.00,VWS V14.01,2013-02-17 23:07:00,
2013-02-17 18:08:00,21.6,20.4,29.42,North,0,3.0,6.0,95,0.00,,OVC100,0.00,VWS V14.01,2013-02-17 23:08:00,
2013-02-17 18:09:00,21.6,20.4,29.42,South,180,3.0,7.0,95,0.00,,OVC100,0.00,VWS V14.01,2013-02-17 23:09:00,
2013-02-17 18:10:00,21.6,20.4,29.42,SSW,202,3.0,5.0,95,0.00,,OVC100,0.00,VWS V14.01,2013-02-17 23:10:00,
2013-02-17 18:11:00,21.6,20.4,29.42,South,180,5.0,9.0,95,0.00,,OVC100,0.00,VWS V14.01,2013-02-17 23:11:00,
2013-02-17 18:12:00,21.6,20.4,29.41,South,180,4.0,12.0,95,0.00,,OVC100,0.00,VWS V14.01,2013-02-17 23:12:00,
2013-02-17 18:13:00,21.6,20.4,29.42,South,180,3.0,4.0,95,0.00,,OVC100,0.00,VWS V14.01,2013-02-17 23:13:00,
2013-02-17 18:14:00,21.6,20.4,29.42,South,180,4.0,6.0,95,0.00,,OVC100,0.00,VWS V14.01,2013-02-17 23:14:00,
2013-02-17 18:15:00,21.6,20.4,29.42,South,180,4.0,11.0,95,0.00,,OVC100,0.00,VWS V14.01,2013-02-17 23:15:00,
2013-02-17 18:16:00,21.6,20.4,29.42,South,180,4.0,7.0,95,0.00,,OVC100,0.00,VWS V14.01,2013-02-17 23:16:00,
2013-02-17 18:17:00,21.6,20.4,29.41,South,180,2.0,5.0,95,0.00,,OVC100,0.00,VWS V14.01,2013-02-17 23:17:00,
2013-02-17 18:18:00,21.6,20.4,29.42,South,180,5.0,7.0,95,0.00,,OVC100,0.00,VWS V14.01,2013-02-17 23:18:00,
2013-02-17 18:19:00,21.6,20.4,29.42,South,180,3.0,5.0,95,0.00,,OVC100,0.00,VWS V14.01,2013-02-17 23:19:00,
2013-02-17 18:20:00,21.6,20.4,29.42,North,0,3.0,10.0,95,0.00,,OVC100,0.00,VWS V14.01,2013-02-17 23:20:00,
2013-02-17 18:21:00,21.6,20.4,29.42,South,180,3.0,7.0,95,0.00,,OVC100,0.00,VWS V14.01,2013-02-17 23:21:00,
2013-02-17 18:22:00,21.6,20.4,29.42,South,180,2.0,5.0,95,0.00,,OVC100,0.00,VWS V14.01,2013-02-17 23:22:00,
2013-02-17 18:23:00,21.6,20.4,29.42,South,180,1.0,3.0,95,0.00,,OVC100,0.00,VWS V14.01,2013-02-17 23:23:00,
2013-02-17 18:24:00,21.5,20.3,29.42,South,180,4.0,10.0,95,0.00,,OVC100,0.00,VWS V14.01,2013-02-17 23:24:00,
2013-02-17 18:25:00,21.6,20.4,29.42,South,180,3.0,5.0,95,0.00,,OVC100,0.00,VWS V14.01,2013-02-17 23:25:00,
2013-02-17 18:26:00,21.5,20.3,29.42,NNW,338,3.0,6.0,95,0.00,,OVC100,0.00,VWS V14.01,2013-02-17 23:26:00,
2013-02-17 18:27:00,21.5,20.3,29.42,NNW,338,4.0,9.0,95,0.00,,OVC100,0.00,VWS V14.01,2013-02-17 23:27:00,
2013-02-17 18:28:00,21.5,20.3,29.42,South,180,3.0,5.0,95,0.00,,OVC100,0.00,VWS V14.01,2013-02-17 23:28:00,
2013-02-17 18:29:00,21.5,20.3,29.42,South,180,4.0,6.0,95,0.00,,OVC100,0.00,VWS V14.01,2013-02-17 23:29:00,
2013-02-17 18:30:00,21.5,20.3,29.42,South,180,3.0,13.0,95,0.00,,OVC100,0.00,VWS V14.01,2013-02-17 23:30:00,
2013-02-17 18:31:00,21.5,20.3,29.42,SSE,158,2.0,5.0,95,0.00,,OVC100,0.00,VWS V14.01,2013-02-17 23:31:00,
2013-02-17 18:32:00,21.5,20.3,29.42,North,0,1.0,3.0,95,0.00,,OVC100,0.00,VWS V14.01,2013-02-17 23:32:00,
2013-02-17 18:33:00,21.5,20.3,29.42,South,180,3.0,7.0,95,0.00,,OVC100,0.00,VWS V14.01,2013-02-17 23:33:00,
2013-02-17 18:34:00,21.5,20.3,29.42,South,180,3.0,10.0,95,0.00,,OVC100,0.00,VWS V14.01,2013-02-17 23:34:00,
2013-02-17 18:35:00,21.5,20.3,29.42,South,180,5.0,7.0,95,0.00,,OVC100,0.00,VWS V14.01,2013-02-17 23:35:00,
2013-02-17 18:36:00,21.5,20.3,29.42,NNW,338,5.0,9.0,95,0.00,,OVC100,0.00,VWS V14.01,2013-02-17 23:36:00,
2013-02-17 18:37:00,21.5,20.3,29.42,NNW,338,3.0,7.0,95,0.00,,OVC100,0.00,VWS V14.01,2013-02-17 23:37:00,
2013-02-17 18:38:00,21.5,20.3,29.42,SSE,158,3.0,7.0,95,0.00,,OVC100,0.00,VWS V14.01,2013-02-17 23:38:00,
2013-02-17 18:39:00,21.5,20.3,29.42,North,0,2.0,4.0,95,0.00,,OVC100,0.00,VWS V14.01,2013-02-17 23:39:00,
2013-02-17 18:40:00,21.5,20.3,29.42,South,180,3.0,10.0,95,0.00,,OVC100,0.00,VWS V14.01,2013-02-17 23:40:00,
2013-02-17 18:41:00,21.5,20.3,29.42,South,180,3.0,12.0,95,0.00,,OVC100,0.00,VWS V14.01,2013-02-17 23:41:00,
2013-02-17 18:42:00,21.5,20.3,29.42,South,180,4.0,7.0,95,0.00,,OVC100,0.00,VWS V14.01,2013-02-17 23:42:00,
2013-02-17 18:43:00,21.5,20.3,29.42,ESE,112,2.0,5.0,95,0.00,,OVC100,0.00,VWS V14.01,2013-02-17 23:43:00,
2013-02-17 18:44:00,21.5,20.3,29.42,NNW,338,2.0,4.0,95,0.00,,OVC100,0.00,VWS V14.01,2013-02-17 23:44:00,
2013-02-17 18:45:00,21.5,20.3,29.42,South,180,4.0,10.0,95,0.00,,OVC100,0.00,VWS V14.01,2013-02-17 23:45:00,
2013-02-17 18:46:00,21.5,20.3,29.42,South,180,2.0,4.0,95,0.00,,OVC100,0.00,VWS V14.01,2013-02-17 23:46:00,
2013-02-17 18:47:00,21.5,20.3,29.42,South,180,5.0,13.0,95,0.00,,OVC100,0.00,VWS V14.01,2013-02-17 23:47:00,
2013-02-17 18:48:00,21.5,20.3,29.42,South,180,1.0,2.0,95,0.00,,OVC100,0.00,VWS V14.01,2013-02-17 23:48:00,
2013-02-17 18:49:00,21.5,20.3,29.42,SSE,158,1.0,6.0,95,0.00,,OVC100,0.00,VWS V14.01,2013-02-17 23:49:00,
2013-02-17 18:50:00,21.4,20.2,29.42,SE,135,0.0,1.0,95,0.00,,OVC100,0.00,VWS V14.01,2013-02-17 23:50:00,
2013-02-17 18:51:00,21.4,20.2,29.42,South,180,2.0,9.0,95,0.00,,OVC100,0.00,VWS V14.01,2013-02-17 23:51:00,
2013-02-17 18:52:00,21.4,20.2,29.42,South,180,1.0,4.0,95,0.00,,OVC100,0.00,VWS V14.01,2013-02-17 23:52:00,
2013-02-17 18:53:00,21.4,20.2,29.42,South,180,1.0,2.0,95,0.00,,OVC100,0.00,VWS V14.01,2013-02-17 23:53:00,
2013-02-17 18:54:00,21.4,20.2,29.42,South,180,0.0,3.0,95,0.00,,OVC100,0.00,VWS V14.01,2013-02-17 23:54:00,
2013-02-17 18:55:00,21.4,20.2,29.42,South,180,5.0,12.0,95,0.00,,OVC100,0.00,VWS V14.01,2013-02-17 23:55:00,
2013-02-17 18:56:00,21.4,20.2,29.42,South,180,5.0,10.0,95,0.00,,OVC100,0.00,VWS V14.01,2013-02-17 23:56:00,
2013-02-17 18:57:00,21.4,20.2,29.42,North,0,3.0,10.0,95,0.00,,OVC100,0.00,VWS V14.01,2013-02-17 23:57:00,
2013-02-17 18:58:00,21.4,20.2,29.42,NNE,22,1.0,4.0,95,0.00,,OVC100,0.00,VWS V14.01,2013-02-17 23:58:00,
2013-02-17 18:59:00,21.4,20.2,29.42,South,180,2.0,5.0,95,0.00,,OVC100,0.00,VWS V14.01,2013-02-17 23:59:00,
2013-02-17 19:00:00,21.4,20.2,29.42,South,180,3.0,6.0,95,0.00,,OVC100,0.00,VWS V14.01,2013-02-18 00:00:00,
2013-02-17 19:01:00,21.4,20.2,29.42,South,180,3.0,5.0,95,0.00,,OVC100,0.00,VWS V14.01,2013-02-18 00:01:00,
2013-02-17 19:02:00,21.4,20.2,29.42,South,180,2.0,3.0,95,0.00,,OVC100,0.00,VWS V14.01,2013-02-18 00:02:00,
2013-02-17 19:03:00,21.4,20.2,29.42,South,180,3.0,6.0,95,0.00,,OVC100,0.00,VWS V14.01,2013-02-18 00:03:00,
2013-02-17 19:04:00,21.3,20.1,29.42,South,180,4.0,9.0,95,0.00,,OVC100,0.00,VWS V14.01,2013-02-18 00:04:00,
2013-02-17 19:05:00,21.3,20.1,29.42,South,180,5.0,13.0,95,0.00,,OVC100,0.00,VWS V14.01,2013-02-18 00:05:00,
2013-02-17 19:06:00,21.3,20.1,29.42,SSE,158,3.0,9.0,95,0.00,,OVC100,0.00,VWS V14.01,2013-02-18 00:06:00,
2013-02-17 19:07:00,21.3,20.1,29.42,South,180,3.0,8.0,95,0.00,,OVC100,0.00,VWS V14.01,2013-02-18 00:07:00,
2013-02-17 19:08:00,21.3,20.1,29.42,NNW,338,5.0,14.0,95,0.00,,OVC100,0.00,VWS V14.01,2013-02-18 00:08:00,
2013-02-17 19:09:00,21.3,20.1,29.42,NNE,22,4.0,9.0,95,0.00,,OVC100,0.00,VWS V14.01,2013-02-18 00:09:00,
2013-02-17 19:10:00,21.3,20.1,29.42,South,180,4.0,6.0,95,0.00,,OVC100,0.00,VWS V14.01,2013-02-18 00:10:00,
2013-02-17 19:11:00,21.3,20.1,29.42,South,180,4.0,6.0,95,0.00,,OVC100,0.00,VWS V14.01,2013-02-18 00:11:00,
2013-02-17 19:12:00,21.3,20.1,29.42,South,180,3.0,8.0,95,0.00,,OVC100,0.00,VWS V14.01,2013-02-18 00:12:00,
2013-02-17 19:13:00,21.3,20.1,29.42,South,180,9.0,22.0,95,0.00,,OVC100,0.00,VWS V14.01,2013-02-18 00:13:00,
2013-02-17 19:14:00,21.3,20.1,29.42,North,0,3.0,10.0,95,0.00,,OVC100,0.00,VWS V14.01,2013-02-18 00:14:00,
2013-02-17 19:15:00,21.3,20.1,29.42,NNW,338,2.0,7.0,95,0.00,,OVC100,0.00,VWS V14.01,2013-02-18 00:15:00,
2013-02-17 19:16:00,21.3,20.1,29.42,South,180,6.0,10.0,95,0.00,,OVC100,0.00,VWS V14.01,2013-02-18 00:16:00,
2013-02-17 19:17:00,21.3,20.1,29.42,SSE,158,2.0,6.0,95,0.00,,OVC100,0.00,VWS V14.01,2013-02-18 00:17:00,
2013-02-17 19:18:00,21.3,20.1,29.42,South,180,2.0,3.0,95,0.00,,OVC100,0.00,VWS V14.01,2013-02-18 00:18:00,
2013-02-17 19:19:00,21.3,20.1,29.42,South,180,3.0,5.0,95,0.00,,OVC100,0.00,VWS V14.01,2013-02-18 00:19:00,
2013-02-17 19:20:00,21.3,20.1,29.42,South,180,5.0,7.0,95,0.00,,OVC100,0.00,VWS V14.01,2013-02-18 00:20:00,
2013-02-17 19:21:00,21.3,20.1,29.42,NNW,338,3.0,7.0,95,0.00,,OVC100,0.00,VWS V14.01,2013-02-18 00:21:00,
2013-02-17 19:22:00,21.3,20.1,29.42,SSE,158,0.0,3.0,95,0.00,,OVC100,0.00,VWS V14.01,2013-02-18 00:22:00,
2013-02-17 19:23:00,21.3,20.1,29.42,South,180,5.0,10.0,95,0.00,,OVC100,0.00,VWS V14.01,2013-02-18 00:23:00,
2013-02-17 19:24:00,21.3,20.1,29.42,NNW,338,3.0,5.0,95,0.00,,OVC100,0.00,VWS V14.01,2013-02-18 00:24:00,
2013-02-17 19:25:00,21.3,20.1,29.42,South,180,3.0,5.0,95,0.00,,OVC100,0.00,VWS V14.01,2013-02-18 00:25:00,
2013-02-17 19:26:00,21.3,20.1,29.42,South,180,2.0,4.0,95,0.00,,OVC100,0.00,VWS V14.01,2013-02-18 00:26:00,
2013-02-17 19:27:00,21.3,20.1,29.42,South,180,4.0,10.0,95,0.00,,OVC100,0.00,VWS V14.01,2013-02-18 00:27:00,
2013-02-17 19:28:00,21.3,20.1,29.43,North,0,2.0,5.0,95,0.00,,OVC100,0.00,VWS V14.01,2013-02-18 00:28:00,
2013-02-17 19:29:00,21.3,20.1,29.42,South,180,4.0,10.0,95,0.00,,OVC100,0.00,VWS V14.01,2013-02-18 00:29:00,
2013-02-17 19:36:00,21.2,20.0,29.43,North,360,0.0,3.0,95,0.00,,OVC100,0.00,VWS V14.01,2013-02-18 00:36:00,
2013-02-17 19:37:00,21.2,20.0,29.43,North,360,1.0,2.0,95,0.00,,OVC100,0.00,VWS V14.01,2013-02-18 00:37:00,
2013-02-17 19:39:00,21.2,20.0,29.42,NNW,338,3.0,7.0,95,0.00,,OVC100,0.00,VWS V14.01,2013-02-18 00:39:00,
2013-02-17 19:44:00,21.2,20.0,29.43,South,186,4.0,5.0,95,0.00,,OVC100,0.00,VWS V14.01,2013-02-18 00:44:00,
2013-02-17 19:49:00,21.1,19.9,29.42,SSW,211,2.0,2.0,95,0.00,,OVC100,0.00,VWS V14.01,2013-02-18 00:49:00,
2013-02-17 19:54:00,21.1,19.9,29.43,South,171,2.0,6.0,95,0.00,,OVC100,0.00,VWS V14.01,2013-02-18 00:54:00,
2013-02-17 19:59:00,21.1,19.9,29.43,South,190,3.0,9.0,95,0.00,,OVC085,0.00,VWS V14.01,2013-02-18 00:59:00,
2013-02-17 20:04:00,21.1,19.9,29.43,South,172,6.0,6.0,95,0.00,,OVC085,0.00,VWS V14.01,2013-02-18 01:04:00,
2013-02-17 20:09:00,21.1,19.9,29.44,South,180,12.0,12.0,95,0.00,,OVC085,0.00,VWS V14.01,2013-02-18 01:09:00,
2013-02-17 20:14:00,21.0,19.8,29.44,South,175,5.0,6.0,95,0.00,,OVC085,0.00,VWS V14.01,2013-02-18 01:14:00,
2013-02-17 20:19:00,21.0,19.8,29.44,SSW,193,2.0,5.0,95,0.00,,OVC085,0.00,VWS V14.01,2013-02-18 01:19:00,
2013-02-17 20:24:00,20.9,19.7,29.45,North,349,3.0,5.0,95,0.00,,OVC085,0.00,VWS V14.01,2013-02-18 01:24:00,
2013-02-17 20:29:00,20.9,19.7,29.45,SSE,167,4.0,9.0,95,0.00,,OVC085,0.00,VWS V14.01,2013-02-18 01:29:00,
2013-02-17 20:34:00,20.9,19.5,29.46,South,171,12.0,12.0,94,0.00,,OVC085,0.00,VWS V14.01,2013-02-18 01:34:00,
2013-02-17 20:39:00,20.8,19.4,29.46,WNW,284,3.0,12.0,94,0.00,,OVC085,0.00,VWS V14.01,2013-02-18 01:39:00,
2013-02-17 20:44:00,20.8,19.6,29.46,West,263,1.0,4.0,95,0.00,,OVC085,0.00,VWS V14.01,2013-02-18 01:44:00,
2013-02-17 20:49:00,20.8,19.6,29.47,South,178,3.0,9.0,95,0.00,,OVC085,0.00,VWS V14.01,2013-02-18 01:49:00,
2013-02-17 20:54:00,20.7,19.5,29.47,South,173,2.0,2.0,95,0.00,,OVC085,0.00,VWS V14.01,2013-02-18 01:54:00,
2013-02-17 20:59:00,20.7,19.5,29.47,SSW,193,0.0,2.0,95,0.00,,OVC120,0.00,VWS V14.01,2013-02-18 01:59:00,
2013-02-17 21:04:00,20.7,19.5,29.47,South,191,2.0,2.0,95,0.00,,OVC120,0.00,VWS V14.01,2013-02-18 02:04:00,
2013-02-17 21:09:00,20.6,19.4,29.47,ENE,63,2.0,4.0,95,0.00,,OVC120,0.00,VWS V14.01,2013-02-18 02:09:00,
2013-02-17 21:14:00,20.6,19.4,29.47,North,5,4.0,7.0,95,0.00,,OVC120,0.00,VWS V14.01,2013-02-18 02:14:00,
2013-02-17 21:19:00,20.6,19.4,29.48,South,174,1.0,3.0,95,0.00,,OVC120,0.00,VWS V14.01,2013-02-18 02:19:00,
2013-02-17 21:24:00,20.5,19.0,29.48,West,279,0.0,1.0,94,0.00,,OVC120,0.00,VWS V14.01,2013-02-18 02:24:00,
2013-02-17 21:29:00,20.5,19.0,29.49,South,175,3.0,4.0,94,0.00,,OVC120,0.00,VWS V14.01,2013-02-18 02:29:00,
2013-02-17 21:34:00,20.5,19.0,29.49,South,185,1.0,4.0,94,0.00,,OVC120,0.00,VWS V14.01,2013-02-18 02:34:00,
2013-02-17 21:39:00,20.4,19.0,29.49,NE,40,2.0,10.0,94,0.00,,OVC120,0.00,VWS V14.01,2013-02-18 02:39:00,
2013-02-17 21:44:00,20.4,19.0,29.50,South,182,2.0,2.0,94,0.00,,OVC120,0.00,VWS V14.01,2013-02-18 02:44:00,
2013-02-17 21:49:00,20.4,19.0,29.50,SSE,161,1.0,3.0,94,0.00,,OVC120,0.00,VWS V14.01,2013-02-18 02:49:00,
2013-02-17 21:54:00,20.3,18.9,29.50,SSE,165,10.0,16.0,94,0.00,,OVC120,0.00,VWS V14.01,2013-02-18 02:54:00,
2013-02-17 21:59:00,20.3,18.9,29.51,SSE,157,1.0,4.0,94,0.00,,OVC120,0.00,VWS V14.01,2013-02-18 02:59:00,
2013-02-17 22:04:00,20.3,18.9,29.51,SE,140,1.0,4.0,94,0.00,,OVC120,0.00,VWS V14.01,2013-02-18 03:04:00,
2013-02-17 22:09:00,20.2,18.8,29.51,South,173,1.0,2.0,94,0.00,,OVC120,0.00,VWS V14.01,2013-02-18 03:09:00,
2013-02-17 22:14:00,20.2,18.8,29.52,South,177,2.0,6.0,94,0.00,,OVC120,0.00,VWS V14.01,2013-02-18 03:14:00,
2013-02-17 22:19:00,20.2,18.8,29.52,South,174,2.0,7.0,94,0.00,,OVC120,0.00,VWS V14.01,2013-02-18 03:19:00,
2013-02-17 22:24:00,20.1,18.6,29.52,South,169,0.0,1.0,94,0.00,,OVC120,0.00,VWS V14.01,2013-02-18 03:24:00,
2013-02-17 22:29:00,20.0,18.5,29.53,ESE,105,6.0,9.0,94,0.00,,OVC120,0.00,VWS V14.01,2013-02-18 03:29:00,
2013-02-17 22:34:00,20.0,18.5,29.53,NNW,327,2.0,3.0,94,0.00,,OVC120,0.00,VWS V14.01,2013-02-18 03:34:00,
2013-02-17 22:39:00,20.0,18.5,29.53,South,172,3.0,6.0,94,0.00,,OVC120,0.00,VWS V14.01,2013-02-18 03:39:00,
2013-02-17 22:44:00,19.9,18.5,29.53,SSE,158,1.0,1.0,94,0.00,,OVC120,0.00,VWS V14.01,2013-02-18 03:44:00,
2013-02-17 22:49:00,19.9,18.5,29.54,NNW,340,3.0,4.0,94,0.00,,OVC120,0.00,VWS V14.01,2013-02-18 03:49:00,
2013-02-17 22:54:00,19.8,18.4,29.54,SSE,168,1.0,3.0,94,0.00,,OVC120,0.00,VWS V14.01,2013-02-18 03:54:00,
2013-02-17 22:59:00,19.7,18.3,29.54,South,175,2.0,4.0,94,0.00,,OVC120,0.00,VWS V14.01,2013-02-18 03:59:00,
2013-02-17 23:04:00,19.7,18.3,29.54,South,178,4.0,6.0,94,0.00,,OVC095,0.00,VWS V14.01,2013-02-18 04:04:00,
2013-02-17 23:09:00,19.7,18.3,29.55,WNW,290,1.0,2.0,94,0.00,,OVC095,0.00,VWS V14.01,2013-02-18 04:09:00,
2013-02-17 23:14:00,19.7,18.3,29.55,South,182,0.0,2.0,94,0.00,,OVC095,0.00,VWS V14.01,2013-02-18 04:14:00,
2013-02-17 23:19:00,19.7,18.3,29.55,NNE,22,1.0,1.0,94,0.00,,OVC095,0.00,VWS V14.01,2013-02-18 04:19:00,
2013-02-17 23:24:00,19.7,18.3,29.55,SSE,161,0.0,1.0,94,0.00,,OVC095,0.00,VWS V14.01,2013-02-18 04:24:00,
2013-02-17 23:29:00,19.7,18.3,29.55,South,170,2.0,3.0,94,0.00,,OVC095,0.00,VWS V14.01,2013-02-18 04:29:00,
2013-02-17 23:34:00,19.6,18.2,29.56,South,176,4.0,4.0,94,0.00,,OVC095,0.00,VWS V14.01,2013-02-18 04:34:00,
2013-02-17 23:39:00,19.5,18.1,29.56,NE,44,3.0,6.0,94,0.00,,OVC095,0.00,VWS V14.01,2013-02-18 04:39:00,
2013-02-17 23:44:00,19.5,18.1,29.56,SSE,163,0.0,1.0,94,0.00,,OVC095,0.00,VWS V14.01,2013-02-18 04:44:00,
2013-02-17 23:49:00,19.4,18.0,29.56,North,355,4.0,11.0,94,0.00,,OVC095,0.00,VWS V14.01,2013-02-18 04:49:00,
2013-02-17 23:54:00,19.4,18.0,29.57,South,173,2.0,5.0,94,0.00,,OVC095,0.00,VWS V14.01,2013-02-18 04:54:00,
2013-02-17 23:59:00,19.3,17.9,29.57,South,173,3.0,6.0,94,0.00,,OVC095,0.00,VWS V14.01,2013-02-18 04:59:00,